<?xml version='1.0' encoding='UTF-8'?><gpx version="1.1" creator="JPX - https://github.com/jenetics/jpx" xmlns="http://www.topografix.com/GPX/1/1"><trk><trkseg><trkpt lat="44.830460450502045" lon="4.809424214917461"><ele>97.0</ele><time>2026-04-09T15:19:53.999Z</time></trkpt><trkpt lat="44.83052479590054" lon="4.809421656874105"><ele>97.0</ele><time>2026-04-09T15:19:57.999Z</time></trkpt><trkpt lat="44.830580377036696" lon="4.809345311743993"><ele>97.0</ele><time>2026-04-09T15:20:01.999Z</time></trkpt><trkpt lat="44.83064923463213" lon="4.809266833843927"><ele>97.0</ele><time>2026-04-09T15:20:04.999Z</time></trkpt><trkpt lat="44.830704449989945" lon="4.8092183038658"><ele>97.0</ele><time>2026-04-09T15:20:06.999Z</time></trkpt><trkpt lat="44.83076958926546" lon="4.809162834343274"><ele>97.0</ele><time>2026-04-09T15:20:08.999Z</time></trkpt><trkpt lat="44.830834556212544" lon="4.809110257775582"><ele>97.0</ele><time>2026-04-09T15:20:10.999Z</time></trkpt><trkpt lat="44.830897271103424" lon="4.809063547025461"><ele>97.00000000000001</ele><time>2026-04-09T15:20:12.999Z</time></trkpt><trkpt lat="44.83096389515316" lon="4.8090171271061175"><ele>97.0</ele><time>2026-04-09T15:20:14.999Z</time></trkpt><trkpt lat="44.83103369318307" lon="4.809008121473303"><ele>97.0</ele><time>2026-04-09T15:20:16.999Z</time></trkpt><trkpt lat="44.831128497487256" lon="4.808981477302188"><ele>97.0</ele><time>2026-04-09T15:20:19.999Z</time></trkpt><trkpt lat="44.83119192828005" lon="4.808914754787102"><ele>97.00000000000001</ele><time>2026-04-09T15:20:21.999Z</time></trkpt><trkpt lat="44.831244176255325" lon="4.808861599260357"><ele>97.0</ele><time>2026-04-09T15:20:23.999Z</time></trkpt><trkpt lat="44.83130392353623" lon="4.808814385742791"><ele>97.00000000000001</ele><time>2026-04-09T15:20:25.999Z</time></trkpt><trkpt lat="44.83136361628287" lon="4.808752382414612"><ele>97.0</ele><time>2026-04-09T15:20:27.999Z</time></trkpt><trkpt lat="44.83142541972289" lon="4.8086867570876155"><ele>97.0</ele><time>2026-04-09T15:20:29.999Z</time></trkpt><trkpt lat="44.83146872656409" lon="4.808608931517425"><ele>97.0</ele><time>2026-04-09T15:20:31.999Z</time></trkpt><trkpt lat="44.83153226227085" lon="4.808553075932263"><ele>97.00000000000001</ele><time>2026-04-09T15:20:33.999Z</time></trkpt><trkpt lat="44.8316107658606" lon="4.808487223710532"><ele>97.0</ele><time>2026-04-09T15:20:36.999Z</time></trkpt><trkpt lat="44.83166666386127" lon="4.808418803718028"><ele>97.33333333333334</ele><time>2026-04-09T15:20:38.999Z</time></trkpt><trkpt lat="44.83173332556947" lon="4.808356232229732"><ele>97.66666666666667</ele><time>2026-04-09T15:20:41.999Z</time></trkpt><trkpt lat="44.83172127200478" lon="4.808248457712261"><ele>98.0</ele><time>2026-04-09T15:20:45.999Z</time></trkpt><trkpt lat="44.831679535287265" lon="4.808161571752169"><ele>98.33333333333334</ele><time>2026-04-09T15:20:47.999Z</time></trkpt><trkpt lat="44.831611779115036" lon="4.808064246325486"><ele>98.66666666666667</ele><time>2026-04-09T15:20:50.999Z</time></trkpt><trkpt lat="44.831562500960715" lon="4.8079850193920235"><ele>99.0</ele><time>2026-04-09T15:20:52.999Z</time></trkpt><trkpt lat="44.83150773537903" lon="4.807901671989454"><ele>99.0</ele><time>2026-04-09T15:20:54.999Z</time></trkpt><trkpt lat="44.83145805499701" lon="4.8078332767665675"><ele>99.0</ele><time>2026-04-09T15:20:56.999Z</time></trkpt><trkpt lat="44.831396884080256" lon="4.807779296197612"><ele>99.0</ele><time>2026-04-09T15:20:58.999Z</time></trkpt><trkpt lat="44.83134210421189" lon="4.80771514979995"><ele>99.0</ele><time>2026-04-09T15:21:00.999Z</time></trkpt><trkpt lat="44.831289726640854" lon="4.80765200257167"><ele>99.0</ele><time>2026-04-09T15:21:02.999Z</time></trkpt><trkpt lat="44.831227359120696" lon="4.807559247811907"><ele>99.0</ele><time>2026-04-09T15:21:05.999Z</time></trkpt><trkpt lat="44.83118976550501" lon="4.80746714597044"><ele>99.0</ele><time>2026-04-09T15:21:07.999Z</time></trkpt><trkpt lat="44.83113058483516" lon="4.807400634928215"><ele>98.83333333333333</ele><time>2026-04-09T15:21:09.999Z</time></trkpt><trkpt lat="44.83106064178329" lon="4.807328378210633"><ele>98.66666666666666</ele><time>2026-04-09T15:21:11.999Z</time></trkpt><trkpt lat="44.830980631371816" lon="4.807270998034887"><ele>98.5</ele><time>2026-04-09T15:21:13.999Z</time></trkpt><trkpt lat="44.83090533555718" lon="4.807196192849165"><ele>98.33333333333333</ele><time>2026-04-09T15:21:15.999Z</time></trkpt><trkpt lat="44.83082895578643" lon="4.807144431510893"><ele>98.16666666666666</ele><time>2026-04-09T15:21:17.999Z</time></trkpt><trkpt lat="44.8307445764182" lon="4.8070882179142"><ele>98.0</ele><time>2026-04-09T15:21:19.999Z</time></trkpt><trkpt lat="44.830682722161896" lon="4.807021062242372"><ele>98.0</ele><time>2026-04-09T15:21:21.999Z</time></trkpt><trkpt lat="44.83060343479376" lon="4.806962057116384"><ele>98.0</ele><time>2026-04-09T15:21:23.999Z</time></trkpt><trkpt lat="44.83051067063913" lon="4.806913413831157"><ele>98.0</ele><time>2026-04-09T15:21:25.999Z</time></trkpt><trkpt lat="44.830434920484194" lon="4.806852707753693"><ele>98.0</ele><time>2026-04-09T15:21:27.999Z</time></trkpt><trkpt lat="44.83036563245552" lon="4.806773438320296"><ele>98.0</ele><time>2026-04-09T15:21:30Z</time></trkpt><trkpt lat="44.830285987868" lon="4.806702404951859"><ele>98.60000000000001</ele><time>2026-04-09T15:21:32Z</time></trkpt><trkpt lat="44.830199814949346" lon="4.806622788911254"><ele>99.2</ele><time>2026-04-09T15:21:34Z</time></trkpt><trkpt lat="44.83012296925211" lon="4.806546416339255"><ele>99.8</ele><time>2026-04-09T15:21:36Z</time></trkpt><trkpt lat="44.830035442973006" lon="4.806460759358453"><ele>100.4</ele><time>2026-04-09T15:21:38Z</time></trkpt><trkpt lat="44.82994706657143" lon="4.806381323706082"><ele>101.0</ele><time>2026-04-09T15:21:40Z</time></trkpt><trkpt lat="44.829855845905804" lon="4.806310214505451"><ele>101.0</ele><time>2026-04-09T15:21:42Z</time></trkpt><trkpt lat="44.82976745320273" lon="4.806224801502735"><ele>101.0</ele><time>2026-04-09T15:21:44Z</time></trkpt><trkpt lat="44.82967456275419" lon="4.8061503897671765"><ele>101.0</ele><time>2026-04-09T15:21:46Z</time></trkpt><trkpt lat="44.829588321793814" lon="4.806071687734616"><ele>101.0</ele><time>2026-04-09T15:21:48Z</time></trkpt><trkpt lat="44.829489733568934" lon="4.806013397204998"><ele>101.0</ele><time>2026-04-09T15:21:50Z</time></trkpt><trkpt lat="44.829391346937065" lon="4.805952804864901"><ele>102.19999999999999</ele><time>2026-04-09T15:21:52Z</time></trkpt><trkpt lat="44.82929570349512" lon="4.805892467998609"><ele>103.39999999999999</ele><time>2026-04-09T15:21:54Z</time></trkpt><trkpt lat="44.82920150824647" lon="4.805815498616048"><ele>104.6</ele><time>2026-04-09T15:21:56Z</time></trkpt><trkpt lat="44.82910245447344" lon="4.805751989392623"><ele>105.8</ele><time>2026-04-09T15:21:58Z</time></trkpt><trkpt lat="44.82900496811995" lon="4.805688197000653"><ele>107.0</ele><time>2026-04-09T15:22:00Z</time></trkpt><trkpt lat="44.828914711131084" lon="4.8056194830798145"><ele>107.0</ele><time>2026-04-09T15:22:02Z</time></trkpt><trkpt lat="44.82882288391759" lon="4.805550667500861"><ele>106.99999999999999</ele><time>2026-04-09T15:22:04Z</time></trkpt><trkpt lat="44.82873280989686" lon="4.805498618564852"><ele>106.99999999999999</ele><time>2026-04-09T15:22:06Z</time></trkpt><trkpt lat="44.828649536252875" lon="4.805431303594376"><ele>107.0</ele><time>2026-04-09T15:22:08Z</time></trkpt><trkpt lat="44.82856590675505" lon="4.805365748635173"><ele>107.0</ele><time>2026-04-09T15:22:10Z</time></trkpt><trkpt lat="44.82847752027329" lon="4.805307463930576"><ele>107.8</ele><time>2026-04-09T15:22:12Z</time></trkpt><trkpt lat="44.82838801046002" lon="4.8052284589296095"><ele>108.6</ele><time>2026-04-09T15:22:14Z</time></trkpt><trkpt lat="44.828307921596135" lon="4.805147583420052"><ele>109.39999999999999</ele><time>2026-04-09T15:22:16Z</time></trkpt><trkpt lat="44.82822535635448" lon="4.805064633048737"><ele>110.19999999999999</ele><time>2026-04-09T15:22:18Z</time></trkpt><trkpt lat="44.828144966956" lon="4.804987803422728"><ele>111.0</ele><time>2026-04-09T15:22:20Z</time></trkpt><trkpt lat="44.828054163535256" lon="4.804917469260828"><ele>111.0</ele><time>2026-04-09T15:22:22Z</time></trkpt><trkpt lat="44.827963454586964" lon="4.8048605412420855"><ele>111.0</ele><time>2026-04-09T15:22:24Z</time></trkpt><trkpt lat="44.827880798426186" lon="4.80478568586943"><ele>111.0</ele><time>2026-04-09T15:22:26Z</time></trkpt><trkpt lat="44.827797829913294" lon="4.804710573213373"><ele>111.0</ele><time>2026-04-09T15:22:28Z</time></trkpt><trkpt lat="44.8277163797021" lon="4.804628627538335"><ele>111.0</ele><time>2026-04-09T15:22:30Z</time></trkpt><trkpt lat="44.82763464821558" lon="4.804559266232924"><ele>110.8</ele><time>2026-04-09T15:22:32Z</time></trkpt><trkpt lat="44.82754776121044" lon="4.8044941303920545"><ele>110.6</ele><time>2026-04-09T15:22:34Z</time></trkpt><trkpt lat="44.82746982285215" lon="4.804413317681686"><ele>110.4</ele><time>2026-04-09T15:22:36Z</time></trkpt><trkpt lat="44.82739061368889" lon="4.8043238687162155"><ele>110.2</ele><time>2026-04-09T15:22:38Z</time></trkpt><trkpt lat="44.827312979083864" lon="4.804235751499746"><ele>110.0</ele><time>2026-04-09T15:22:40Z</time></trkpt><trkpt lat="44.82724206275451" lon="4.804139047202475"><ele>109.99999999999999</ele><time>2026-04-09T15:22:42Z</time></trkpt><trkpt lat="44.82716956498584" lon="4.804046862027847"><ele>110.0</ele><time>2026-04-09T15:22:44Z</time></trkpt><trkpt lat="44.827106168609525" lon="4.803961463698922"><ele>110.0</ele><time>2026-04-09T15:22:46Z</time></trkpt><trkpt lat="44.82702760284161" lon="4.803907673019694"><ele>110.0</ele><time>2026-04-09T15:22:48Z</time></trkpt><trkpt lat="44.826966398197534" lon="4.803826733550749"><ele>109.99999999999999</ele><time>2026-04-09T15:22:50Z</time></trkpt><trkpt lat="44.82690611204719" lon="4.8037381075921415"><ele>110.0</ele><time>2026-04-09T15:22:52Z</time></trkpt><trkpt lat="44.82686652749563" lon="4.803640635685301"><ele>109.99999999999999</ele><time>2026-04-09T15:22:54Z</time></trkpt><trkpt lat="44.826820462582795" lon="4.803564002253544"><ele>110.0</ele><time>2026-04-09T15:22:56Z</time></trkpt><trkpt lat="44.82675725825016" lon="4.803486144146431"><ele>110.0</ele><time>2026-04-09T15:22:58Z</time></trkpt><trkpt lat="44.82669072930898" lon="4.803408866097122"><ele>110.0</ele><time>2026-04-09T15:23:00Z</time></trkpt><trkpt lat="44.8266377385738" lon="4.803339878290831"><ele>109.99999999999999</ele><time>2026-04-09T15:23:02Z</time></trkpt><trkpt lat="44.826580195536984" lon="4.803269798102094"><ele>110.0</ele><time>2026-04-09T15:23:04Z</time></trkpt><trkpt lat="44.826527144487244" lon="4.80319246312757"><ele>108.99999999999999</ele><time>2026-04-09T15:23:06Z</time></trkpt><trkpt lat="44.82646748007971" lon="4.803106106551454"><ele>108.0</ele><time>2026-04-09T15:23:08Z</time></trkpt><trkpt lat="44.82640596422186" lon="4.803015429146352"><ele>107.0</ele><time>2026-04-09T15:23:10Z</time></trkpt><trkpt lat="44.82635827122852" lon="4.802918593908636"><ele>106.0</ele><time>2026-04-09T15:23:12Z</time></trkpt><trkpt lat="44.826294985109996" lon="4.80284927437881"><ele>104.99999999999999</ele><time>2026-04-09T15:23:14Z</time></trkpt><trkpt lat="44.82623519117367" lon="4.8028065746515285"><ele>104.0</ele><time>2026-04-09T15:23:16Z</time></trkpt><trkpt lat="44.826156054256124" lon="4.8027823146634345"><ele>104.0</ele><time>2026-04-09T15:23:17.999Z</time></trkpt><trkpt lat="44.82607441865764" lon="4.802770791714531"><ele>104.0</ele><time>2026-04-09T15:23:19.999Z</time></trkpt><trkpt lat="44.82596969516087" lon="4.802839939690247"><ele>104.0</ele><time>2026-04-09T15:23:21.999Z</time></trkpt><trkpt lat="44.82589482729525" lon="4.802952922509938"><ele>104.0</ele><time>2026-04-09T15:23:23.999Z</time></trkpt><trkpt lat="44.825805941832684" lon="4.803059593218999"><ele>104.0</ele><time>2026-04-09T15:23:25.999Z</time></trkpt><trkpt lat="44.825696755108204" lon="4.803089506799671"><ele>103.16666666666666</ele><time>2026-04-09T15:23:27.998Z</time></trkpt><trkpt lat="44.82562125094475" lon="4.802996286035787"><ele>102.33333333333333</ele><time>2026-04-09T15:23:29.999Z</time></trkpt><trkpt lat="44.82559342695043" lon="4.80289176575293"><ele>101.5</ele><time>2026-04-09T15:23:31.998Z</time></trkpt><trkpt lat="44.825580342387696" lon="4.802804026601955"><ele>100.66666666666666</ele><time>2026-04-09T15:23:35.999Z</time></trkpt><trkpt lat="44.82550485855149" lon="4.802703761255203"><ele>99.83333333333333</ele><time>2026-04-09T15:26:58.998Z</time></trkpt><trkpt lat="44.82544971250834" lon="4.802604653328828"><ele>99.0</ele><time>2026-04-09T15:27:01.998Z</time></trkpt><trkpt lat="44.82540983673755" lon="4.802514631671338"><ele>98.83333333333333</ele><time>2026-04-09T15:27:03.998Z</time></trkpt><trkpt lat="44.825375428510874" lon="4.802423391638511"><ele>98.66666666666666</ele><time>2026-04-09T15:27:05.998Z</time></trkpt><trkpt lat="44.82533821615052" lon="4.802318463260828"><ele>98.5</ele><time>2026-04-09T15:27:07.998Z</time></trkpt><trkpt lat="44.825277321458145" lon="4.802229812680876"><ele>98.33333333333333</ele><time>2026-04-09T15:27:09.998Z</time></trkpt><trkpt lat="44.82522260291291" lon="4.802144410590938"><ele>98.16666666666666</ele><time>2026-04-09T15:27:11.998Z</time></trkpt><trkpt lat="44.82515503738324" lon="4.802058962429692"><ele>98.0</ele><time>2026-04-09T15:27:13.998Z</time></trkpt><trkpt lat="44.82508464938725" lon="4.801979743803398"><ele>97.83333333333333</ele><time>2026-04-09T15:27:15.998Z</time></trkpt><trkpt lat="44.82502156231832" lon="4.801887551915074"><ele>97.66666666666666</ele><time>2026-04-09T15:27:17.998Z</time></trkpt><trkpt lat="44.82495173305387" lon="4.801810304537381"><ele>97.5</ele><time>2026-04-09T15:27:19.998Z</time></trkpt><trkpt lat="44.82487934644928" lon="4.801732934281794"><ele>97.33333333333334</ele><time>2026-04-09T15:27:21.998Z</time></trkpt><trkpt lat="44.824804162410466" lon="4.8016594772937315"><ele>97.16666666666667</ele><time>2026-04-09T15:27:23.998Z</time></trkpt><trkpt lat="44.82474032968054" lon="4.801580776576857"><ele>97.0</ele><time>2026-04-09T15:27:25.998Z</time></trkpt><trkpt lat="44.82466838965904" lon="4.801498272355775"><ele>97.0</ele><time>2026-04-09T15:27:27.998Z</time></trkpt><trkpt lat="44.824593588694036" lon="4.8014150014650365"><ele>97.0</ele><time>2026-04-09T15:27:29.998Z</time></trkpt><trkpt lat="44.824527204796816" lon="4.801324519334228"><ele>97.0</ele><time>2026-04-09T15:27:31.998Z</time></trkpt><trkpt lat="44.82443863293397" lon="4.801248243307276"><ele>97.0</ele><time>2026-04-09T15:27:33.998Z</time></trkpt><trkpt lat="44.824360166009825" lon="4.80117214421676"><ele>97.0</ele><time>2026-04-09T15:27:35.998Z</time></trkpt><trkpt lat="44.824273139459805" lon="4.801097585934175"><ele>97.0</ele><time>2026-04-09T15:27:37.997Z</time></trkpt><trkpt lat="44.82420021447678" lon="4.801011964522678"><ele>97.0</ele><time>2026-04-09T15:27:39.997Z</time></trkpt><trkpt lat="44.82412052448249" lon="4.800938205578835"><ele>97.0</ele><time>2026-04-09T15:27:41.997Z</time></trkpt><trkpt lat="44.824035986088816" lon="4.800876041432691"><ele>97.0</ele><time>2026-04-09T15:27:43.997Z</time></trkpt><trkpt lat="44.82395353751042" lon="4.800827787802433"><ele>97.0</ele><time>2026-04-09T15:27:45.998Z</time></trkpt><trkpt lat="44.82386924345584" lon="4.800824463952"><ele>97.19999999999999</ele><time>2026-04-09T15:27:47.998Z</time></trkpt><trkpt lat="44.823783904414455" lon="4.800831539462239"><ele>97.4</ele><time>2026-04-09T15:27:49.998Z</time></trkpt><trkpt lat="44.8236913594624" lon="4.800845897082733"><ele>97.6</ele><time>2026-04-09T15:27:51.998Z</time></trkpt><trkpt lat="44.823595760694836" lon="4.800875774842377"><ele>97.80000000000001</ele><time>2026-04-09T15:27:53.998Z</time></trkpt><trkpt lat="44.82349989207299" lon="4.8008892746122545"><ele>98.0</ele><time>2026-04-09T15:27:55.998Z</time></trkpt><trkpt lat="44.82340749597703" lon="4.800910494183978"><ele>97.99999999999999</ele><time>2026-04-09T15:27:57.998Z</time></trkpt><trkpt lat="44.82333955116936" lon="4.800888868624813"><ele>98.0</ele><time>2026-04-09T15:28:00.998Z</time></trkpt><trkpt lat="44.8233947230518" lon="4.80083129890121"><ele>98.0</ele><time>2026-04-09T15:28:03.998Z</time></trkpt><trkpt lat="44.823482531345974" lon="4.800847144170256"><ele>98.0</ele><time>2026-04-09T15:28:06.998Z</time></trkpt><trkpt lat="44.823571224748" lon="4.800805380424831"><ele>97.99999999999999</ele><time>2026-04-09T15:28:09.998Z</time></trkpt><trkpt lat="44.8236335661432" lon="4.800774840303765"><ele>98.0</ele><time>2026-04-09T15:28:11.998Z</time></trkpt><trkpt lat="44.8237115720938" lon="4.800729313363798"><ele>97.99999999999999</ele><time>2026-04-09T15:28:14.998Z</time></trkpt><trkpt lat="44.82378733612669" lon="4.800684396484151"><ele>98.0</ele><time>2026-04-09T15:28:16.998Z</time></trkpt><trkpt lat="44.823856886768304" lon="4.800628235736002"><ele>98.0</ele><time>2026-04-09T15:28:18.998Z</time></trkpt><trkpt lat="44.82392957205038" lon="4.800570133209287"><ele>98.0</ele><time>2026-04-09T15:28:20.998Z</time></trkpt><trkpt lat="44.82400580893456" lon="4.800517337150407"><ele>97.99999999999999</ele><time>2026-04-09T15:28:22.998Z</time></trkpt><trkpt lat="44.82407640083126" lon="4.800472525886451"><ele>98.0</ele><time>2026-04-09T15:28:24.998Z</time></trkpt><trkpt lat="44.824163419116935" lon="4.800398430020292"><ele>98.0</ele><time>2026-04-09T15:28:26.998Z</time></trkpt><trkpt lat="44.82423211319633" lon="4.800366992547968"><ele>98.0</ele><time>2026-04-09T15:28:28.998Z</time></trkpt><trkpt lat="44.824296831016646" lon="4.8003221394410325"><ele>98.0</ele><time>2026-04-09T15:28:30.998Z</time></trkpt><trkpt lat="44.82436138629492" lon="4.800278823687347"><ele>98.0</ele><time>2026-04-09T15:28:32.998Z</time></trkpt><trkpt lat="44.824423772085396" lon="4.800228909287858"><ele>98.0</ele><time>2026-04-09T15:28:34.998Z</time></trkpt><trkpt lat="44.824491841733085" lon="4.800169633690613"><ele>98.0</ele><time>2026-04-09T15:28:36.998Z</time></trkpt><trkpt lat="44.82455841922883" lon="4.8001027075828855"><ele>98.0</ele><time>2026-04-09T15:28:38.998Z</time></trkpt><trkpt lat="44.82463157990404" lon="4.800046166388981"><ele>97.71428571428571</ele><time>2026-04-09T15:28:40.998Z</time></trkpt><trkpt lat="44.824703194984814" lon="4.800013091653086"><ele>97.42857142857143</ele><time>2026-04-09T15:28:42.998Z</time></trkpt><trkpt lat="44.82477329421739" lon="4.800004003642339"><ele>97.14285714285714</ele><time>2026-04-09T15:28:45.998Z</time></trkpt><trkpt lat="44.82476685464985" lon="4.799891111008609"><ele>96.85714285714286</ele><time>2026-04-09T15:28:49.998Z</time></trkpt><trkpt lat="44.82472277920483" lon="4.799823261654724"><ele>96.57142857142857</ele><time>2026-04-09T15:28:51.998Z</time></trkpt><trkpt lat="44.82468781866225" lon="4.799747481109165"><ele>96.28571428571428</ele><time>2026-04-09T15:28:53.998Z</time></trkpt><trkpt lat="44.824640071399465" lon="4.79967136687626"><ele>96.0</ele><time>2026-04-09T15:28:55.998Z</time></trkpt><trkpt lat="44.82458804919115" lon="4.799580512608563"><ele>96.0</ele><time>2026-04-09T15:28:57.998Z</time></trkpt><trkpt lat="44.82454061939574" lon="4.799476618476121"><ele>96.0</ele><time>2026-04-09T15:28:59.998Z</time></trkpt><trkpt lat="44.824493194560525" lon="4.79936727598594"><ele>96.0</ele><time>2026-04-09T15:29:01.998Z</time></trkpt><trkpt lat="44.82444230758387" lon="4.79926258497104"><ele>96.0</ele><time>2026-04-09T15:29:03.998Z</time></trkpt><trkpt lat="44.82439063516593" lon="4.799158825731646"><ele>96.0</ele><time>2026-04-09T15:29:05.998Z</time></trkpt><trkpt lat="44.824337719532046" lon="4.7990528402717105"><ele>95.19999999999999</ele><time>2026-04-09T15:29:07.998Z</time></trkpt><trkpt lat="44.82428586486885" lon="4.798951155604265"><ele>94.39999999999999</ele><time>2026-04-09T15:29:09.998Z</time></trkpt><trkpt lat="44.82423629887171" lon="4.798846378166729"><ele>93.6</ele><time>2026-04-09T15:29:11.998Z</time></trkpt><trkpt lat="44.82418581586407" lon="4.798742655909094"><ele>92.8</ele><time>2026-04-09T15:29:13.998Z</time></trkpt><trkpt lat="44.824129166355775" lon="4.798631556974931"><ele>92.0</ele><time>2026-04-09T15:29:15.998Z</time></trkpt><trkpt lat="44.82407494043872" lon="4.7985216891649465"><ele>93.19999999999999</ele><time>2026-04-09T15:29:17.998Z</time></trkpt><trkpt lat="44.82401782114493" lon="4.79841684468468"><ele>94.4</ele><time>2026-04-09T15:29:19.998Z</time></trkpt><trkpt lat="44.82396125786735" lon="4.798307718340763"><ele>95.6</ele><time>2026-04-09T15:29:21.998Z</time></trkpt><trkpt lat="44.8239033844642" lon="4.798200694944598"><ele>96.80000000000001</ele><time>2026-04-09T15:29:23.998Z</time></trkpt><trkpt lat="44.82385529526577" lon="4.798104341388964"><ele>98.0</ele><time>2026-04-09T15:29:25.998Z</time></trkpt><trkpt lat="44.823772924709374" lon="4.798086463621744"><ele>97.99999999999999</ele><time>2026-04-09T15:29:28.997Z</time></trkpt><trkpt lat="44.823735664494606" lon="4.79817656651405"><ele>98.0</ele><time>2026-04-09T15:29:30.997Z</time></trkpt><trkpt lat="44.823708966447526" lon="4.798299656915514"><ele>98.0</ele><time>2026-04-09T15:29:33.997Z</time></trkpt><trkpt lat="44.823679423334504" lon="4.798393189071767"><ele>98.0</ele><time>2026-04-09T15:29:35.997Z</time></trkpt><trkpt lat="44.82364309802296" lon="4.798493149329111"><ele>97.99999999999999</ele><time>2026-04-09T15:29:37.997Z</time></trkpt><trkpt lat="44.823584352054034" lon="4.79859975586446"><ele>98.0</ele><time>2026-04-09T15:29:39.997Z</time></trkpt><trkpt lat="44.823520451240576" lon="4.798745204408505"><ele>97.83333333333333</ele><time>2026-04-09T15:29:41.997Z</time></trkpt><trkpt lat="44.82348072595228" lon="4.798828636491023"><ele>97.66666666666666</ele><time>2026-04-09T15:29:42.997Z</time></trkpt><trkpt lat="44.82343639157018" lon="4.7989150417364845"><ele>97.5</ele><time>2026-04-09T15:29:43.996Z</time></trkpt><trkpt lat="44.823387682243975" lon="4.799013989991464"><ele>97.33333333333334</ele><time>2026-04-09T15:29:44.996Z</time></trkpt><trkpt lat="44.82333297905779" lon="4.799103979905495"><ele>97.16666666666667</ele><time>2026-04-09T15:29:45.997Z</time></trkpt><trkpt lat="44.82327617821169" lon="4.799178445190437"><ele>97.0</ele><time>2026-04-09T15:29:46.996Z</time></trkpt><trkpt lat="44.82322263734084" lon="4.799246392619913"><ele>97.00000000000001</ele><time>2026-04-09T15:29:47.996Z</time></trkpt><trkpt lat="44.823165933496774" lon="4.799298600658703"><ele>97.0</ele><time>2026-04-09T15:29:48.996Z</time></trkpt><trkpt lat="44.823102305023085" lon="4.799346951237459"><ele>97.0</ele><time>2026-04-09T15:29:49.996Z</time></trkpt><trkpt lat="44.82303741637863" lon="4.799395235339608"><ele>97.0</ele><time>2026-04-09T15:29:50.996Z</time></trkpt><trkpt lat="44.82298074267391" lon="4.799446844903083"><ele>97.00000000000001</ele><time>2026-04-09T15:29:51.997Z</time></trkpt><trkpt lat="44.82293069473346" lon="4.799504229714753"><ele>97.0</ele><time>2026-04-09T15:29:52.997Z</time></trkpt><trkpt lat="44.822819338827784" lon="4.799592603209582"><ele>97.19999999999999</ele><time>2026-04-09T15:29:54.997Z</time></trkpt><trkpt lat="44.82275531763289" lon="4.799605365083056"><ele>97.4</ele><time>2026-04-09T15:29:55.997Z</time></trkpt><trkpt lat="44.82263810415844" lon="4.799649983603184"><ele>97.6</ele><time>2026-04-09T15:29:57.997Z</time></trkpt><trkpt lat="44.82252296300168" lon="4.799712031580212"><ele>97.80000000000001</ele><time>2026-04-09T15:29:59.997Z</time></trkpt><trkpt lat="44.822413372988464" lon="4.799768164566237"><ele>98.0</ele><time>2026-04-09T15:30:01.997Z</time></trkpt><trkpt lat="44.822319058853374" lon="4.79982978456161"><ele>98.0</ele><time>2026-04-09T15:30:03.997Z</time></trkpt><trkpt lat="44.82222662527902" lon="4.799890638210167"><ele>98.0</ele><time>2026-04-09T15:30:05.997Z</time></trkpt><trkpt lat="44.822135454177165" lon="4.7999668135293305"><ele>98.0</ele><time>2026-04-09T15:30:07.997Z</time></trkpt><trkpt lat="44.82206721615223" lon="4.800079179809408"><ele>98.0</ele><time>2026-04-09T15:30:09.997Z</time></trkpt><trkpt lat="44.82201709466263" lon="4.80021333797287"><ele>98.0</ele><time>2026-04-09T15:30:11.997Z</time></trkpt><trkpt lat="44.821961630170605" lon="4.800337406623574"><ele>97.80000000000001</ele><time>2026-04-09T15:30:13.997Z</time></trkpt><trkpt lat="44.82190004897107" lon="4.800453656870158"><ele>97.6</ele><time>2026-04-09T15:30:15.997Z</time></trkpt><trkpt lat="44.82181828177959" lon="4.80053733196674"><ele>97.4</ele><time>2026-04-09T15:30:17.997Z</time></trkpt><trkpt lat="44.82172738310195" lon="4.800590879676564"><ele>97.19999999999999</ele><time>2026-04-09T15:30:19.997Z</time></trkpt><trkpt lat="44.82165350315751" lon="4.8006476756371494"><ele>97.0</ele><time>2026-04-09T15:30:21.997Z</time></trkpt><trkpt lat="44.82156409147507" lon="4.800706804276577"><ele>96.39999999999999</ele><time>2026-04-09T15:30:23.997Z</time></trkpt><trkpt lat="44.82147362412834" lon="4.800755209922659"><ele>95.8</ele><time>2026-04-09T15:30:25.997Z</time></trkpt><trkpt lat="44.82137691926334" lon="4.800802703607974"><ele>95.2</ele><time>2026-04-09T15:30:27.997Z</time></trkpt><trkpt lat="44.82127511615336" lon="4.80084985870856"><ele>94.6</ele><time>2026-04-09T15:30:29.997Z</time></trkpt><trkpt lat="44.82117178673272" lon="4.800893312237159"><ele>94.0</ele><time>2026-04-09T15:30:31.997Z</time></trkpt><trkpt lat="44.82106546450964" lon="4.800926502913058"><ele>94.0</ele><time>2026-04-09T15:30:33.997Z</time></trkpt><trkpt lat="44.8209682610505" lon="4.800950572044282"><ele>94.0</ele><time>2026-04-09T15:30:35.997Z</time></trkpt><trkpt lat="44.8208683785218" lon="4.80096637402259"><ele>94.0</ele><time>2026-04-09T15:30:37.997Z</time></trkpt><trkpt lat="44.820763664635585" lon="4.800988000951465"><ele>94.0</ele><time>2026-04-09T15:30:39.997Z</time></trkpt><trkpt lat="44.8206623910535" lon="4.8010124832212995"><ele>94.0</ele><time>2026-04-09T15:30:41.997Z</time></trkpt><trkpt lat="44.82054768706921" lon="4.801035035204627"><ele>94.16666666666666</ele><time>2026-04-09T15:30:43.997Z</time></trkpt><trkpt lat="44.82044459586263" lon="4.801056480428488"><ele>94.33333333333333</ele><time>2026-04-09T15:30:45.997Z</time></trkpt><trkpt lat="44.820336457290225" lon="4.801068725706226"><ele>94.5</ele><time>2026-04-09T15:30:47.997Z</time></trkpt><trkpt lat="44.82025022186177" lon="4.801081725408689"><ele>94.66666666666667</ele><time>2026-04-09T15:30:49.997Z</time></trkpt><trkpt lat="44.82018092357216" lon="4.801093731312919"><ele>94.83333333333334</ele><time>2026-04-09T15:30:51.997Z</time></trkpt><trkpt lat="44.82010725461404" lon="4.801105039578212"><ele>95.0</ele><time>2026-04-09T15:30:54.997Z</time></trkpt><trkpt lat="44.82004448242022" lon="4.80111403860807"><ele>95.0</ele><time>2026-04-09T15:30:56.997Z</time></trkpt><trkpt lat="44.81997342118826" lon="4.8011237646042355"><ele>95.0</ele><time>2026-04-09T15:30:58.997Z</time></trkpt><trkpt lat="44.81989183050206" lon="4.8011222629099795"><ele>95.0</ele><time>2026-04-09T15:31:00.997Z</time></trkpt><trkpt lat="44.81981297529726" lon="4.801132611005288"><ele>95.0</ele><time>2026-04-09T15:31:02.997Z</time></trkpt><trkpt lat="44.819730065455566" lon="4.801136877181228"><ele>95.0</ele><time>2026-04-09T15:31:04.997Z</time></trkpt><trkpt lat="44.819635845432465" lon="4.8011485404278"><ele>95.0</ele><time>2026-04-09T15:31:06.997Z</time></trkpt><trkpt lat="44.81954232763523" lon="4.801154842825178"><ele>95.0</ele><time>2026-04-09T15:31:08.997Z</time></trkpt><trkpt lat="44.81944959473832" lon="4.801175639227141"><ele>95.0</ele><time>2026-04-09T15:31:10.997Z</time></trkpt><trkpt lat="44.81935188049467" lon="4.801195428366516"><ele>95.0</ele><time>2026-04-09T15:31:12.997Z</time></trkpt><trkpt lat="44.81926335831165" lon="4.801208457665559"><ele>95.0</ele><time>2026-04-09T15:31:14.997Z</time></trkpt><trkpt lat="44.819169179165414" lon="4.801231643095783"><ele>95.0</ele><time>2026-04-09T15:31:16.997Z</time></trkpt><trkpt lat="44.81907496806547" lon="4.801245197589015"><ele>95.2</ele><time>2026-04-09T15:31:18.997Z</time></trkpt><trkpt lat="44.81897497461772" lon="4.801258744365206"><ele>95.4</ele><time>2026-04-09T15:31:20.997Z</time></trkpt><trkpt lat="44.81888349023709" lon="4.801277667480226"><ele>95.6</ele><time>2026-04-09T15:31:22.997Z</time></trkpt><trkpt lat="44.818786740251134" lon="4.801281945421219"><ele>95.8</ele><time>2026-04-09T15:31:24.997Z</time></trkpt><trkpt lat="44.81869096477606" lon="4.80129241941107"><ele>96.0</ele><time>2026-04-09T15:31:26.997Z</time></trkpt><trkpt lat="44.818593034359125" lon="4.801311959979139"><ele>96.0</ele><time>2026-04-09T15:31:28.997Z</time></trkpt><trkpt lat="44.81850271224688" lon="4.801315801723094"><ele>96.0</ele><time>2026-04-09T15:31:30.997Z</time></trkpt><trkpt lat="44.81840469913753" lon="4.801336463199069"><ele>96.0</ele><time>2026-04-09T15:31:32.997Z</time></trkpt><trkpt lat="44.81830371080513" lon="4.801345205385192"><ele>96.0</ele><time>2026-04-09T15:31:34.997Z</time></trkpt><trkpt lat="44.81821122294298" lon="4.801356500914099"><ele>96.0</ele><time>2026-04-09T15:31:36.997Z</time></trkpt><trkpt lat="44.818121396665006" lon="4.801380746868729"><ele>95.6</ele><time>2026-04-09T15:31:38.997Z</time></trkpt><trkpt lat="44.81803040419472" lon="4.801396482715444"><ele>95.19999999999999</ele><time>2026-04-09T15:31:40.997Z</time></trkpt><trkpt lat="44.81793965269707" lon="4.8013970743533605"><ele>94.80000000000001</ele><time>2026-04-09T15:31:42.997Z</time></trkpt><trkpt lat="44.8178454030589" lon="4.8014048026189675"><ele>94.4</ele><time>2026-04-09T15:31:44.997Z</time></trkpt><trkpt lat="44.81775673043905" lon="4.8014121871572195"><ele>94.0</ele><time>2026-04-09T15:31:46.996Z</time></trkpt><trkpt lat="44.817665955785706" lon="4.8014214586460735"><ele>94.2</ele><time>2026-04-09T15:31:48.996Z</time></trkpt><trkpt lat="44.8175679473229" lon="4.801434799287807"><ele>94.4</ele><time>2026-04-09T15:31:50.996Z</time></trkpt><trkpt lat="44.817474837320425" lon="4.8014454205123185"><ele>94.6</ele><time>2026-04-09T15:31:52.996Z</time></trkpt><trkpt lat="44.81738083668081" lon="4.801446662834814"><ele>94.8</ele><time>2026-04-09T15:31:54.996Z</time></trkpt><trkpt lat="44.817286475171514" lon="4.801456168819159"><ele>95.0</ele><time>2026-04-09T15:31:56.996Z</time></trkpt><trkpt lat="44.817192196951446" lon="4.801465281921173"><ele>95.0</ele><time>2026-04-09T15:31:58.996Z</time></trkpt><trkpt lat="44.817090304744525" lon="4.801470984536073"><ele>95.0</ele><time>2026-04-09T15:32:00.996Z</time></trkpt><trkpt lat="44.81698900387093" lon="4.801466144958337"><ele>95.0</ele><time>2026-04-09T15:32:02.996Z</time></trkpt><trkpt lat="44.81689283758384" lon="4.8014752909098934"><ele>95.0</ele><time>2026-04-09T15:32:04.996Z</time></trkpt><trkpt lat="44.816787848586976" lon="4.801446154296932"><ele>95.0</ele><time>2026-04-09T15:32:06.996Z</time></trkpt><trkpt lat="44.81670241082773" lon="4.801375424392068"><ele>94.8</ele><time>2026-04-09T15:32:08.996Z</time></trkpt><trkpt lat="44.81661815341795" lon="4.801272788772775"><ele>94.6</ele><time>2026-04-09T15:32:10.996Z</time></trkpt><trkpt lat="44.8165411394443" lon="4.8011761438075355"><ele>94.4</ele><time>2026-04-09T15:32:12.996Z</time></trkpt><trkpt lat="44.81646012332989" lon="4.801077037549754"><ele>94.2</ele><time>2026-04-09T15:32:14.996Z</time></trkpt><trkpt lat="44.816391446252055" lon="4.800958989171604"><ele>94.0</ele><time>2026-04-09T15:32:16.996Z</time></trkpt><trkpt lat="44.81633144065396" lon="4.8008428898528654"><ele>94.0</ele><time>2026-04-09T15:32:18.996Z</time></trkpt><trkpt lat="44.81626315553902" lon="4.800737197686948"><ele>94.0</ele><time>2026-04-09T15:32:20.996Z</time></trkpt><trkpt lat="44.81619621481055" lon="4.8006318497512686"><ele>94.0</ele><time>2026-04-09T15:32:22.996Z</time></trkpt><trkpt lat="44.816122644870745" lon="4.800519470190618"><ele>94.0</ele><time>2026-04-09T15:32:24.996Z</time></trkpt><trkpt lat="44.816062622653924" lon="4.800406906814528"><ele>94.0</ele><time>2026-04-09T15:32:26.996Z</time></trkpt><trkpt lat="44.81599030592986" lon="4.800307954622611"><ele>94.0</ele><time>2026-04-09T15:32:28.996Z</time></trkpt><trkpt lat="44.815918894244895" lon="4.800209550653866"><ele>94.0</ele><time>2026-04-09T15:32:30.996Z</time></trkpt><trkpt lat="44.81585486906105" lon="4.800120546948409"><ele>94.0</ele><time>2026-04-09T15:32:32.996Z</time></trkpt><trkpt lat="44.815791245586354" lon="4.800017119117557"><ele>94.0</ele><time>2026-04-09T15:32:34.996Z</time></trkpt><trkpt lat="44.81572692240591" lon="4.799907852728034"><ele>94.0</ele><time>2026-04-09T15:32:36.996Z</time></trkpt><trkpt lat="44.815665280436235" lon="4.799814123353361"><ele>94.0</ele><time>2026-04-09T15:32:38.996Z</time></trkpt><trkpt lat="44.815598362501525" lon="4.799722058367131"><ele>94.0</ele><time>2026-04-09T15:32:40.996Z</time></trkpt><trkpt lat="44.81552703364677" lon="4.799610198880594"><ele>94.0</ele><time>2026-04-09T15:32:42.996Z</time></trkpt><trkpt lat="44.81546860700629" lon="4.799506591476677"><ele>94.0</ele><time>2026-04-09T15:32:44.996Z</time></trkpt><trkpt lat="44.815417790467635" lon="4.799374114301534"><ele>94.0</ele><time>2026-04-09T15:32:46.996Z</time></trkpt><trkpt lat="44.81544399021691" lon="4.79923378645599"><ele>94.0</ele><time>2026-04-09T15:32:48.996Z</time></trkpt><trkpt lat="44.81552731168872" lon="4.799153812899698"><ele>94.0</ele><time>2026-04-09T15:32:50.996Z</time></trkpt><trkpt lat="44.81559434270926" lon="4.799115416771145"><ele>94.0</ele><time>2026-04-09T15:32:52.996Z</time></trkpt><trkpt lat="44.815676040586965" lon="4.799088419722977"><ele>94.0</ele><time>2026-04-09T15:32:55.996Z</time></trkpt><trkpt lat="44.815737916969006" lon="4.799055588787621"><ele>94.0</ele><time>2026-04-09T15:32:57.996Z</time></trkpt><trkpt lat="44.81569445584151" lon="4.798974993470088"><ele>94.0</ele><time>2026-04-09T15:33:00.996Z</time></trkpt><trkpt lat="44.81562139533586" lon="4.7989918891271985"><ele>94.0</ele><time>2026-04-09T15:33:03.996Z</time></trkpt><trkpt lat="44.81553512410208" lon="4.79900021838498"><ele>94.0</ele><time>2026-04-09T15:33:06.996Z</time></trkpt><trkpt lat="44.81544329124696" lon="4.798994702015672"><ele>94.0</ele><time>2026-04-09T15:33:09.996Z</time></trkpt><trkpt lat="44.81534941945941" lon="4.798999782791998"><ele>94.0</ele><time>2026-04-09T15:33:12.996Z</time></trkpt><trkpt lat="44.815259618448714" lon="4.799004607129317"><ele>94.0</ele><time>2026-04-09T15:33:15.996Z</time></trkpt><trkpt lat="44.81518498462449" lon="4.798993891168405"><ele>94.0</ele><time>2026-04-09T15:33:17.996Z</time></trkpt><trkpt lat="44.81511879701993" lon="4.798982681243775"><ele>94.83333333333333</ele><time>2026-04-09T15:33:19.996Z</time></trkpt><trkpt lat="44.81503529748353" lon="4.798984316585901"><ele>95.66666666666666</ele><time>2026-04-09T15:33:21.996Z</time></trkpt><trkpt lat="44.814936825507864" lon="4.7989661643627715"><ele>96.5</ele><time>2026-04-09T15:33:24.996Z</time></trkpt><trkpt lat="44.814862714185026" lon="4.798954001399474"><ele>97.33333333333333</ele><time>2026-04-09T15:33:26.996Z</time></trkpt><trkpt lat="44.81478290304274" lon="4.798926715636713"><ele>98.16666666666667</ele><time>2026-04-09T15:33:28.996Z</time></trkpt><trkpt lat="44.81470538901149" lon="4.798898329738787"><ele>99.0</ele><time>2026-04-09T15:33:30.996Z</time></trkpt><trkpt lat="44.81462874890973" lon="4.798871793244067"><ele>99.0</ele><time>2026-04-09T15:33:32.996Z</time></trkpt><trkpt lat="44.814552232724594" lon="4.798849038883771"><ele>99.0</ele><time>2026-04-09T15:33:34.996Z</time></trkpt><trkpt lat="44.81448022829555" lon="4.798826283471592"><ele>99.0</ele><time>2026-04-09T15:33:36.996Z</time></trkpt><trkpt lat="44.81441057058512" lon="4.798817084875098"><ele>99.0</ele><time>2026-04-09T15:33:38.996Z</time></trkpt><trkpt lat="44.814331597345976" lon="4.798813313283659"><ele>99.0</ele><time>2026-04-09T15:33:40.996Z</time></trkpt><trkpt lat="44.814255473762636" lon="4.798781116621486"><ele>99.0</ele><time>2026-04-09T15:33:42.996Z</time></trkpt><trkpt lat="44.814186598740534" lon="4.798753715886582"><ele>98.66666666666667</ele><time>2026-04-09T15:33:44.996Z</time></trkpt><trkpt lat="44.81411378205728" lon="4.798741597918648"><ele>98.33333333333334</ele><time>2026-04-09T15:33:46.996Z</time></trkpt><trkpt lat="44.81403114161043" lon="4.798708557954511"><ele>98.0</ele><time>2026-04-09T15:33:48.996Z</time></trkpt><trkpt lat="44.81394668065613" lon="4.798681174578254"><ele>97.66666666666667</ele><time>2026-04-09T15:33:50.996Z</time></trkpt><trkpt lat="44.813867743691794" lon="4.798658219113321"><ele>97.33333333333334</ele><time>2026-04-09T15:33:52.995Z</time></trkpt><trkpt lat="44.813781338966336" lon="4.798646243937782"><ele>97.0</ele><time>2026-04-09T15:33:54.995Z</time></trkpt><trkpt lat="44.81368133070384" lon="4.79860686770698"><ele>97.00000000000001</ele><time>2026-04-09T15:33:56.995Z</time></trkpt><trkpt lat="44.81359699517943" lon="4.798572362340102"><ele>97.0</ele><time>2026-04-09T15:33:58.995Z</time></trkpt><trkpt lat="44.8135181873901" lon="4.79855046067668"><ele>97.0</ele><time>2026-04-09T15:34:00.995Z</time></trkpt><trkpt lat="44.813448286134694" lon="4.798531612033437"><ele>97.0</ele><time>2026-04-09T15:34:02.995Z</time></trkpt><trkpt lat="44.81337723890424" lon="4.798475217261305"><ele>97.00000000000001</ele><time>2026-04-09T15:34:05.995Z</time></trkpt><trkpt lat="44.813417351512825" lon="4.798403978913561"><ele>97.0</ele><time>2026-04-09T15:34:07.995Z</time></trkpt><trkpt lat="44.81344606612575" lon="4.798319800257816"><ele>96.85714285714285</ele><time>2026-04-09T15:34:10.995Z</time></trkpt><trkpt lat="44.813485488369054" lon="4.798248943159273"><ele>96.71428571428572</ele><time>2026-04-09T15:34:13.995Z</time></trkpt><trkpt lat="44.813518427008944" lon="4.798161824533333"><ele>96.57142857142857</ele><time>2026-04-09T15:34:17.995Z</time></trkpt><trkpt lat="44.81359649822377" lon="4.798103459642415"><ele>96.42857142857142</ele><time>2026-04-09T15:34:22.995Z</time></trkpt><trkpt lat="44.81366022831792" lon="4.798080564697697"><ele>96.28571428571428</ele><time>2026-04-09T15:34:25.995Z</time></trkpt><trkpt lat="44.813725146693535" lon="4.798024934960479"><ele>96.14285714285714</ele><time>2026-04-09T15:34:28.995Z</time></trkpt><trkpt lat="44.81377916560491" lon="4.797953030098901"><ele>96.0</ele><time>2026-04-09T15:34:31.995Z</time></trkpt><trkpt lat="44.81380239326056" lon="4.7978579615903625"><ele>96.5</ele><time>2026-04-09T15:34:34.995Z</time></trkpt><trkpt lat="44.81382196292524" lon="4.797753603883899"><ele>97.0</ele><time>2026-04-09T15:34:37.995Z</time></trkpt><trkpt lat="44.813843982177" lon="4.797650845730636"><ele>97.5</ele><time>2026-04-09T15:34:40.995Z</time></trkpt><trkpt lat="44.813845650530844" lon="4.797542818518478"><ele>98.0</ele><time>2026-04-09T15:34:43.995Z</time></trkpt><trkpt lat="44.81379422316783" lon="4.79745725017275"><ele>98.5</ele><time>2026-04-09T15:34:46.995Z</time></trkpt><trkpt lat="44.81373773733501" lon="4.797391107510354"><ele>99.0</ele><time>2026-04-09T15:34:49.995Z</time></trkpt><trkpt lat="44.81368940905043" lon="4.7973222656161525"><ele>99.33333333333333</ele><time>2026-04-09T15:34:52.995Z</time></trkpt><trkpt lat="44.81363060077599" lon="4.797245703186111"><ele>99.66666666666666</ele><time>2026-04-09T15:34:55.995Z</time></trkpt><trkpt lat="44.813570428852664" lon="4.797176729799531"><ele>100.0</ele><time>2026-04-09T15:34:58.995Z</time></trkpt><trkpt lat="44.81351142603709" lon="4.797104465359017"><ele>100.33333333333333</ele><time>2026-04-09T15:35:01.995Z</time></trkpt><trkpt lat="44.81344984355777" lon="4.797044262093293"><ele>100.66666666666666</ele><time>2026-04-09T15:35:04.995Z</time></trkpt><trkpt lat="44.81338104192542" lon="4.796998752678834"><ele>101.0</ele><time>2026-04-09T15:35:07.995Z</time></trkpt><trkpt lat="44.813310361611926" lon="4.796944554296065"><ele>100.99999999999999</ele><time>2026-04-09T15:35:10.995Z</time></trkpt><trkpt lat="44.81322631178807" lon="4.796894857072874"><ele>101.0</ele><time>2026-04-09T15:35:13.995Z</time></trkpt><trkpt lat="44.81316905913402" lon="4.796831564344074"><ele>101.0</ele><time>2026-04-09T15:35:15.995Z</time></trkpt><trkpt lat="44.81310634549864" lon="4.796755947712191"><ele>101.0</ele><time>2026-04-09T15:35:17.995Z</time></trkpt><trkpt lat="44.813037131982846" lon="4.796683489127318"><ele>100.99999999999999</ele><time>2026-04-09T15:35:19.995Z</time></trkpt><trkpt lat="44.81297038531312" lon="4.7965926439400945"><ele>101.0</ele><time>2026-04-09T15:35:21.995Z</time></trkpt><trkpt lat="44.812913138921786" lon="4.7964923092845275"><ele>101.0</ele><time>2026-04-09T15:35:23.995Z</time></trkpt><trkpt lat="44.81283807631633" lon="4.796412245224961"><ele>101.0</ele><time>2026-04-09T15:35:25.995Z</time></trkpt><trkpt lat="44.81276229877294" lon="4.796322497206744"><ele>101.0</ele><time>2026-04-09T15:35:27.995Z</time></trkpt><trkpt lat="44.81267860846303" lon="4.796219996270174"><ele>101.0</ele><time>2026-04-09T15:35:29.995Z</time></trkpt><trkpt lat="44.81258136910311" lon="4.796118126846389"><ele>101.0</ele><time>2026-04-09T15:35:31.995Z</time></trkpt><trkpt lat="44.81247960543915" lon="4.796011125735773"><ele>102.14285714285714</ele><time>2026-04-09T15:35:33.995Z</time></trkpt><trkpt lat="44.812425399134476" lon="4.795963900742934"><ele>103.28571428571428</ele><time>2026-04-09T15:35:34.995Z</time></trkpt><trkpt lat="44.81237069647225" lon="4.795913838974549"><ele>104.42857142857143</ele><time>2026-04-09T15:35:35.995Z</time></trkpt><trkpt lat="44.81232492096191" lon="4.79584899659227"><ele>105.57142857142857</ele><time>2026-04-09T15:35:36.995Z</time></trkpt><trkpt lat="44.81230518762781" lon="4.7957629419317795"><ele>106.71428571428572</ele><time>2026-04-09T15:35:37.995Z</time></trkpt><trkpt lat="44.812309600114624" lon="4.795673262912348"><ele>107.85714285714286</ele><time>2026-04-09T15:35:38.995Z</time></trkpt><trkpt lat="44.812362944487035" lon="4.795537501827612"><ele>109.0</ele><time>2026-04-09T15:35:40.995Z</time></trkpt><trkpt lat="44.81241933862686" lon="4.7954219756397904"><ele>109.00000000000001</ele><time>2026-04-09T15:35:42.995Z</time></trkpt><trkpt lat="44.81245714875997" lon="4.795302931244291"><ele>109.0</ele><time>2026-04-09T15:35:44.995Z</time></trkpt><trkpt lat="44.812490031620435" lon="4.7951918547254815"><ele>109.0</ele><time>2026-04-09T15:35:46.995Z</time></trkpt><trkpt lat="44.81251240461007" lon="4.795086759810579"><ele>109.0</ele><time>2026-04-09T15:35:48.995Z</time></trkpt><trkpt lat="44.81254326800559" lon="4.79498338491652"><ele>109.00000000000001</ele><time>2026-04-09T15:35:50.995Z</time></trkpt><trkpt lat="44.81255940142714" lon="4.794886560285794"><ele>109.0</ele><time>2026-04-09T15:35:52.995Z</time></trkpt><trkpt lat="44.812576325175904" lon="4.794794839948176"><ele>109.33333333333334</ele><time>2026-04-09T15:35:54.995Z</time></trkpt><trkpt lat="44.81264528864689" lon="4.794704164944051"><ele>109.66666666666667</ele><time>2026-04-09T15:35:57.994Z</time></trkpt><trkpt lat="44.81271352825652" lon="4.794668923539157"><ele>110.0</ele><time>2026-04-09T15:35:59.993Z</time></trkpt><trkpt lat="44.81277782620371" lon="4.794629734568967"><ele>110.33333333333334</ele><time>2026-04-09T15:36:01.994Z</time></trkpt><trkpt lat="44.81283956816044" lon="4.794581732614564"><ele>110.66666666666667</ele><time>2026-04-09T15:36:03.994Z</time></trkpt><trkpt lat="44.81290751678958" lon="4.794541640986166"><ele>111.0</ele><time>2026-04-09T15:36:05.994Z</time></trkpt><trkpt lat="44.81300262522371" lon="4.794518246384411"><ele>112.0</ele><time>2026-04-09T15:36:08.994Z</time></trkpt><trkpt lat="44.81306669420227" lon="4.794502245776115"><ele>113.0</ele><time>2026-04-09T15:36:10.993Z</time></trkpt><trkpt lat="44.81313554965702" lon="4.794470051454337"><ele>114.0</ele><time>2026-04-09T15:36:12.993Z</time></trkpt><trkpt lat="44.813204612545555" lon="4.794456362775286"><ele>115.0</ele><time>2026-04-09T15:36:14.993Z</time></trkpt><trkpt lat="44.81327016810516" lon="4.794437728799289"><ele>116.0</ele><time>2026-04-09T15:36:16.993Z</time></trkpt><trkpt lat="44.81333995739447" lon="4.794425181870748"><ele>117.0</ele><time>2026-04-09T15:36:18.993Z</time></trkpt><trkpt lat="44.81340507480571" lon="4.794420144758291"><ele>118.0</ele><time>2026-04-09T15:36:20.993Z</time></trkpt><trkpt lat="44.81349617290127" lon="4.794418461125927"><ele>118.57142857142857</ele><time>2026-04-09T15:36:23.993Z</time></trkpt><trkpt lat="44.81356944937465" lon="4.794410084245668"><ele>119.14285714285714</ele><time>2026-04-09T15:36:25.993Z</time></trkpt><trkpt lat="44.81363721544864" lon="4.794418197341961"><ele>119.71428571428571</ele><time>2026-04-09T15:36:27.993Z</time></trkpt><trkpt lat="44.813701178159725" lon="4.794438633457227"><ele>120.28571428571428</ele><time>2026-04-09T15:36:29.993Z</time></trkpt><trkpt lat="44.81376603304068" lon="4.794448257273602"><ele>120.85714285714286</ele><time>2026-04-09T15:36:31.993Z</time></trkpt><trkpt lat="44.813836417604485" lon="4.794464232031005"><ele>121.42857142857142</ele><time>2026-04-09T15:36:33.993Z</time></trkpt><trkpt lat="44.813924487086226" lon="4.794466999614011"><ele>121.99999999999999</ele><time>2026-04-09T15:36:36.993Z</time></trkpt><trkpt lat="44.81401272153414" lon="4.79444924578845"><ele>121.99999999999999</ele><time>2026-04-09T15:36:39.993Z</time></trkpt><trkpt lat="44.8140843006058" lon="4.794447907932443"><ele>122.0</ele><time>2026-04-09T15:36:41.993Z</time></trkpt><trkpt lat="44.81414635347711" lon="4.794419414787849"><ele>122.0</ele><time>2026-04-09T15:36:43.993Z</time></trkpt><trkpt lat="44.81422196299927" lon="4.794384039080456"><ele>122.0</ele><time>2026-04-09T15:36:45.993Z</time></trkpt><trkpt lat="44.814294499202376" lon="4.794338418419491"><ele>121.99999999999999</ele><time>2026-04-09T15:36:47.993Z</time></trkpt><trkpt lat="44.81436210318372" lon="4.794285062167601"><ele>122.0</ele><time>2026-04-09T15:36:49.993Z</time></trkpt><trkpt lat="44.814436425176346" lon="4.7942163517087995"><ele>121.85714285714283</ele><time>2026-04-09T15:36:51.993Z</time></trkpt><trkpt lat="44.81450936122001" lon="4.794157924571376"><ele>121.71428571428571</ele><time>2026-04-09T15:36:53.993Z</time></trkpt><trkpt lat="44.81456714262369" lon="4.794084273767393"><ele>121.57142857142856</ele><time>2026-04-09T15:36:55.993Z</time></trkpt><trkpt lat="44.81461826058594" lon="4.794015437698661"><ele>121.42857142857142</ele><time>2026-04-09T15:36:57.993Z</time></trkpt><trkpt lat="44.81466504087019" lon="4.7939437139189645"><ele>121.28571428571428</ele><time>2026-04-09T15:36:59.993Z</time></trkpt><trkpt lat="44.814707137336754" lon="4.793872450794896"><ele>121.14285714285714</ele><time>2026-04-09T15:37:01.993Z</time></trkpt><trkpt lat="44.81475047889652" lon="4.793799842366846"><ele>121.0</ele><time>2026-04-09T15:37:03.993Z</time></trkpt><trkpt lat="44.81479081758386" lon="4.793720479796029"><ele>121.0</ele><time>2026-04-09T15:37:05.993Z</time></trkpt><trkpt lat="44.81482614041387" lon="4.793645022053034"><ele>120.99999999999999</ele><time>2026-04-09T15:37:07.993Z</time></trkpt><trkpt lat="44.81487384268707" lon="4.793539639503562"><ele>121.0</ele><time>2026-04-09T15:37:10.993Z</time></trkpt><trkpt lat="44.814868915237305" lon="4.793440945398519"><ele>121.0</ele><time>2026-04-09T15:37:12.993Z</time></trkpt><trkpt lat="44.814866503499516" lon="4.79334424304961"><ele>120.99999999999999</ele><time>2026-04-09T15:37:14.993Z</time></trkpt><trkpt lat="44.81485561123002" lon="4.793242465536847"><ele>121.0</ele><time>2026-04-09T15:37:16.993Z</time></trkpt><trkpt lat="44.81484875700313" lon="4.7931500984070246"><ele>121.0</ele><time>2026-04-09T15:37:18.993Z</time></trkpt><trkpt lat="44.814835951445474" lon="4.793053571075361"><ele>120.28571428571428</ele><time>2026-04-09T15:37:20.993Z</time></trkpt><trkpt lat="44.81482310191468" lon="4.792955410235774"><ele>119.57142857142856</ele><time>2026-04-09T15:37:22.993Z</time></trkpt><trkpt lat="44.81481972136125" lon="4.792857386233713"><ele>118.85714285714286</ele><time>2026-04-09T15:37:24.993Z</time></trkpt><trkpt lat="44.814813524884286" lon="4.7927550703115065"><ele>118.14285714285714</ele><time>2026-04-09T15:37:26.993Z</time></trkpt><trkpt lat="44.81479320536984" lon="4.792630731957967"><ele>117.42857142857143</ele><time>2026-04-09T15:37:29.993Z</time></trkpt><trkpt lat="44.81479361149277" lon="4.792536293380477"><ele>116.71428571428572</ele><time>2026-04-09T15:37:31.993Z</time></trkpt><trkpt lat="44.81479776923324" lon="4.7924446017044335"><ele>116.00000000000001</ele><time>2026-04-09T15:37:33.993Z</time></trkpt><trkpt lat="44.81479724948183" lon="4.792353824608677"><ele>115.66666666666666</ele><time>2026-04-09T15:37:35.993Z</time></trkpt><trkpt lat="44.81480914477946" lon="4.7922353104798265"><ele>115.33333333333333</ele><time>2026-04-09T15:37:38.993Z</time></trkpt><trkpt lat="44.81482413088742" lon="4.792114864908877"><ele>115.0</ele><time>2026-04-09T15:37:41.993Z</time></trkpt><trkpt lat="44.81482814014306" lon="4.792023583135468"><ele>114.66666666666666</ele><time>2026-04-09T15:37:43.993Z</time></trkpt><trkpt lat="44.8148383821305" lon="4.791916239906709"><ele>114.33333333333333</ele><time>2026-04-09T15:37:45.993Z</time></trkpt><trkpt lat="44.814850679725325" lon="4.791798109955707"><ele>114.0</ele><time>2026-04-09T15:37:47.993Z</time></trkpt><trkpt lat="44.81488105497802" lon="4.791674875310089"><ele>114.0</ele><time>2026-04-09T15:37:49.993Z</time></trkpt><trkpt lat="44.81491414925663" lon="4.791535237417033"><ele>114.0</ele><time>2026-04-09T15:37:51.993Z</time></trkpt><trkpt lat="44.81496479831401" lon="4.791386998363743"><ele>114.0</ele><time>2026-04-09T15:37:53.993Z</time></trkpt><trkpt lat="44.815024466559414" lon="4.791247513538496"><ele>114.0</ele><time>2026-04-09T15:37:55.993Z</time></trkpt><trkpt lat="44.81508745654511" lon="4.79111956705848"><ele>114.0</ele><time>2026-04-09T15:37:57.993Z</time></trkpt><trkpt lat="44.81514334824921" lon="4.790999864928132"><ele>113.0</ele><time>2026-04-09T15:37:59.993Z</time></trkpt><trkpt lat="44.81519446381675" lon="4.7908983791060145"><ele>112.0</ele><time>2026-04-09T15:38:01.993Z</time></trkpt><trkpt lat="44.81525496829111" lon="4.790793613765216"><ele>111.0</ele><time>2026-04-09T15:38:03.993Z</time></trkpt><trkpt lat="44.815316419708836" lon="4.790691211299372"><ele>110.0</ele><time>2026-04-09T15:38:05.992Z</time></trkpt><trkpt lat="44.81538230808403" lon="4.790588666075595"><ele>109.0</ele><time>2026-04-09T15:38:07.992Z</time></trkpt><trkpt lat="44.81544278729656" lon="4.7904801302929325"><ele>109.0</ele><time>2026-04-09T15:38:09.992Z</time></trkpt><trkpt lat="44.81549774998654" lon="4.790363214466104"><ele>109.0</ele><time>2026-04-09T15:38:11.992Z</time></trkpt><trkpt lat="44.81556519630549" lon="4.79024902460098"><ele>109.0</ele><time>2026-04-09T15:38:13.992Z</time></trkpt><trkpt lat="44.81562237049976" lon="4.790124888639032"><ele>109.0</ele><time>2026-04-09T15:38:15.992Z</time></trkpt><trkpt lat="44.8156731944442" lon="4.790007987036566"><ele>109.0</ele><time>2026-04-09T15:38:17.992Z</time></trkpt><trkpt lat="44.815715702653" lon="4.789906864543902"><ele>109.6</ele><time>2026-04-09T15:38:19.992Z</time></trkpt><trkpt lat="44.81574956596145" lon="4.789807177018236"><ele>110.2</ele><time>2026-04-09T15:38:22.992Z</time></trkpt><trkpt lat="44.815797331630975" lon="4.789702888056968"><ele>110.79999999999998</ele><time>2026-04-09T15:38:24.992Z</time></trkpt><trkpt lat="44.81584979365596" lon="4.789577400426144"><ele>111.39999999999999</ele><time>2026-04-09T15:38:26.992Z</time></trkpt><trkpt lat="44.81589962641451" lon="4.78944131673048"><ele>112.0</ele><time>2026-04-09T15:38:28.992Z</time></trkpt><trkpt lat="44.81595688878632" lon="4.789297049110539"><ele>110.5</ele><time>2026-04-09T15:38:30.992Z</time></trkpt><trkpt lat="44.81602036955445" lon="4.789153880799057"><ele>109.0</ele><time>2026-04-09T15:38:32.992Z</time></trkpt><trkpt lat="44.816079153602146" lon="4.789008855472206"><ele>107.5</ele><time>2026-04-09T15:38:34.992Z</time></trkpt><trkpt lat="44.81613467242466" lon="4.788868103862656"><ele>106.0</ele><time>2026-04-09T15:38:36.992Z</time></trkpt><trkpt lat="44.816185625278266" lon="4.788740398201753"><ele>106.0</ele><time>2026-04-09T15:38:38.992Z</time></trkpt><trkpt lat="44.81624100713076" lon="4.788605225166372"><ele>106.0</ele><time>2026-04-09T15:38:40.992Z</time></trkpt><trkpt lat="44.81628738003855" lon="4.7884859944688785"><ele>106.0</ele><time>2026-04-09T15:38:42.992Z</time></trkpt><trkpt lat="44.816335509770774" lon="4.788371827294216"><ele>106.0</ele><time>2026-04-09T15:38:44.992Z</time></trkpt><trkpt lat="44.8163847743802" lon="4.788248802966766"><ele>106.0</ele><time>2026-04-09T15:38:46.992Z</time></trkpt><trkpt lat="44.81642768259568" lon="4.788124669339832"><ele>106.6</ele><time>2026-04-09T15:38:48.992Z</time></trkpt><trkpt lat="44.81648911916436" lon="4.788015593680199"><ele>107.19999999999999</ele><time>2026-04-09T15:38:50.992Z</time></trkpt><trkpt lat="44.81653568687477" lon="4.787889849001668"><ele>107.80000000000001</ele><time>2026-04-09T15:38:52.992Z</time></trkpt><trkpt lat="44.81658837662378" lon="4.787773532137104"><ele>108.4</ele><time>2026-04-09T15:38:54.992Z</time></trkpt><trkpt lat="44.816652510216436" lon="4.787662301015992"><ele>109.0</ele><time>2026-04-09T15:38:56.992Z</time></trkpt><trkpt lat="44.816704313141635" lon="4.787549150340543"><ele>109.00000000000001</ele><time>2026-04-09T15:38:58.992Z</time></trkpt><trkpt lat="44.816760701487155" lon="4.787450305338827"><ele>109.0</ele><time>2026-04-09T15:39:00.992Z</time></trkpt><trkpt lat="44.81682125960099" lon="4.787365008584759"><ele>109.0</ele><time>2026-04-09T15:39:02.992Z</time></trkpt><trkpt lat="44.81687758979298" lon="4.787269180920259"><ele>109.0</ele><time>2026-04-09T15:39:04.992Z</time></trkpt><trkpt lat="44.816938368827444" lon="4.787180360561966"><ele>109.00000000000001</ele><time>2026-04-09T15:39:06.992Z</time></trkpt><trkpt lat="44.817005498807355" lon="4.787110762409657"><ele>109.0</ele><time>2026-04-09T15:39:08.992Z</time></trkpt><trkpt lat="44.81705858671256" lon="4.787057550214939"><ele>109.00000000000001</ele><time>2026-04-09T15:39:10.992Z</time></trkpt><trkpt lat="44.817116456673936" lon="4.786986987143055"><ele>109.0</ele><time>2026-04-09T15:39:13.992Z</time></trkpt><trkpt lat="44.81719899145064" lon="4.786938520825673"><ele>109.0</ele><time>2026-04-09T15:39:16.992Z</time></trkpt><trkpt lat="44.81724919470101" lon="4.786880477225423"><ele>109.0</ele><time>2026-04-09T15:39:18.992Z</time></trkpt><trkpt lat="44.81732737001936" lon="4.78681206916422"><ele>109.00000000000001</ele><time>2026-04-09T15:39:20.992Z</time></trkpt><trkpt lat="44.817402489836645" lon="4.786747778326284"><ele>109.0</ele><time>2026-04-09T15:39:22.992Z</time></trkpt><trkpt lat="44.817485287957254" lon="4.786703767472493"><ele>108.66666666666667</ele><time>2026-04-09T15:39:24.992Z</time></trkpt><trkpt lat="44.81756401795252" lon="4.786644052065259"><ele>108.33333333333334</ele><time>2026-04-09T15:39:26.992Z</time></trkpt><trkpt lat="44.8176248397628" lon="4.786591550459021"><ele>108.0</ele><time>2026-04-09T15:39:28.992Z</time></trkpt><trkpt lat="44.817685335715126" lon="4.786520677487356"><ele>107.66666666666666</ele><time>2026-04-09T15:39:30.992Z</time></trkpt><trkpt lat="44.81776274417756" lon="4.786422075798039"><ele>107.33333333333333</ele><time>2026-04-09T15:39:33.992Z</time></trkpt><trkpt lat="44.81783842575901" lon="4.7863598678858255"><ele>107.0</ele><time>2026-04-09T15:39:35.992Z</time></trkpt><trkpt lat="44.817895304800786" lon="4.786286470462665"><ele>106.99999999999999</ele><time>2026-04-09T15:39:37.992Z</time></trkpt><trkpt lat="44.81796310396079" lon="4.786223926350704"><ele>107.0</ele><time>2026-04-09T15:39:39.992Z</time></trkpt><trkpt lat="44.81804097491282" lon="4.7861544357965204"><ele>107.0</ele><time>2026-04-09T15:39:41.992Z</time></trkpt><trkpt lat="44.81809362655408" lon="4.78608052045398"><ele>107.0</ele><time>2026-04-09T15:39:43.992Z</time></trkpt><trkpt lat="44.81816511294958" lon="4.785996387526845"><ele>106.99999999999999</ele><time>2026-04-09T15:39:45.992Z</time></trkpt><trkpt lat="44.81821425505234" lon="4.785912193215698"><ele>107.0</ele><time>2026-04-09T15:39:47.992Z</time></trkpt><trkpt lat="44.81828375395962" lon="4.785823536917122"><ele>106.99999999999999</ele><time>2026-04-09T15:39:49.992Z</time></trkpt><trkpt lat="44.81836120479353" lon="4.785738849099864"><ele>107.0</ele><time>2026-04-09T15:39:51.992Z</time></trkpt><trkpt lat="44.81842623512557" lon="4.785659227451272"><ele>107.0</ele><time>2026-04-09T15:39:53.992Z</time></trkpt><trkpt lat="44.81849927692375" lon="4.785577173182569"><ele>107.0</ele><time>2026-04-09T15:39:55.992Z</time></trkpt><trkpt lat="44.81855851294711" lon="4.785494103253688"><ele>106.99999999999999</ele><time>2026-04-09T15:39:57.992Z</time></trkpt><trkpt lat="44.81862888753944" lon="4.785425190508071"><ele>107.0</ele><time>2026-04-09T15:39:59.992Z</time></trkpt><trkpt lat="44.81868770192958" lon="4.785354685757615"><ele>106.99999999999999</ele><time>2026-04-09T15:40:01.992Z</time></trkpt><trkpt lat="44.81875076067123" lon="4.785266904210171"><ele>107.0</ele><time>2026-04-09T15:40:03.992Z</time></trkpt><trkpt lat="44.81881800976167" lon="4.785204049790799"><ele>107.0</ele><time>2026-04-09T15:40:05.992Z</time></trkpt><trkpt lat="44.818875200619516" lon="4.785147635979397"><ele>107.0</ele><time>2026-04-09T15:40:07.992Z</time></trkpt><trkpt lat="44.81892539159246" lon="4.785082874256221"><ele>106.99999999999999</ele><time>2026-04-09T15:40:09.991Z</time></trkpt><trkpt lat="44.81898538581721" lon="4.785020881115372"><ele>107.0</ele><time>2026-04-09T15:40:11.991Z</time></trkpt><trkpt lat="44.81905546601598" lon="4.7849453051220925"><ele>106.99999999999999</ele><time>2026-04-09T15:40:13.991Z</time></trkpt><trkpt lat="44.81911524193618" lon="4.7848830416890005"><ele>107.0</ele><time>2026-04-09T15:40:15.991Z</time></trkpt><trkpt lat="44.81916926844204" lon="4.7847964589157295"><ele>107.0</ele><time>2026-04-09T15:40:17.991Z</time></trkpt><trkpt lat="44.81923993518423" lon="4.784731258943091"><ele>107.0</ele><time>2026-04-09T15:40:19.992Z</time></trkpt><trkpt lat="44.819295760439736" lon="4.7846525539814575"><ele>106.99999999999999</ele><time>2026-04-09T15:40:21.991Z</time></trkpt><trkpt lat="44.81933817661058" lon="4.784585945492404"><ele>107.0</ele><time>2026-04-09T15:40:23.991Z</time></trkpt><trkpt lat="44.81939891135091" lon="4.7845242009819335"><ele>106.99999999999999</ele><time>2026-04-09T15:40:25.991Z</time></trkpt><trkpt lat="44.81945846841412" lon="4.784451541591837"><ele>107.0</ele><time>2026-04-09T15:40:27.991Z</time></trkpt><trkpt lat="44.819517503681276" lon="4.7843778919846915"><ele>107.0</ele><time>2026-04-09T15:40:29.991Z</time></trkpt><trkpt lat="44.8195922727878" lon="4.784310004578937"><ele>107.0</ele><time>2026-04-09T15:40:31.991Z</time></trkpt><trkpt lat="44.819653963648946" lon="4.784234526083988"><ele>106.99999999999999</ele><time>2026-04-09T15:40:33.991Z</time></trkpt><trkpt lat="44.81971725858724" lon="4.784157854030501"><ele>107.0</ele><time>2026-04-09T15:40:35.991Z</time></trkpt><trkpt lat="44.81977978141278" lon="4.784087834777504"><ele>106.85714285714286</ele><time>2026-04-09T15:40:37.991Z</time></trkpt><trkpt lat="44.81983384665755" lon="4.784018180218534"><ele>106.71428571428572</ele><time>2026-04-09T15:40:39.991Z</time></trkpt><trkpt lat="44.81989954402617" lon="4.783955046620715"><ele>106.57142857142858</ele><time>2026-04-09T15:40:41.991Z</time></trkpt><trkpt lat="44.81995289964088" lon="4.78388565911976"><ele>106.42857142857143</ele><time>2026-04-09T15:40:43.991Z</time></trkpt><trkpt lat="44.82001165676919" lon="4.783815189376475"><ele>106.28571428571428</ele><time>2026-04-09T15:40:45.991Z</time></trkpt><trkpt lat="44.82006517309963" lon="4.783753918844546"><ele>106.14285714285715</ele><time>2026-04-09T15:40:47.991Z</time></trkpt><trkpt lat="44.82010832874414" lon="4.7836846853779305"><ele>106.0</ele><time>2026-04-09T15:40:49.991Z</time></trkpt><trkpt lat="44.820165840547304" lon="4.783615658598954"><ele>106.00000000000001</ele><time>2026-04-09T15:40:51.991Z</time></trkpt><trkpt lat="44.8202250490705" lon="4.78355844504535"><ele>106.0</ele><time>2026-04-09T15:40:53.991Z</time></trkpt><trkpt lat="44.82028508182029" lon="4.783508801732793"><ele>106.0</ele><time>2026-04-09T15:40:55.991Z</time></trkpt><trkpt lat="44.82033826541449" lon="4.78344098870313"><ele>106.0</ele><time>2026-04-09T15:40:57.991Z</time></trkpt><trkpt lat="44.82039585275055" lon="4.783378342783339"><ele>106.00000000000001</ele><time>2026-04-09T15:40:59.991Z</time></trkpt><trkpt lat="44.82048980325686" lon="4.7833048705871635"><ele>106.0</ele><time>2026-04-09T15:41:02.991Z</time></trkpt><trkpt lat="44.820551085626846" lon="4.7832676378277945"><ele>107.50000000000001</ele><time>2026-04-09T15:41:04.991Z</time></trkpt><trkpt lat="44.820611680875174" lon="4.783230134392025"><ele>109.0</ele><time>2026-04-09T15:41:06.991Z</time></trkpt><trkpt lat="44.82068898624248" lon="4.783196896291087"><ele>110.5</ele><time>2026-04-09T15:41:08.991Z</time></trkpt><trkpt lat="44.82075642742756" lon="4.783165468117707"><ele>112.0</ele><time>2026-04-09T15:41:10.991Z</time></trkpt><trkpt lat="44.82082869839854" lon="4.783123993747605"><ele>113.50000000000001</ele><time>2026-04-09T15:41:12.991Z</time></trkpt><trkpt lat="44.82090123705556" lon="4.783094485604819"><ele>115.0</ele><time>2026-04-09T15:41:14.991Z</time></trkpt><trkpt lat="44.82097269411185" lon="4.78304691423289"><ele>114.83333333333334</ele><time>2026-04-09T15:41:16.991Z</time></trkpt><trkpt lat="44.82103969818721" lon="4.7829911659818105"><ele>114.66666666666667</ele><time>2026-04-09T15:41:18.991Z</time></trkpt><trkpt lat="44.821100877426495" lon="4.7829434450358495"><ele>114.5</ele><time>2026-04-09T15:41:20.991Z</time></trkpt><trkpt lat="44.82116529000321" lon="4.782859048600673"><ele>114.33333333333334</ele><time>2026-04-09T15:41:22.991Z</time></trkpt><trkpt lat="44.821236313280245" lon="4.782785739990724"><ele>114.16666666666667</ele><time>2026-04-09T15:41:24.991Z</time></trkpt><trkpt lat="44.82130494590343" lon="4.782678682883792"><ele>114.0</ele><time>2026-04-09T15:41:26.991Z</time></trkpt><trkpt lat="44.82137418340541" lon="4.7825818164239795"><ele>114.0</ele><time>2026-04-09T15:41:28.991Z</time></trkpt><trkpt lat="44.8214414197979" lon="4.782493720609332"><ele>114.0</ele><time>2026-04-09T15:41:30.991Z</time></trkpt><trkpt lat="44.821501287191815" lon="4.782414237486836"><ele>114.0</ele><time>2026-04-09T15:41:32.991Z</time></trkpt><trkpt lat="44.82156074900678" lon="4.782326765700271"><ele>114.0</ele><time>2026-04-09T15:41:34.991Z</time></trkpt><trkpt lat="44.82161840179854" lon="4.782237809119286"><ele>114.0</ele><time>2026-04-09T15:41:36.991Z</time></trkpt><trkpt lat="44.82167039363565" lon="4.782154669799143"><ele>114.0</ele><time>2026-04-09T15:41:38.991Z</time></trkpt><trkpt lat="44.82171269301037" lon="4.782062870995773"><ele>114.0</ele><time>2026-04-09T15:41:40.991Z</time></trkpt><trkpt lat="44.82175386326502" lon="4.7819699504983975"><ele>114.0</ele><time>2026-04-09T15:41:42.991Z</time></trkpt><trkpt lat="44.82179182333129" lon="4.781876408302403"><ele>114.0</ele><time>2026-04-09T15:41:44.991Z</time></trkpt><trkpt lat="44.8218270965343" lon="4.781778233694739"><ele>114.0</ele><time>2026-04-09T15:41:46.991Z</time></trkpt><trkpt lat="44.82186218559707" lon="4.78168188151552"><ele>114.0</ele><time>2026-04-09T15:41:48.991Z</time></trkpt><trkpt lat="44.82189273187224" lon="4.781590530954789"><ele>114.0</ele><time>2026-04-09T15:41:50.991Z</time></trkpt><trkpt lat="44.82192255119081" lon="4.781493980002026"><ele>112.83333333333333</ele><time>2026-04-09T15:41:52.991Z</time></trkpt><trkpt lat="44.82194325374769" lon="4.7813913178852205"><ele>111.66666666666666</ele><time>2026-04-09T15:41:54.991Z</time></trkpt><trkpt lat="44.821965853317394" lon="4.781284970286657"><ele>110.5</ele><time>2026-04-09T15:41:56.991Z</time></trkpt><trkpt lat="44.82199561356091" lon="4.781191340804964"><ele>109.33333333333333</ele><time>2026-04-09T15:41:58.991Z</time></trkpt><trkpt lat="44.82201906686107" lon="4.781103105992616"><ele>108.16666666666666</ele><time>2026-04-09T15:42:00.991Z</time></trkpt><trkpt lat="44.82204013998329" lon="4.78099106744353"><ele>107.0</ele><time>2026-04-09T15:42:02.991Z</time></trkpt><trkpt lat="44.822058187531866" lon="4.780886983444745"><ele>106.99999999999999</ele><time>2026-04-09T15:42:04.991Z</time></trkpt><trkpt lat="44.822077513669775" lon="4.780789658254511"><ele>107.0</ele><time>2026-04-09T15:42:06.991Z</time></trkpt><trkpt lat="44.8221010068528" lon="4.78068806550769"><ele>107.0</ele><time>2026-04-09T15:42:08.991Z</time></trkpt><trkpt lat="44.82212591375771" lon="4.780586506229"><ele>107.0</ele><time>2026-04-09T15:42:10.991Z</time></trkpt><trkpt lat="44.822151128888" lon="4.780482286069741"><ele>106.99999999999999</ele><time>2026-04-09T15:42:12.991Z</time></trkpt><trkpt lat="44.82216439345815" lon="4.780379791706184"><ele>107.0</ele><time>2026-04-09T15:42:14.991Z</time></trkpt><trkpt lat="44.82217594024018" lon="4.7802669212281925"><ele>107.49999999999999</ele><time>2026-04-09T15:42:16.99Z</time></trkpt><trkpt lat="44.822195681845976" lon="4.780159416264861"><ele>108.0</ele><time>2026-04-09T15:42:18.99Z</time></trkpt><trkpt lat="44.82219562234193" lon="4.780046286739219"><ele>108.5</ele><time>2026-04-09T15:42:20.99Z</time></trkpt><trkpt lat="44.822203151722455" lon="4.779933677889606"><ele>109.0</ele><time>2026-04-09T15:42:22.99Z</time></trkpt><trkpt lat="44.82219227635721" lon="4.7798277954562085"><ele>109.49999999999999</ele><time>2026-04-09T15:42:24.99Z</time></trkpt><trkpt lat="44.82219460633875" lon="4.7797100531536225"><ele>110.0</ele><time>2026-04-09T15:42:26.991Z</time></trkpt><trkpt lat="44.82217398816984" lon="4.779602044026855"><ele>109.99999999999999</ele><time>2026-04-09T15:42:28.991Z</time></trkpt><trkpt lat="44.82215713272867" lon="4.779490866923246"><ele>110.0</ele><time>2026-04-09T15:42:30.991Z</time></trkpt><trkpt lat="44.82214792726996" lon="4.779373286206233"><ele>110.0</ele><time>2026-04-09T15:42:32.99Z</time></trkpt><trkpt lat="44.82213099017638" lon="4.779262210447266"><ele>110.0</ele><time>2026-04-09T15:42:34.99Z</time></trkpt><trkpt lat="44.82212309928035" lon="4.779145309230581"><ele>109.99999999999999</ele><time>2026-04-09T15:42:36.99Z</time></trkpt><trkpt lat="44.82211670487854" lon="4.779044067656242"><ele>110.0</ele><time>2026-04-09T15:42:38.99Z</time></trkpt><trkpt lat="44.82211289054783" lon="4.778929632325593"><ele>109.99999999999999</ele><time>2026-04-09T15:42:40.99Z</time></trkpt><trkpt lat="44.82210866921371" lon="4.778831217529009"><ele>110.0</ele><time>2026-04-09T15:42:42.99Z</time></trkpt><trkpt lat="44.82209958649924" lon="4.778723218285581"><ele>110.0</ele><time>2026-04-09T15:42:44.99Z</time></trkpt><trkpt lat="44.8220931036175" lon="4.778612471192263"><ele>110.0</ele><time>2026-04-09T15:42:46.99Z</time></trkpt><trkpt lat="44.82208852172428" lon="4.7785003378100885"><ele>109.99999999999999</ele><time>2026-04-09T15:42:48.99Z</time></trkpt><trkpt lat="44.822078559725014" lon="4.778391348651185"><ele>110.0</ele><time>2026-04-09T15:42:50.99Z</time></trkpt><trkpt lat="44.82208282569157" lon="4.778269073581514"><ele>109.99999999999999</ele><time>2026-04-09T15:42:52.99Z</time></trkpt><trkpt lat="44.82207068752662" lon="4.778161087176257"><ele>110.0</ele><time>2026-04-09T15:42:54.99Z</time></trkpt><trkpt lat="44.82206842709505" lon="4.778048856037266"><ele>110.0</ele><time>2026-04-09T15:42:56.99Z</time></trkpt><trkpt lat="44.82204581968447" lon="4.7779390309507805"><ele>110.0</ele><time>2026-04-09T15:42:58.99Z</time></trkpt><trkpt lat="44.82202160791352" lon="4.777834523481034"><ele>109.99999999999999</ele><time>2026-04-09T15:43:00.99Z</time></trkpt><trkpt lat="44.8219997281819" lon="4.7777273963779034"><ele>110.0</ele><time>2026-04-09T15:43:02.99Z</time></trkpt><trkpt lat="44.82196729461994" lon="4.77759521306308"><ele>109.83333333333333</ele><time>2026-04-09T15:43:04.99Z</time></trkpt><trkpt lat="44.82194499423717" lon="4.777487007510623"><ele>109.66666666666666</ele><time>2026-04-09T15:43:06.99Z</time></trkpt><trkpt lat="44.82190809818913" lon="4.777371966207125"><ele>109.5</ele><time>2026-04-09T15:43:08.99Z</time></trkpt><trkpt lat="44.82187232836524" lon="4.777261538606388"><ele>109.33333333333334</ele><time>2026-04-09T15:43:10.99Z</time></trkpt><trkpt lat="44.82184546291611" lon="4.777142972760891"><ele>109.16666666666667</ele><time>2026-04-09T15:43:12.99Z</time></trkpt><trkpt lat="44.82182483458568" lon="4.777026635210039"><ele>109.0</ele><time>2026-04-09T15:43:14.99Z</time></trkpt><trkpt lat="44.82180377762066" lon="4.776906998737454"><ele>113.00000000000001</ele><time>2026-04-09T15:43:16.99Z</time></trkpt><trkpt lat="44.8217939034176" lon="4.776774358521763"><ele>117.0</ele><time>2026-04-09T15:43:18.99Z</time></trkpt><trkpt lat="44.821775371490055" lon="4.776646937039372"><ele>121.0</ele><time>2026-04-09T15:43:20.99Z</time></trkpt><trkpt lat="44.821762674900555" lon="4.776538460708202"><ele>125.0</ele><time>2026-04-09T15:43:22.99Z</time></trkpt><trkpt lat="44.821759485020344" lon="4.776407343404979"><ele>129.0</ele><time>2026-04-09T15:43:24.99Z</time></trkpt><trkpt lat="44.8217534535901" lon="4.776289938828052"><ele>133.0</ele><time>2026-04-09T15:43:26.99Z</time></trkpt><trkpt lat="44.82175385375207" lon="4.776166397870837"><ele>133.0</ele><time>2026-04-09T15:43:28.99Z</time></trkpt><trkpt lat="44.82173509709792" lon="4.776039267519808"><ele>133.0</ele><time>2026-04-09T15:43:30.99Z</time></trkpt><trkpt lat="44.821715046107606" lon="4.775913055442612"><ele>133.0</ele><time>2026-04-09T15:43:32.99Z</time></trkpt><trkpt lat="44.82168866097928" lon="4.775793611391932"><ele>133.0</ele><time>2026-04-09T15:43:34.99Z</time></trkpt><trkpt lat="44.821657422447316" lon="4.775690692620696"><ele>133.0</ele><time>2026-04-09T15:43:36.99Z</time></trkpt><trkpt lat="44.82161151511218" lon="4.774967676108588"><ele>132.33333333333334</ele><time>2026-04-09T15:43:46.545Z</time></trkpt><trkpt lat="44.82155721829993" lon="4.774896939656488"><ele>131.66666666666669</ele><time>2026-04-09T15:43:48.545Z</time></trkpt><trkpt lat="44.82155485969206" lon="4.774796880788467"><ele>131.0</ele><time>2026-04-09T15:43:50.545Z</time></trkpt><trkpt lat="44.82158291743428" lon="4.774649734661746"><ele>130.33333333333334</ele><time>2026-04-09T15:43:53.545Z</time></trkpt><trkpt lat="44.82155883573667" lon="4.774552416141074"><ele>129.66666666666666</ele><time>2026-04-09T15:43:55.545Z</time></trkpt><trkpt lat="44.82153356426796" lon="4.774448294072645"><ele>129.0</ele><time>2026-04-09T15:43:57.445Z</time></trkpt><trkpt lat="44.82151682897104" lon="4.774343537845297"><ele>128.33333333333334</ele><time>2026-04-09T15:43:59.346Z</time></trkpt><trkpt lat="44.821523703521876" lon="4.774223925805146"><ele>127.66666666666666</ele><time>2026-04-09T15:44:01.247Z</time></trkpt><trkpt lat="44.82151339779787" lon="4.774103760060021"><ele>127.0</ele><time>2026-04-09T15:44:03.148Z</time></trkpt><trkpt lat="44.821512106950884" lon="4.773979628651402"><ele>126.33333333333333</ele><time>2026-04-09T15:44:05.049Z</time></trkpt><trkpt lat="44.821513412566986" lon="4.773851984162697"><ele>125.66666666666666</ele><time>2026-04-09T15:44:06.995Z</time></trkpt><trkpt lat="44.82151951081321" lon="4.773723360464862"><ele>125.0</ele><time>2026-04-09T15:44:08.996Z</time></trkpt><trkpt lat="44.82153014016057" lon="4.7735943465576325"><ele>125.0</ele><time>2026-04-09T15:44:10.996Z</time></trkpt><trkpt lat="44.82154539867543" lon="4.773437025121211"><ele>125.0</ele><time>2026-04-09T15:44:12.997Z</time></trkpt><trkpt lat="44.82154636728536" lon="4.773296652615797"><ele>125.0</ele><time>2026-04-09T15:44:14.997Z</time></trkpt><trkpt lat="44.82154141326431" lon="4.773158782593181"><ele>125.0</ele><time>2026-04-09T15:44:16.998Z</time></trkpt><trkpt lat="44.8215266006048" lon="4.77302085487273"><ele>125.0</ele><time>2026-04-09T15:44:18.998Z</time></trkpt><trkpt lat="44.8215298228054" lon="4.772884014695062"><ele>124.99999999999999</ele><time>2026-04-09T15:44:20.998Z</time></trkpt><trkpt lat="44.82152862200665" lon="4.772778348127312"><ele>125.0</ele><time>2026-04-09T15:44:22.999Z</time></trkpt><trkpt lat="44.82153099409023" lon="4.772655261766614"><ele>125.0</ele><time>2026-04-09T15:44:24.999Z</time></trkpt><trkpt lat="44.821519154215935" lon="4.7725245918435295"><ele>125.0</ele><time>2026-04-09T15:44:26.999Z</time></trkpt><trkpt lat="44.821505629595244" lon="4.772396321854363"><ele>124.99999999999999</ele><time>2026-04-09T15:44:28.999Z</time></trkpt><trkpt lat="44.82149389004816" lon="4.772301912589783"><ele>125.0</ele><time>2026-04-09T15:44:31Z</time></trkpt><trkpt lat="44.82148744190198" lon="4.772195971989328"><ele>124.66666666666666</ele><time>2026-04-09T15:44:33Z</time></trkpt><trkpt lat="44.82145878658667" lon="4.772073664066368"><ele>124.33333333333333</ele><time>2026-04-09T15:44:35Z</time></trkpt><trkpt lat="44.82143787736195" lon="4.771956970601125"><ele>124.0</ele><time>2026-04-09T15:44:37Z</time></trkpt><trkpt lat="44.82142738581874" lon="4.771846168749586"><ele>123.66666666666666</ele><time>2026-04-09T15:44:39Z</time></trkpt><trkpt lat="44.821405337852035" lon="4.771755813583103"><ele>123.33333333333333</ele><time>2026-04-09T15:44:41Z</time></trkpt><trkpt lat="44.82139744403366" lon="4.771616630018976"><ele>123.0</ele><time>2026-04-09T15:44:43Z</time></trkpt><trkpt lat="44.82137316569176" lon="4.7715073544752995"><ele>122.16666666666667</ele><time>2026-04-09T15:44:45.001Z</time></trkpt><trkpt lat="44.82135909655946" lon="4.771398929456983"><ele>121.33333333333334</ele><time>2026-04-09T15:44:47.001Z</time></trkpt><trkpt lat="44.821343837254595" lon="4.771286352930153"><ele>120.5</ele><time>2026-04-09T15:44:49.001Z</time></trkpt><trkpt lat="44.82132414144886" lon="4.771185395845581"><ele>119.66666666666667</ele><time>2026-04-09T15:44:51.001Z</time></trkpt><trkpt lat="44.821307531242795" lon="4.77108126272943"><ele>118.83333333333334</ele><time>2026-04-09T15:44:53.001Z</time></trkpt><trkpt lat="44.82127603518127" lon="4.770978724687054"><ele>118.0</ele><time>2026-04-09T15:44:55.001Z</time></trkpt><trkpt lat="44.821263158530066" lon="4.770883850720519"><ele>117.16666666666667</ele><time>2026-04-09T15:44:57.001Z</time></trkpt><trkpt lat="44.82123232910854" lon="4.770775455880718"><ele>116.33333333333334</ele><time>2026-04-09T15:44:59.001Z</time></trkpt><trkpt lat="44.82119832132398" lon="4.770675651394499"><ele>115.5</ele><time>2026-04-09T15:45:01.001Z</time></trkpt><trkpt lat="44.821170264391476" lon="4.7705643798536155"><ele>114.66666666666666</ele><time>2026-04-09T15:45:03.001Z</time></trkpt><trkpt lat="44.821148184290635" lon="4.770460073803278"><ele>113.83333333333333</ele><time>2026-04-09T15:45:05.001Z</time></trkpt><trkpt lat="44.8211310925765" lon="4.770340422899317"><ele>113.0</ele><time>2026-04-09T15:45:07.001Z</time></trkpt><trkpt lat="44.82110427136182" lon="4.770233685170071"><ele>111.66666666666666</ele><time>2026-04-09T15:45:09.001Z</time></trkpt><trkpt lat="44.821083284942915" lon="4.770124996552339"><ele>110.33333333333333</ele><time>2026-04-09T15:45:11.001Z</time></trkpt><trkpt lat="44.8210522903126" lon="4.770024751688029"><ele>109.0</ele><time>2026-04-09T15:45:13.001Z</time></trkpt><trkpt lat="44.821016752327346" lon="4.769908131912211"><ele>107.66666666666666</ele><time>2026-04-09T15:45:15.001Z</time></trkpt><trkpt lat="44.82098485859288" lon="4.769799353477466"><ele>106.33333333333333</ele><time>2026-04-09T15:45:17.001Z</time></trkpt><trkpt lat="44.820945490477484" lon="4.769698047155384"><ele>105.0</ele><time>2026-04-09T15:45:19.001Z</time></trkpt><trkpt lat="44.82091055886906" lon="4.769601597306802"><ele>109.16666666666667</ele><time>2026-04-09T15:45:21.001Z</time></trkpt><trkpt lat="44.820856378909454" lon="4.769512453761253"><ele>113.33333333333334</ele><time>2026-04-09T15:45:23.001Z</time></trkpt><trkpt lat="44.82082867677124" lon="4.769410425239717"><ele>117.5</ele><time>2026-04-09T15:45:25.001Z</time></trkpt><trkpt lat="44.820789082447604" lon="4.76930556671309"><ele>121.66666666666667</ele><time>2026-04-09T15:45:27.001Z</time></trkpt><trkpt lat="44.820755666223896" lon="4.769210355073045"><ele>125.83333333333334</ele><time>2026-04-09T15:45:29.001Z</time></trkpt><trkpt lat="44.82071019510577" lon="4.76910859366232"><ele>130.0</ele><time>2026-04-09T15:45:31.001Z</time></trkpt><trkpt lat="44.820692896005994" lon="4.769015780053685"><ele>130.0</ele><time>2026-04-09T15:45:33.001Z</time></trkpt><trkpt lat="44.820663246815165" lon="4.768900298639178"><ele>130.0</ele><time>2026-04-09T15:45:35.001Z</time></trkpt><trkpt lat="44.82063274868049" lon="4.768788468732797"><ele>130.0</ele><time>2026-04-09T15:45:37.001Z</time></trkpt><trkpt lat="44.82060275352218" lon="4.768677888758687"><ele>130.0</ele><time>2026-04-09T15:45:39.001Z</time></trkpt><trkpt lat="44.82057619783522" lon="4.768570880905312"><ele>130.0</ele><time>2026-04-09T15:45:41.001Z</time></trkpt><trkpt lat="44.82056026454756" lon="4.768464670034088"><ele>130.0</ele><time>2026-04-09T15:45:43.001Z</time></trkpt><trkpt lat="44.820541897964446" lon="4.768345587550429"><ele>128.66666666666669</ele><time>2026-04-09T15:45:45.001Z</time></trkpt><trkpt lat="44.820532965760925" lon="4.768245956886308"><ele>127.33333333333334</ele><time>2026-04-09T15:45:47.001Z</time></trkpt><trkpt lat="44.82052579061401" lon="4.768146606217643"><ele>126.0</ele><time>2026-04-09T15:45:49.001Z</time></trkpt><trkpt lat="44.820538288254546" lon="4.7680193982283665"><ele>124.66666666666666</ele><time>2026-04-09T15:45:51.001Z</time></trkpt><trkpt lat="44.820537031699864" lon="4.767897656738007"><ele>123.33333333333333</ele><time>2026-04-09T15:45:53.001Z</time></trkpt><trkpt lat="44.82052740405039" lon="4.767791867023044"><ele>122.0</ele><time>2026-04-09T15:45:55.001Z</time></trkpt><trkpt lat="44.82051838190143" lon="4.767676498146907"><ele>120.99999999999999</ele><time>2026-04-09T15:45:57.001Z</time></trkpt><trkpt lat="44.82051502706761" lon="4.767562291076327"><ele>120.0</ele><time>2026-04-09T15:45:59.001Z</time></trkpt><trkpt lat="44.82052234935168" lon="4.767447301494394"><ele>119.0</ele><time>2026-04-09T15:46:01.001Z</time></trkpt><trkpt lat="44.820500313576474" lon="4.767334614273569"><ele>118.0</ele><time>2026-04-09T15:46:03.001Z</time></trkpt><trkpt lat="44.820476988846224" lon="4.767233758576233"><ele>116.99999999999999</ele><time>2026-04-09T15:46:05.001Z</time></trkpt><trkpt lat="44.8204562310331" lon="4.7671256427410365"><ele>116.0</ele><time>2026-04-09T15:46:07.001Z</time></trkpt><trkpt lat="44.820440918654924" lon="4.767001269546967"><ele>115.99999999999999</ele><time>2026-04-09T15:46:09.001Z</time></trkpt><trkpt lat="44.82041759638645" lon="4.766874106289043"><ele>116.0</ele><time>2026-04-09T15:46:11.001Z</time></trkpt><trkpt lat="44.820395473442815" lon="4.766756926148134"><ele>116.0</ele><time>2026-04-09T15:46:13.001Z</time></trkpt><trkpt lat="44.820361496591424" lon="4.766640852759805"><ele>116.0</ele><time>2026-04-09T15:46:15.001Z</time></trkpt><trkpt lat="44.820334171908016" lon="4.766528862801161"><ele>115.99999999999999</ele><time>2026-04-09T15:46:17.001Z</time></trkpt><trkpt lat="44.820300574697015" lon="4.766413798317351"><ele>116.0</ele><time>2026-04-09T15:46:19.001Z</time></trkpt><trkpt lat="44.82027278216409" lon="4.766301011930274"><ele>115.0</ele><time>2026-04-09T15:46:21.001Z</time></trkpt><trkpt lat="44.82024689578813" lon="4.766173562238652"><ele>114.0</ele><time>2026-04-09T15:46:23.002Z</time></trkpt><trkpt lat="44.82022783747846" lon="4.766066938244756"><ele>113.0</ele><time>2026-04-09T15:46:25.002Z</time></trkpt><trkpt lat="44.82020920737712" lon="4.765939114021731"><ele>112.0</ele><time>2026-04-09T15:46:27.002Z</time></trkpt><trkpt lat="44.820192990895734" lon="4.7658070096419936"><ele>111.0</ele><time>2026-04-09T15:46:29.002Z</time></trkpt><trkpt lat="44.820172891024356" lon="4.7656835487068605"><ele>110.16666666666667</ele><time>2026-04-09T15:46:31.002Z</time></trkpt><trkpt lat="44.82015143438345" lon="4.765551578224333"><ele>109.33333333333334</ele><time>2026-04-09T15:46:33.002Z</time></trkpt><trkpt lat="44.82012974507223" lon="4.765433704228686"><ele>108.5</ele><time>2026-04-09T15:46:35.002Z</time></trkpt><trkpt lat="44.820115815816294" lon="4.765304489511074"><ele>107.66666666666667</ele><time>2026-04-09T15:46:37.002Z</time></trkpt><trkpt lat="44.82011789881311" lon="4.765175347845044"><ele>106.83333333333334</ele><time>2026-04-09T15:46:39.002Z</time></trkpt><trkpt lat="44.82010472337963" lon="4.765061722834242"><ele>106.0</ele><time>2026-04-09T15:46:41.002Z</time></trkpt><trkpt lat="44.820094241175205" lon="4.764936541779394"><ele>112.0</ele><time>2026-04-09T15:46:43.002Z</time></trkpt><trkpt lat="44.8200996665309" lon="4.764805014150372"><ele>118.0</ele><time>2026-04-09T15:46:45.002Z</time></trkpt><trkpt lat="44.820095063034216" lon="4.764676644831174"><ele>124.0</ele><time>2026-04-09T15:46:47.002Z</time></trkpt><trkpt lat="44.82009022694778" lon="4.764545269963598"><ele>130.0</ele><time>2026-04-09T15:46:49.002Z</time></trkpt><trkpt lat="44.82008648337324" lon="4.764418618540562"><ele>136.0</ele><time>2026-04-09T15:46:51.002Z</time></trkpt><trkpt lat="44.820092901044376" lon="4.764287506650665"><ele>136.0</ele><time>2026-04-09T15:46:53.002Z</time></trkpt><trkpt lat="44.82009253459554" lon="4.7641713798946155"><ele>136.0</ele><time>2026-04-09T15:46:55.002Z</time></trkpt><trkpt lat="44.82007987561465" lon="4.764060799755424"><ele>136.0</ele><time>2026-04-09T15:46:57.002Z</time></trkpt><trkpt lat="44.82006498254339" lon="4.763938998592509"><ele>136.0</ele><time>2026-04-09T15:46:59.002Z</time></trkpt><trkpt lat="44.82006138564721" lon="4.763796375379154"><ele>136.0</ele><time>2026-04-09T15:47:01.002Z</time></trkpt><trkpt lat="44.82004178431435" lon="4.763662776794487"><ele>136.0</ele><time>2026-04-09T15:47:03.002Z</time></trkpt><trkpt lat="44.82002546107791" lon="4.763537139080338"><ele>135.0</ele><time>2026-04-09T15:47:05.002Z</time></trkpt><trkpt lat="44.820004554473314" lon="4.763409119685209"><ele>134.0</ele><time>2026-04-09T15:47:07.002Z</time></trkpt><trkpt lat="44.81998354639406" lon="4.763288174585207"><ele>133.0</ele><time>2026-04-09T15:47:09.002Z</time></trkpt><trkpt lat="44.81997828647752" lon="4.763151204132539"><ele>132.0</ele><time>2026-04-09T15:47:11.002Z</time></trkpt><trkpt lat="44.819965876300394" lon="4.763006992068412"><ele>131.0</ele><time>2026-04-09T15:47:13.002Z</time></trkpt><trkpt lat="44.819939685022696" lon="4.762878619081881"><ele>131.0</ele><time>2026-04-09T15:47:15.002Z</time></trkpt><trkpt lat="44.819901195938066" lon="4.7627426032576174"><ele>131.0</ele><time>2026-04-09T15:47:17.002Z</time></trkpt><trkpt lat="44.819867974302966" lon="4.762612281662798"><ele>131.0</ele><time>2026-04-09T15:47:19.002Z</time></trkpt><trkpt lat="44.8198343895377" lon="4.762470215635197"><ele>131.0</ele><time>2026-04-09T15:47:21.002Z</time></trkpt><trkpt lat="44.819804503626074" lon="4.76235123173893"><ele>131.0</ele><time>2026-04-09T15:47:23.002Z</time></trkpt><trkpt lat="44.819775235399405" lon="4.762203008821625"><ele>129.6</ele><time>2026-04-09T15:47:25.002Z</time></trkpt><trkpt lat="44.819746314979064" lon="4.7620773675466115"><ele>128.2</ele><time>2026-04-09T15:47:27.002Z</time></trkpt><trkpt lat="44.819716926473454" lon="4.761952532377292"><ele>126.80000000000001</ele><time>2026-04-09T15:47:29.002Z</time></trkpt><trkpt lat="44.81968918115633" lon="4.761818719433656"><ele>125.4</ele><time>2026-04-09T15:47:31.002Z</time></trkpt><trkpt lat="44.81966448766595" lon="4.761699410922877"><ele>124.0</ele><time>2026-04-09T15:47:33.002Z</time></trkpt><trkpt lat="44.81962941663005" lon="4.761582761772541"><ele>122.66666666666667</ele><time>2026-04-09T15:47:35.002Z</time></trkpt><trkpt lat="44.81959254154935" lon="4.761462069164815"><ele>121.33333333333334</ele><time>2026-04-09T15:47:37.002Z</time></trkpt><trkpt lat="44.81956553757296" lon="4.761341280750948"><ele>120.0</ele><time>2026-04-09T15:47:39.002Z</time></trkpt><trkpt lat="44.81955273448561" lon="4.761216640727246"><ele>118.66666666666666</ele><time>2026-04-09T15:47:41.002Z</time></trkpt><trkpt lat="44.81954892902028" lon="4.761095023289397"><ele>117.33333333333333</ele><time>2026-04-09T15:47:43.002Z</time></trkpt><trkpt lat="44.81955601745663" lon="4.760990898267394"><ele>116.0</ele><time>2026-04-09T15:47:45.002Z</time></trkpt><trkpt lat="44.81954893461469" lon="4.760902337272064"><ele>114.8</ele><time>2026-04-09T15:47:47.002Z</time></trkpt><trkpt lat="44.81956421649451" lon="4.76077876155969"><ele>113.6</ele><time>2026-04-09T15:47:49.002Z</time></trkpt><trkpt lat="44.8195674951801" lon="4.760633609741531"><ele>112.4</ele><time>2026-04-09T15:47:51.002Z</time></trkpt><trkpt lat="44.8195520547274" lon="4.760499095907022"><ele>111.2</ele><time>2026-04-09T15:47:53.002Z</time></trkpt><trkpt lat="44.819554291907544" lon="4.760360435917193"><ele>110.0</ele><time>2026-04-09T15:47:55.002Z</time></trkpt><trkpt lat="44.819562252947094" lon="4.7602165306270585"><ele>110.0</ele><time>2026-04-09T15:47:57.002Z</time></trkpt><trkpt lat="44.819565278499624" lon="4.7600854418113565"><ele>110.0</ele><time>2026-04-09T15:47:59.002Z</time></trkpt><trkpt lat="44.819568057612095" lon="4.759956910365688"><ele>110.0</ele><time>2026-04-09T15:48:01.002Z</time></trkpt><trkpt lat="44.8195710421219" lon="4.759832157712149"><ele>110.0</ele><time>2026-04-09T15:48:03.002Z</time></trkpt><trkpt lat="44.81956472262857" lon="4.7597060301125165"><ele>110.0</ele><time>2026-04-09T15:48:05.002Z</time></trkpt><trkpt lat="44.8195530334495" lon="4.759576022795221"><ele>110.0</ele><time>2026-04-09T15:48:07.002Z</time></trkpt><trkpt lat="44.819532427954435" lon="4.759460261021529"><ele>110.0</ele><time>2026-04-09T15:48:09.002Z</time></trkpt><trkpt lat="44.819507974579146" lon="4.759339525829599"><ele>110.0</ele><time>2026-04-09T15:48:11.002Z</time></trkpt><trkpt lat="44.81948074656484" lon="4.759217156970286"><ele>110.0</ele><time>2026-04-09T15:48:13.002Z</time></trkpt><trkpt lat="44.81945121615262" lon="4.759085892937973"><ele>110.0</ele><time>2026-04-09T15:48:15.002Z</time></trkpt><trkpt lat="44.819414343454696" lon="4.75896210139371"><ele>109.4</ele><time>2026-04-09T15:48:17.002Z</time></trkpt><trkpt lat="44.81937608641709" lon="4.758840299003339"><ele>108.8</ele><time>2026-04-09T15:48:19.002Z</time></trkpt><trkpt lat="44.81933308929924" lon="4.758714806021504"><ele>108.19999999999999</ele><time>2026-04-09T15:48:21.002Z</time></trkpt><trkpt lat="44.81929228519655" lon="4.7585957035625475"><ele>107.6</ele><time>2026-04-09T15:48:23.002Z</time></trkpt><trkpt lat="44.81925982753469" lon="4.758478111943003"><ele>107.0</ele><time>2026-04-09T15:48:25.002Z</time></trkpt><trkpt lat="44.8192235408984" lon="4.758352939243169"><ele>113.19999999999999</ele><time>2026-04-09T15:48:27.002Z</time></trkpt><trkpt lat="44.81920414550658" lon="4.7582215477035845"><ele>119.39999999999999</ele><time>2026-04-09T15:48:29.002Z</time></trkpt><trkpt lat="44.819195119135266" lon="4.758086352258546"><ele>125.60000000000001</ele><time>2026-04-09T15:48:31.002Z</time></trkpt><trkpt lat="44.81919379165913" lon="4.757967351621884"><ele>131.8</ele><time>2026-04-09T15:48:33.002Z</time></trkpt><trkpt lat="44.819194145255466" lon="4.757840673867536"><ele>138.0</ele><time>2026-04-09T15:48:35.002Z</time></trkpt><trkpt lat="44.819199673771664" lon="4.7577116938089015"><ele>137.6</ele><time>2026-04-09T15:48:37.002Z</time></trkpt><trkpt lat="44.81920437226474" lon="4.757582681625856"><ele>137.20000000000002</ele><time>2026-04-09T15:48:39.002Z</time></trkpt><trkpt lat="44.81920806570382" lon="4.757457439615493"><ele>136.8</ele><time>2026-04-09T15:48:41.002Z</time></trkpt><trkpt lat="44.81920354593781" lon="4.757333226443217"><ele>136.4</ele><time>2026-04-09T15:48:43.002Z</time></trkpt><trkpt lat="44.81920879719517" lon="4.757202901763289"><ele>136.0</ele><time>2026-04-09T15:48:45.002Z</time></trkpt><trkpt lat="44.81921863594827" lon="4.757077709571138"><ele>136.0</ele><time>2026-04-09T15:48:47.002Z</time></trkpt><trkpt lat="44.81922111602292" lon="4.75695088742211"><ele>136.0</ele><time>2026-04-09T15:48:49.002Z</time></trkpt><trkpt lat="44.81920991035325" lon="4.756823485614304"><ele>136.0</ele><time>2026-04-09T15:48:51.002Z</time></trkpt><trkpt lat="44.819204741970104" lon="4.756692764866198"><ele>136.0</ele><time>2026-04-09T15:48:53.002Z</time></trkpt><trkpt lat="44.81919080394893" lon="4.756561917517593"><ele>136.0</ele><time>2026-04-09T15:48:55.002Z</time></trkpt><trkpt lat="44.81916488087912" lon="4.756436080703901"><ele>135.66666666666669</ele><time>2026-04-09T15:48:57.002Z</time></trkpt><trkpt lat="44.81913403061913" lon="4.756313446165391"><ele>135.33333333333334</ele><time>2026-04-09T15:48:59.002Z</time></trkpt><trkpt lat="44.81910563389918" lon="4.756195069594253"><ele>135.0</ele><time>2026-04-09T15:49:01.002Z</time></trkpt><trkpt lat="44.819074461409" lon="4.7560900249511775"><ele>134.66666666666666</ele><time>2026-04-09T15:49:03.002Z</time></trkpt><trkpt lat="44.819037732154705" lon="4.755969707233618"><ele>134.33333333333331</ele><time>2026-04-09T15:49:05.002Z</time></trkpt><trkpt lat="44.819012310446396" lon="4.755846931771712"><ele>134.0</ele><time>2026-04-09T15:49:07.002Z</time></trkpt><trkpt lat="44.818981838440415" lon="4.75571895964556"><ele>132.6</ele><time>2026-04-09T15:49:09.002Z</time></trkpt><trkpt lat="44.818966243259645" lon="4.755594013891193"><ele>131.2</ele><time>2026-04-09T15:49:11.002Z</time></trkpt><trkpt lat="44.81893245842995" lon="4.755456771679456"><ele>129.79999999999998</ele><time>2026-04-09T15:49:13.002Z</time></trkpt><trkpt lat="44.8189112750284" lon="4.755326790531283"><ele>128.4</ele><time>2026-04-09T15:49:15.002Z</time></trkpt><trkpt lat="44.81888795199922" lon="4.7551982939298485"><ele>127.0</ele><time>2026-04-09T15:49:17.002Z</time></trkpt><trkpt lat="44.81886226588042" lon="4.755068921934533"><ele>125.33333333333334</ele><time>2026-04-09T15:49:19.002Z</time></trkpt><trkpt lat="44.81884212678619" lon="4.754937198302239"><ele>123.66666666666667</ele><time>2026-04-09T15:49:21.002Z</time></trkpt><trkpt lat="44.81882002126585" lon="4.754811153800618"><ele>122.0</ele><time>2026-04-09T15:49:23.002Z</time></trkpt><trkpt lat="44.81879673022045" lon="4.754706302825887"><ele>120.33333333333334</ele><time>2026-04-09T15:49:25.002Z</time></trkpt><trkpt lat="44.818770831499975" lon="4.754585864487574"><ele>118.66666666666667</ele><time>2026-04-09T15:49:27.002Z</time></trkpt><trkpt lat="44.81873040710467" lon="4.754471319143722"><ele>117.0</ele><time>2026-04-09T15:49:29.002Z</time></trkpt><trkpt lat="44.81869453999168" lon="4.754376480458789"><ele>115.5</ele><time>2026-04-09T15:49:31.002Z</time></trkpt><trkpt lat="44.818645087001656" lon="4.75427245761776"><ele>114.0</ele><time>2026-04-09T15:49:33.002Z</time></trkpt><trkpt lat="44.81859494694592" lon="4.754167523359458"><ele>112.5</ele><time>2026-04-09T15:49:35.002Z</time></trkpt><trkpt lat="44.81855421173573" lon="4.754059339557707"><ele>111.0</ele><time>2026-04-09T15:49:37.002Z</time></trkpt><trkpt lat="44.81850567337479" lon="4.753954140846433"><ele>109.5</ele><time>2026-04-09T15:49:39.002Z</time></trkpt><trkpt lat="44.81846580092785" lon="4.753848390445225"><ele>108.0</ele><time>2026-04-09T15:49:41.002Z</time></trkpt><trkpt lat="44.81842397205012" lon="4.753752384512746"><ele>110.83333333333333</ele><time>2026-04-09T15:49:43.002Z</time></trkpt><trkpt lat="44.818380208464525" lon="4.753659528600419"><ele>113.66666666666666</ele><time>2026-04-09T15:49:45.002Z</time></trkpt><trkpt lat="44.818335776666494" lon="4.753558387778378"><ele>116.5</ele><time>2026-04-09T15:49:47.002Z</time></trkpt><trkpt lat="44.81828547062573" lon="4.753479857364238"><ele>119.33333333333333</ele><time>2026-04-09T15:49:49.002Z</time></trkpt><trkpt lat="44.818252680629094" lon="4.753388357596738"><ele>122.16666666666666</ele><time>2026-04-09T15:49:51.003Z</time></trkpt><trkpt lat="44.818208804676644" lon="4.753304653378929"><ele>125.0</ele><time>2026-04-09T15:49:53.003Z</time></trkpt><trkpt lat="44.81817141504477" lon="4.75321287512476"><ele>124.99999999999999</ele><time>2026-04-09T15:49:55.003Z</time></trkpt><trkpt lat="44.81811322542418" lon="4.753109917936061"><ele>125.0</ele><time>2026-04-09T15:49:57.003Z</time></trkpt><trkpt lat="44.81805606280874" lon="4.753007951099411"><ele>125.0</ele><time>2026-04-09T15:49:59.003Z</time></trkpt><trkpt lat="44.81801244408981" lon="4.752910728510767"><ele>125.0</ele><time>2026-04-09T15:50:01.003Z</time></trkpt><trkpt lat="44.81797326158091" lon="4.752807036100918"><ele>124.99999999999999</ele><time>2026-04-09T15:50:03.003Z</time></trkpt><trkpt lat="44.8179308467248" lon="4.752733892985264"><ele>125.0</ele><time>2026-04-09T15:50:05.003Z</time></trkpt><trkpt lat="44.81788796686905" lon="4.752628308384226"><ele>123.33333333333333</ele><time>2026-04-09T15:50:07.003Z</time></trkpt><trkpt lat="44.81784840828422" lon="4.752524478831643"><ele>121.66666666666666</ele><time>2026-04-09T15:50:09.003Z</time></trkpt><trkpt lat="44.81780788219601" lon="4.752427300725128"><ele>120.0</ele><time>2026-04-09T15:50:11.003Z</time></trkpt><trkpt lat="44.817768441436016" lon="4.752326516628902"><ele>118.33333333333334</ele><time>2026-04-09T15:50:13.003Z</time></trkpt><trkpt lat="44.81772347633039" lon="4.7522283897487325"><ele>116.66666666666667</ele><time>2026-04-09T15:50:15.003Z</time></trkpt><trkpt lat="44.817676174636944" lon="4.752122264570173"><ele>115.0</ele><time>2026-04-09T15:50:17.003Z</time></trkpt><trkpt lat="44.81762875134795" lon="4.752034592456722"><ele>117.66666666666667</ele><time>2026-04-09T15:50:19.003Z</time></trkpt><trkpt lat="44.81759391789502" lon="4.751938434292516"><ele>120.33333333333334</ele><time>2026-04-09T15:50:21.003Z</time></trkpt><trkpt lat="44.81755565983745" lon="4.751835820326878"><ele>123.0</ele><time>2026-04-09T15:50:23.003Z</time></trkpt><trkpt lat="44.81750719760415" lon="4.751745783635124"><ele>125.66666666666666</ele><time>2026-04-09T15:50:25.003Z</time></trkpt><trkpt lat="44.817464130421996" lon="4.751652658149632"><ele>128.33333333333331</ele><time>2026-04-09T15:50:27.003Z</time></trkpt><trkpt lat="44.81741986696117" lon="4.751555968276599"><ele>131.0</ele><time>2026-04-09T15:50:29.003Z</time></trkpt><trkpt lat="44.81736971161271" lon="4.751465889055254"><ele>131.0</ele><time>2026-04-09T15:50:31.003Z</time></trkpt><trkpt lat="44.817332792607615" lon="4.751376509461136"><ele>131.0</ele><time>2026-04-09T15:50:33.003Z</time></trkpt><trkpt lat="44.81726711599466" lon="4.7512864393189425"><ele>131.0</ele><time>2026-04-09T15:50:35.003Z</time></trkpt><trkpt lat="44.81720586795417" lon="4.751194290337006"><ele>131.0</ele><time>2026-04-09T15:50:37.003Z</time></trkpt><trkpt lat="44.81714663052384" lon="4.751110562446802"><ele>131.0</ele><time>2026-04-09T15:50:39.003Z</time></trkpt><trkpt lat="44.8170905550528" lon="4.751033715057352"><ele>131.0</ele><time>2026-04-09T15:50:41.003Z</time></trkpt><trkpt lat="44.81703321236313" lon="4.750946983647094"><ele>129.0</ele><time>2026-04-09T15:50:43.003Z</time></trkpt><trkpt lat="44.816978570234966" lon="4.750881638749375"><ele>127.00000000000001</ele><time>2026-04-09T15:50:45.003Z</time></trkpt><trkpt lat="44.81693516935828" lon="4.750804320410453"><ele>125.0</ele><time>2026-04-09T15:50:47.003Z</time></trkpt><trkpt lat="44.81688363147647" lon="4.7507295957313636"><ele>123.0</ele><time>2026-04-09T15:50:49.003Z</time></trkpt><trkpt lat="44.81683238031571" lon="4.750663127231495"><ele>121.00000000000001</ele><time>2026-04-09T15:50:51.003Z</time></trkpt><trkpt lat="44.81679144418099" lon="4.75057714776624"><ele>119.0</ele><time>2026-04-09T15:50:53.003Z</time></trkpt><trkpt lat="44.81675319262041" lon="4.750478974387764"><ele>117.0</ele><time>2026-04-09T15:50:55.003Z</time></trkpt><trkpt lat="44.81670619937236" lon="4.750384877162168"><ele>119.83333333333333</ele><time>2026-04-09T15:50:57.003Z</time></trkpt><trkpt lat="44.816665644305644" lon="4.750293493899339"><ele>122.66666666666666</ele><time>2026-04-09T15:50:59.003Z</time></trkpt><trkpt lat="44.816640387050285" lon="4.750189394982852"><ele>125.5</ele><time>2026-04-09T15:51:01.003Z</time></trkpt><trkpt lat="44.81660943398372" lon="4.750086330515998"><ele>128.33333333333331</ele><time>2026-04-09T15:51:03.003Z</time></trkpt><trkpt lat="44.81658064647331" lon="4.749973824724496"><ele>131.16666666666666</ele><time>2026-04-09T15:51:05.003Z</time></trkpt><trkpt lat="44.81655762827642" lon="4.749855639434078"><ele>134.0</ele><time>2026-04-09T15:51:07.003Z</time></trkpt><trkpt lat="44.81654311935945" lon="4.74973382663946"><ele>134.0</ele><time>2026-04-09T15:51:09.003Z</time></trkpt><trkpt lat="44.816542078741065" lon="4.749595657890823"><ele>134.0</ele><time>2026-04-09T15:51:11.003Z</time></trkpt><trkpt lat="44.81654394356186" lon="4.749460576500402"><ele>134.0</ele><time>2026-04-09T15:51:13.003Z</time></trkpt><trkpt lat="44.81653660491293" lon="4.749343865795962"><ele>134.0</ele><time>2026-04-09T15:51:15.003Z</time></trkpt><trkpt lat="44.816527622310204" lon="4.749234892271408"><ele>134.0</ele><time>2026-04-09T15:51:17.003Z</time></trkpt><trkpt lat="44.816513826241746" lon="4.749123527635984"><ele>134.0</ele><time>2026-04-09T15:51:19.003Z</time></trkpt><trkpt lat="44.81649903806473" lon="4.749022704855175"><ele>133.33333333333331</ele><time>2026-04-09T15:51:21.003Z</time></trkpt><trkpt lat="44.81647802272629" lon="4.748911438886598"><ele>132.66666666666666</ele><time>2026-04-09T15:51:23.003Z</time></trkpt><trkpt lat="44.81645907764953" lon="4.7488194098450025"><ele>132.0</ele><time>2026-04-09T15:51:25.003Z</time></trkpt><trkpt lat="44.81645328357905" lon="4.748696942593803"><ele>131.33333333333334</ele><time>2026-04-09T15:51:27.003Z</time></trkpt><trkpt lat="44.816444711159996" lon="4.748562197669216"><ele>130.66666666666669</ele><time>2026-04-09T15:51:29.003Z</time></trkpt><trkpt lat="44.81642589567806" lon="4.74845126785645"><ele>130.0</ele><time>2026-04-09T15:51:31.003Z</time></trkpt><trkpt lat="44.81640388835829" lon="4.7483455256876645"><ele>129.16666666666669</ele><time>2026-04-09T15:51:33.003Z</time></trkpt><trkpt lat="44.81636111659727" lon="4.748260931997891"><ele>128.33333333333334</ele><time>2026-04-09T15:51:35.003Z</time></trkpt><trkpt lat="44.81631940184558" lon="4.7481652991423955"><ele>127.5</ele><time>2026-04-09T15:51:37.003Z</time></trkpt><trkpt lat="44.81629922564866" lon="4.748060238541832"><ele>126.66666666666666</ele><time>2026-04-09T15:51:39.003Z</time></trkpt><trkpt lat="44.81626788911529" lon="4.747950550166375"><ele>125.83333333333333</ele><time>2026-04-09T15:51:41.003Z</time></trkpt><trkpt lat="44.81624145753865" lon="4.7478352475069645"><ele>125.0</ele><time>2026-04-09T15:51:43.003Z</time></trkpt><trkpt lat="44.816227022256086" lon="4.747696956683525"><ele>123.49999999999999</ele><time>2026-04-09T15:51:45.003Z</time></trkpt><trkpt lat="44.81621317733721" lon="4.747565381502756"><ele>122.0</ele><time>2026-04-09T15:51:47.003Z</time></trkpt><trkpt lat="44.81619515703619" lon="4.74744382299766"><ele>120.5</ele><time>2026-04-09T15:51:49.003Z</time></trkpt><trkpt lat="44.81617894590334" lon="4.747332885829217"><ele>119.0</ele><time>2026-04-09T15:51:51.003Z</time></trkpt><trkpt lat="44.81615630351914" lon="4.747228320768709"><ele>117.49999999999999</ele><time>2026-04-09T15:51:53.003Z</time></trkpt><trkpt lat="44.81613168629272" lon="4.747126701017813"><ele>116.0</ele><time>2026-04-09T15:51:55.003Z</time></trkpt><trkpt lat="44.816116601812915" lon="4.747020916557859"><ele>116.00000000000001</ele><time>2026-04-09T15:51:57.003Z</time></trkpt><trkpt lat="44.81608984750045" lon="4.746927001935448"><ele>116.0</ele><time>2026-04-09T15:51:59.003Z</time></trkpt><trkpt lat="44.81606716798781" lon="4.7468267650054266"><ele>116.00000000000001</ele><time>2026-04-09T15:52:01.003Z</time></trkpt><trkpt lat="44.816042985844746" lon="4.746742071896046"><ele>116.00000000000001</ele><time>2026-04-09T15:52:03.003Z</time></trkpt><trkpt lat="44.816026528781656" lon="4.746649972288954"><ele>116.0</ele><time>2026-04-09T15:52:05.003Z</time></trkpt><trkpt lat="44.81600499891613" lon="4.746552103512048"><ele>116.00000000000001</ele><time>2026-04-09T15:52:07.003Z</time></trkpt><trkpt lat="44.815996857853435" lon="4.7464367583669445"><ele>116.00000000000001</ele><time>2026-04-09T15:52:09.003Z</time></trkpt><trkpt lat="44.816005193178626" lon="4.746310382387438"><ele>116.0</ele><time>2026-04-09T15:52:11.003Z</time></trkpt><trkpt lat="44.81602760924602" lon="4.746173971341508"><ele>116.0</ele><time>2026-04-09T15:52:13.003Z</time></trkpt><trkpt lat="44.81604190116402" lon="4.746051885308225"><ele>116.0</ele><time>2026-04-09T15:52:15.003Z</time></trkpt><trkpt lat="44.81605500174404" lon="4.745936713737674"><ele>116.0</ele><time>2026-04-09T15:52:17.003Z</time></trkpt><trkpt lat="44.816070645732815" lon="4.745813142699109"><ele>116.0</ele><time>2026-04-09T15:52:19.003Z</time></trkpt><trkpt lat="44.81609919778404" lon="4.745689565421077"><ele>115.83333333333333</ele><time>2026-04-09T15:52:21.003Z</time></trkpt><trkpt lat="44.81612649032309" lon="4.745581237895756"><ele>115.66666666666666</ele><time>2026-04-09T15:52:23.003Z</time></trkpt><trkpt lat="44.816149869740585" lon="4.745470670345935"><ele>115.5</ele><time>2026-04-09T15:52:25.003Z</time></trkpt><trkpt lat="44.81615859639506" lon="4.745362480299936"><ele>115.33333333333334</ele><time>2026-04-09T15:52:27.003Z</time></trkpt><trkpt lat="44.81616947621713" lon="4.745253285178045"><ele>115.16666666666667</ele><time>2026-04-09T15:52:29.003Z</time></trkpt><trkpt lat="44.81618906092632" lon="4.74513496172015"><ele>115.0</ele><time>2026-04-09T15:52:31.003Z</time></trkpt><trkpt lat="44.81619580995661" lon="4.74502509267092"><ele>116.0</ele><time>2026-04-09T15:52:33.003Z</time></trkpt><trkpt lat="44.81622209125827" lon="4.744895672190792"><ele>117.0</ele><time>2026-04-09T15:52:35.003Z</time></trkpt><trkpt lat="44.816232685736644" lon="4.744771355520956"><ele>118.0</ele><time>2026-04-09T15:52:37.003Z</time></trkpt><trkpt lat="44.81624658920006" lon="4.744642755618601"><ele>119.0</ele><time>2026-04-09T15:52:39.003Z</time></trkpt><trkpt lat="44.81627068747816" lon="4.744514875611246"><ele>120.0</ele><time>2026-04-09T15:52:41.003Z</time></trkpt><trkpt lat="44.816312454689" lon="4.7443873856607865"><ele>121.2</ele><time>2026-04-09T15:52:43.003Z</time></trkpt><trkpt lat="44.81634179347382" lon="4.744255370203287"><ele>122.4</ele><time>2026-04-09T15:52:45.003Z</time></trkpt><trkpt lat="44.81636413979126" lon="4.744130005261209"><ele>123.6</ele><time>2026-04-09T15:52:47.003Z</time></trkpt><trkpt lat="44.81639071535106" lon="4.744008462378596"><ele>124.8</ele><time>2026-04-09T15:52:49.003Z</time></trkpt><trkpt lat="44.816400361138456" lon="4.743886035774145"><ele>126.0</ele><time>2026-04-09T15:52:51.003Z</time></trkpt><trkpt lat="44.81640273841761" lon="4.7437512384426075"><ele>126.0</ele><time>2026-04-09T15:52:53.003Z</time></trkpt><trkpt lat="44.816401195522445" lon="4.743609370319025"><ele>126.0</ele><time>2026-04-09T15:52:55.003Z</time></trkpt><trkpt lat="44.81639658584022" lon="4.743471246307373"><ele>126.0</ele><time>2026-04-09T15:52:57.003Z</time></trkpt><trkpt lat="44.8163936108874" lon="4.743339076339155"><ele>126.0</ele><time>2026-04-09T15:52:59.003Z</time></trkpt><trkpt lat="44.81640883923164" lon="4.743220382383706"><ele>126.0</ele><time>2026-04-09T15:53:01.003Z</time></trkpt><trkpt lat="44.81639418301247" lon="4.743092447158231"><ele>126.4</ele><time>2026-04-09T15:53:03.003Z</time></trkpt><trkpt lat="44.81638227680383" lon="4.742956292368922"><ele>126.8</ele><time>2026-04-09T15:53:05.003Z</time></trkpt><trkpt lat="44.81638049625743" lon="4.7428255113299"><ele>127.20000000000002</ele><time>2026-04-09T15:53:07.003Z</time></trkpt><trkpt lat="44.816376080199554" lon="4.742674940271684"><ele>127.60000000000001</ele><time>2026-04-09T15:53:09.003Z</time></trkpt><trkpt lat="44.816350281141766" lon="4.742549325544605"><ele>128.0</ele><time>2026-04-09T15:53:11.003Z</time></trkpt><trkpt lat="44.81633416135122" lon="4.742415879465618"><ele>128.0</ele><time>2026-04-09T15:53:13.003Z</time></trkpt><trkpt lat="44.81633776526795" lon="4.742272907738317"><ele>128.0</ele><time>2026-04-09T15:53:15.003Z</time></trkpt><trkpt lat="44.81633715466097" lon="4.742119701831933"><ele>128.0</ele><time>2026-04-09T15:53:17.004Z</time></trkpt><trkpt lat="44.81636227528025" lon="4.741963600809358"><ele>128.0</ele><time>2026-04-09T15:53:19.004Z</time></trkpt><trkpt lat="44.81636283489201" lon="4.741810196003641"><ele>128.0</ele><time>2026-04-09T15:53:21.004Z</time></trkpt><trkpt lat="44.816392326159786" lon="4.741662267163168"><ele>128.0</ele><time>2026-04-09T15:53:23.004Z</time></trkpt><trkpt lat="44.816401816871284" lon="4.741523101654186"><ele>128.0</ele><time>2026-04-09T15:53:25.004Z</time></trkpt><trkpt lat="44.816448293087795" lon="4.74136463511322"><ele>128.0</ele><time>2026-04-09T15:53:27.004Z</time></trkpt><trkpt lat="44.81648193920509" lon="4.741287710457504"><ele>128.0</ele><time>2026-04-09T15:53:28.004Z</time></trkpt><trkpt lat="44.81653480937597" lon="4.741133402963522"><ele>128.0</ele><time>2026-04-09T15:53:30.004Z</time></trkpt><trkpt lat="44.81659382569377" lon="4.741002123322178"><ele>129.6</ele><time>2026-04-09T15:53:32.004Z</time></trkpt><trkpt lat="44.81665370279162" lon="4.740861066054936"><ele>131.20000000000002</ele><time>2026-04-09T15:53:34.004Z</time></trkpt><trkpt lat="44.81669250571274" lon="4.74072635708288"><ele>132.8</ele><time>2026-04-09T15:53:36.004Z</time></trkpt><trkpt lat="44.8167466725501" lon="4.740596455878097"><ele>134.4</ele><time>2026-04-09T15:53:38.004Z</time></trkpt><trkpt lat="44.816777705475715" lon="4.740456517706765"><ele>136.0</ele><time>2026-04-09T15:53:40.004Z</time></trkpt><trkpt lat="44.81683649654611" lon="4.740329024188443"><ele>133.2</ele><time>2026-04-09T15:53:42.004Z</time></trkpt><trkpt lat="44.81688536337909" lon="4.740219978618404"><ele>130.39999999999998</ele><time>2026-04-09T15:53:44.004Z</time></trkpt><trkpt lat="44.81693526751494" lon="4.74011675523472"><ele>127.6</ele><time>2026-04-09T15:53:46.004Z</time></trkpt><trkpt lat="44.816991232231516" lon="4.740031142554565"><ele>124.8</ele><time>2026-04-09T15:53:48.004Z</time></trkpt><trkpt lat="44.81706517429133" lon="4.739959391911837"><ele>122.0</ele><time>2026-04-09T15:53:50.004Z</time></trkpt><trkpt lat="44.81713978675655" lon="4.739864192438909"><ele>122.0</ele><time>2026-04-09T15:53:52.004Z</time></trkpt><trkpt lat="44.81721793301185" lon="4.7397588461696385"><ele>121.99999999999999</ele><time>2026-04-09T15:53:54.004Z</time></trkpt><trkpt lat="44.817296695159314" lon="4.739665260258745"><ele>121.99999999999999</ele><time>2026-04-09T15:53:56.004Z</time></trkpt><trkpt lat="44.81737359657583" lon="4.739567899429881"><ele>122.0</ele><time>2026-04-09T15:53:58.004Z</time></trkpt><trkpt lat="44.81744142024105" lon="4.739467358166981"><ele>122.0</ele><time>2026-04-09T15:54:00.004Z</time></trkpt><trkpt lat="44.817508826475326" lon="4.739353570699385"><ele>121.39999999999999</ele><time>2026-04-09T15:54:02.004Z</time></trkpt><trkpt lat="44.81758129792045" lon="4.739251431133918"><ele>120.79999999999998</ele><time>2026-04-09T15:54:04.004Z</time></trkpt><trkpt lat="44.817634841469896" lon="4.739139006836411"><ele>120.2</ele><time>2026-04-09T15:54:06.004Z</time></trkpt><trkpt lat="44.81768920338938" lon="4.739036119602861"><ele>119.6</ele><time>2026-04-09T15:54:08.004Z</time></trkpt><trkpt lat="44.81772947721981" lon="4.738901488770934"><ele>119.0</ele><time>2026-04-09T15:54:10.004Z</time></trkpt><trkpt lat="44.81775539578702" lon="4.738752484567508"><ele>119.0</ele><time>2026-04-09T15:54:12.004Z</time></trkpt><trkpt lat="44.81775831987815" lon="4.738604149678435"><ele>119.0</ele><time>2026-04-09T15:54:14.004Z</time></trkpt><trkpt lat="44.81775314425862" lon="4.7384572509276905"><ele>119.0</ele><time>2026-04-09T15:54:16.004Z</time></trkpt><trkpt lat="44.81773888409572" lon="4.738325376068892"><ele>119.0</ele><time>2026-04-09T15:54:18.004Z</time></trkpt><trkpt lat="44.817712343895714" lon="4.738189667457167"><ele>119.0</ele><time>2026-04-09T15:54:20.004Z</time></trkpt><trkpt lat="44.817679921763094" lon="4.738070444647257"><ele>119.0</ele><time>2026-04-09T15:54:22.004Z</time></trkpt><trkpt lat="44.817663630761984" lon="4.737956445663801"><ele>119.0</ele><time>2026-04-09T15:54:24.004Z</time></trkpt><trkpt lat="44.8176316415325" lon="4.737831724884319"><ele>119.0</ele><time>2026-04-09T15:54:26.004Z</time></trkpt><trkpt lat="44.81760678950232" lon="4.737715622624519"><ele>119.0</ele><time>2026-04-09T15:54:28.004Z</time></trkpt><trkpt lat="44.817576131503266" lon="4.737582730230235"><ele>119.0</ele><time>2026-04-09T15:54:30.004Z</time></trkpt><trkpt lat="44.81756043833596" lon="4.737445864510461"><ele>121.6</ele><time>2026-04-09T15:54:32.004Z</time></trkpt><trkpt lat="44.81756075260934" lon="4.737299621197394"><ele>124.2</ele><time>2026-04-09T15:54:34.004Z</time></trkpt><trkpt lat="44.817548160840595" lon="4.737172027419792"><ele>126.79999999999998</ele><time>2026-04-09T15:54:36.004Z</time></trkpt><trkpt lat="44.81754030249529" lon="4.7370271119162926"><ele>129.4</ele><time>2026-04-09T15:54:38.004Z</time></trkpt><trkpt lat="44.81753229235607" lon="4.73690240752018"><ele>132.0</ele><time>2026-04-09T15:54:40.004Z</time></trkpt><trkpt lat="44.817541241705996" lon="4.736769768532129"><ele>133.0</ele><time>2026-04-09T15:54:42.004Z</time></trkpt><trkpt lat="44.817566921357134" lon="4.7366386929684845"><ele>134.0</ele><time>2026-04-09T15:54:44.004Z</time></trkpt><trkpt lat="44.81758783524417" lon="4.736515533725093"><ele>135.0</ele><time>2026-04-09T15:54:46.004Z</time></trkpt><trkpt lat="44.8176066988636" lon="4.736387228835531"><ele>136.0</ele><time>2026-04-09T15:54:48.004Z</time></trkpt><trkpt lat="44.817626789018064" lon="4.736280331197871"><ele>137.0</ele><time>2026-04-09T15:54:50.004Z</time></trkpt><trkpt lat="44.8176677220866" lon="4.736152651940734"><ele>134.16666666666666</ele><time>2026-04-09T15:54:52.004Z</time></trkpt><trkpt lat="44.81769191461677" lon="4.7360359381550845"><ele>131.33333333333331</ele><time>2026-04-09T15:54:54.004Z</time></trkpt><trkpt lat="44.817714436519324" lon="4.73592767447506"><ele>128.5</ele><time>2026-04-09T15:54:56.004Z</time></trkpt><trkpt lat="44.81774974396336" lon="4.735821723677945"><ele>125.66666666666666</ele><time>2026-04-09T15:54:58.004Z</time></trkpt><trkpt lat="44.81777950231423" lon="4.735720799600409"><ele>122.83333333333333</ele><time>2026-04-09T15:55:00.004Z</time></trkpt><trkpt lat="44.817810962987984" lon="4.735627847359961"><ele>120.0</ele><time>2026-04-09T15:55:02.004Z</time></trkpt><trkpt lat="44.817823842068556" lon="4.735512520592063"><ele>120.0</ele><time>2026-04-09T15:55:05.004Z</time></trkpt><trkpt lat="44.81786416440152" lon="4.735405996003926"><ele>120.0</ele><time>2026-04-09T15:55:07.004Z</time></trkpt><trkpt lat="44.81790469278056" lon="4.735293794394295"><ele>120.0</ele><time>2026-04-09T15:55:09.004Z</time></trkpt><trkpt lat="44.81793065401194" lon="4.735176883774778"><ele>120.0</ele><time>2026-04-09T15:55:11.004Z</time></trkpt><trkpt lat="44.817943427196745" lon="4.735074441208959"><ele>120.0</ele><time>2026-04-09T15:55:13.004Z</time></trkpt><trkpt lat="44.81796420396102" lon="4.7349560371981445"><ele>120.0</ele><time>2026-04-09T15:55:15.004Z</time></trkpt><trkpt lat="44.8179784718506" lon="4.734846767131275"><ele>120.33333333333333</ele><time>2026-04-09T15:55:17.004Z</time></trkpt><trkpt lat="44.81799224569209" lon="4.734736405478769"><ele>120.66666666666666</ele><time>2026-04-09T15:55:19.004Z</time></trkpt><trkpt lat="44.81798892293648" lon="4.734630759324225"><ele>121.0</ele><time>2026-04-09T15:55:21.004Z</time></trkpt><trkpt lat="44.81798513873373" lon="4.734522154260554"><ele>121.33333333333333</ele><time>2026-04-09T15:55:23.004Z</time></trkpt><trkpt lat="44.81799326412947" lon="4.734407494839429"><ele>121.66666666666666</ele><time>2026-04-09T15:55:25.004Z</time></trkpt><trkpt lat="44.81798963141983" lon="4.734284494147513"><ele>122.0</ele><time>2026-04-09T15:55:27.004Z</time></trkpt><trkpt lat="44.817988091761066" lon="4.7341655331695724"><ele>121.99999999999999</ele><time>2026-04-09T15:55:29.004Z</time></trkpt><trkpt lat="44.81797805180835" lon="4.734054106600836"><ele>122.0</ele><time>2026-04-09T15:55:31.004Z</time></trkpt><trkpt lat="44.81797303865531" lon="4.733938394689071"><ele>122.0</ele><time>2026-04-09T15:55:33.004Z</time></trkpt><trkpt lat="44.817967400319176" lon="4.73382333510018"><ele>122.0</ele><time>2026-04-09T15:55:35.004Z</time></trkpt><trkpt lat="44.817958454891006" lon="4.7337109436315075"><ele>121.99999999999999</ele><time>2026-04-09T15:55:37.004Z</time></trkpt><trkpt lat="44.81795787608408" lon="4.733605743579537"><ele>122.0</ele><time>2026-04-09T15:55:39.004Z</time></trkpt><trkpt lat="44.81794901617294" lon="4.733494450391335"><ele>122.66666666666666</ele><time>2026-04-09T15:55:41.004Z</time></trkpt><trkpt lat="44.81794649378319" lon="4.733384450886564"><ele>123.33333333333333</ele><time>2026-04-09T15:55:43.004Z</time></trkpt><trkpt lat="44.817933732405706" lon="4.733279558129446"><ele>124.0</ele><time>2026-04-09T15:55:45.004Z</time></trkpt><trkpt lat="44.81792749065145" lon="4.73318337633382"><ele>124.66666666666666</ele><time>2026-04-09T15:55:47.004Z</time></trkpt><trkpt lat="44.81791429808838" lon="4.733048873527271"><ele>125.33333333333333</ele><time>2026-04-09T15:55:50.004Z</time></trkpt><trkpt lat="44.817909642780116" lon="4.732952819009041"><ele>126.0</ele><time>2026-04-09T15:55:52.004Z</time></trkpt><trkpt lat="44.817904983540224" lon="4.7328594223059195"><ele>126.0</ele><time>2026-04-09T15:55:54.004Z</time></trkpt><trkpt lat="44.817899646397045" lon="4.732760853248822"><ele>126.0</ele><time>2026-04-09T15:55:56.004Z</time></trkpt><trkpt lat="44.81788875434634" lon="4.732664897982841"><ele>126.0</ele><time>2026-04-09T15:55:58.004Z</time></trkpt><trkpt lat="44.81788019552881" lon="4.732530025238767"><ele>126.0</ele><time>2026-04-09T15:56:01.004Z</time></trkpt><trkpt lat="44.81787014572955" lon="4.732406244161894"><ele>126.0</ele><time>2026-04-09T15:56:04.004Z</time></trkpt><trkpt lat="44.81785971894169" lon="4.732287503172399"><ele>126.0</ele><time>2026-04-09T15:56:06.004Z</time></trkpt><trkpt lat="44.817839261508276" lon="4.7321877520650455"><ele>126.0</ele><time>2026-04-09T15:56:08.004Z</time></trkpt><trkpt lat="44.81783430730634" lon="4.732086641784349"><ele>126.0</ele><time>2026-04-09T15:56:10.004Z</time></trkpt><trkpt lat="44.81782075863184" lon="4.731981418737662"><ele>126.0</ele><time>2026-04-09T15:56:12.004Z</time></trkpt><trkpt lat="44.8178094312419" lon="4.731871672470799"><ele>126.0</ele><time>2026-04-09T15:56:14.004Z</time></trkpt><trkpt lat="44.81781293209798" lon="4.7317644960367575"><ele>126.0</ele><time>2026-04-09T15:56:16.004Z</time></trkpt><trkpt lat="44.8178116597874" lon="4.731647619363922"><ele>126.0</ele><time>2026-04-09T15:56:18.004Z</time></trkpt><trkpt lat="44.817801422756354" lon="4.731551112245786"><ele>126.0</ele><time>2026-04-09T15:56:20.004Z</time></trkpt><trkpt lat="44.81779157111065" lon="4.731443670779729"><ele>126.0</ele><time>2026-04-09T15:56:22.004Z</time></trkpt><trkpt lat="44.817787906702094" lon="4.731349739385183"><ele>126.0</ele><time>2026-04-09T15:56:24.004Z</time></trkpt><trkpt lat="44.81777899587041" lon="4.731238321154264"><ele>126.0</ele><time>2026-04-09T15:56:26.004Z</time></trkpt><trkpt lat="44.81776556344029" lon="4.731145581871314"><ele>126.0</ele><time>2026-04-09T15:56:28.004Z</time></trkpt><trkpt lat="44.81776598994036" lon="4.731036266439114"><ele>126.0</ele><time>2026-04-09T15:56:30.004Z</time></trkpt><trkpt lat="44.81776261146599" lon="4.730917308327577"><ele>125.66666666666667</ele><time>2026-04-09T15:56:32.004Z</time></trkpt><trkpt lat="44.81774071171196" lon="4.73081393360647"><ele>125.33333333333334</ele><time>2026-04-09T15:56:34.004Z</time></trkpt><trkpt lat="44.8177514172439" lon="4.73069348919532"><ele>125.0</ele><time>2026-04-09T15:56:36.004Z</time></trkpt><trkpt lat="44.817744921468474" lon="4.730583116276899"><ele>124.66666666666667</ele><time>2026-04-09T15:56:38.004Z</time></trkpt><trkpt lat="44.8177407097094" lon="4.730474037189182"><ele>124.33333333333334</ele><time>2026-04-09T15:56:40.004Z</time></trkpt><trkpt lat="44.81774079242059" lon="4.7303545669247695"><ele>124.0</ele><time>2026-04-09T15:56:42.004Z</time></trkpt><trkpt lat="44.81772743608199" lon="4.730253907825572"><ele>123.16666666666667</ele><time>2026-04-09T15:56:44.005Z</time></trkpt><trkpt lat="44.81771820427318" lon="4.730140302267555"><ele>122.33333333333334</ele><time>2026-04-09T15:56:46.005Z</time></trkpt><trkpt lat="44.81771778593543" lon="4.730023027530467"><ele>121.5</ele><time>2026-04-09T15:56:48.005Z</time></trkpt><trkpt lat="44.81770692524592" lon="4.729914248657683"><ele>120.66666666666666</ele><time>2026-04-09T15:56:50.005Z</time></trkpt><trkpt lat="44.81768804636441" lon="4.729824473330823"><ele>119.83333333333333</ele><time>2026-04-09T15:56:52.005Z</time></trkpt><trkpt lat="44.817673958726864" lon="4.729713897046229"><ele>119.0</ele><time>2026-04-09T15:56:54.005Z</time></trkpt><trkpt lat="44.81768566578524" lon="4.729598076908725"><ele>118.99999999999999</ele><time>2026-04-09T15:56:56.005Z</time></trkpt><trkpt lat="44.81767414335228" lon="4.729480136674446"><ele>119.0</ele><time>2026-04-09T15:56:58.005Z</time></trkpt><trkpt lat="44.817669507511184" lon="4.72938129641524"><ele>119.0</ele><time>2026-04-09T15:57:00.005Z</time></trkpt><trkpt lat="44.8176558762848" lon="4.729289381024009"><ele>119.0</ele><time>2026-04-09T15:57:02.005Z</time></trkpt><trkpt lat="44.81765650360038" lon="4.729169452568864"><ele>118.99999999999999</ele><time>2026-04-09T15:57:04.005Z</time></trkpt><trkpt lat="44.81764696446115" lon="4.729063258391366"><ele>119.0</ele><time>2026-04-09T15:57:06.005Z</time></trkpt><trkpt lat="44.817630302274324" lon="4.7289605355878725"><ele>122.33333333333333</ele><time>2026-04-09T15:57:08.005Z</time></trkpt><trkpt lat="44.81761030391803" lon="4.728866902603776"><ele>125.66666666666666</ele><time>2026-04-09T15:57:10.005Z</time></trkpt><trkpt lat="44.81757435818068" lon="4.728755463593243"><ele>129.0</ele><time>2026-04-09T15:57:12.005Z</time></trkpt><trkpt lat="44.81755384376161" lon="4.728645818901256"><ele>132.33333333333334</ele><time>2026-04-09T15:57:14.005Z</time></trkpt><trkpt lat="44.8175296757688" lon="4.728534341291724"><ele>135.66666666666669</ele><time>2026-04-09T15:57:16.005Z</time></trkpt><trkpt lat="44.817486548346416" lon="4.728428261347869"><ele>139.0</ele><time>2026-04-09T15:57:18.005Z</time></trkpt><trkpt lat="44.81744659090733" lon="4.728341536671583"><ele>139.0</ele><time>2026-04-09T15:57:20.005Z</time></trkpt><trkpt lat="44.817414932927896" lon="4.728244692176718"><ele>139.0</ele><time>2026-04-09T15:57:22.005Z</time></trkpt><trkpt lat="44.81737308130848" lon="4.728157861797234"><ele>139.0</ele><time>2026-04-09T15:57:24.005Z</time></trkpt><trkpt lat="44.81734547811864" lon="4.728055894803893"><ele>139.0</ele><time>2026-04-09T15:57:26.005Z</time></trkpt><trkpt lat="44.817315168152916" lon="4.727962794732674"><ele>139.0</ele><time>2026-04-09T15:57:28.005Z</time></trkpt><trkpt lat="44.81727076426353" lon="4.727860558358623"><ele>139.0</ele><time>2026-04-09T15:57:30.005Z</time></trkpt><trkpt lat="44.81723342793806" lon="4.727769482015686"><ele>136.5</ele><time>2026-04-09T15:57:32.005Z</time></trkpt><trkpt lat="44.81719465905265" lon="4.727678874001262"><ele>134.0</ele><time>2026-04-09T15:57:34.005Z</time></trkpt><trkpt lat="44.81714710504594" lon="4.727602835017034"><ele>131.5</ele><time>2026-04-09T15:57:36.005Z</time></trkpt><trkpt lat="44.81709884441969" lon="4.7275329507943455"><ele>129.0</ele><time>2026-04-09T15:57:38.005Z</time></trkpt><trkpt lat="44.81704702333935" lon="4.727443766101511"><ele>126.50000000000001</ele><time>2026-04-09T15:57:40.005Z</time></trkpt><trkpt lat="44.81699027522369" lon="4.727370570691762"><ele>124.0</ele><time>2026-04-09T15:57:42.005Z</time></trkpt><trkpt lat="44.8169237581719" lon="4.727303564568708"><ele>124.00000000000001</ele><time>2026-04-09T15:57:44.005Z</time></trkpt><trkpt lat="44.81686027208006" lon="4.727238770617898"><ele>124.0</ele><time>2026-04-09T15:57:46.005Z</time></trkpt><trkpt lat="44.81680567932118" lon="4.7271702202899135"><ele>124.0</ele><time>2026-04-09T15:57:48.005Z</time></trkpt><trkpt lat="44.81674625886171" lon="4.727117077476495"><ele>124.0</ele><time>2026-04-09T15:57:50.005Z</time></trkpt><trkpt lat="44.81667486316824" lon="4.7270663359189875"><ele>124.00000000000001</ele><time>2026-04-09T15:57:52.005Z</time></trkpt><trkpt lat="44.81659060636375" lon="4.727002602775"><ele>124.0</ele><time>2026-04-09T15:57:55.005Z</time></trkpt><trkpt lat="44.81652743257237" lon="4.72695229609228"><ele>124.66666666666667</ele><time>2026-04-09T15:57:57.005Z</time></trkpt><trkpt lat="44.816467192620856" lon="4.726893487105855"><ele>125.33333333333334</ele><time>2026-04-09T15:57:59.005Z</time></trkpt><trkpt lat="44.81640695022001" lon="4.72682195386052"><ele>126.0</ele><time>2026-04-09T15:58:01.005Z</time></trkpt><trkpt lat="44.81635554945822" lon="4.7267542585106845"><ele>126.66666666666666</ele><time>2026-04-09T15:58:03.005Z</time></trkpt><trkpt lat="44.81629939965122" lon="4.726670895470008"><ele>127.33333333333333</ele><time>2026-04-09T15:58:05.005Z</time></trkpt><trkpt lat="44.816253299281435" lon="4.726580787216507"><ele>128.0</ele><time>2026-04-09T15:58:07.005Z</time></trkpt><trkpt lat="44.81620975681169" lon="4.726482343898808"><ele>127.99999999999999</ele><time>2026-04-09T15:58:09.005Z</time></trkpt><trkpt lat="44.81617203859186" lon="4.726387988430608"><ele>128.0</ele><time>2026-04-09T15:58:11.005Z</time></trkpt><trkpt lat="44.81614638564331" lon="4.726283186525033"><ele>128.0</ele><time>2026-04-09T15:58:13.005Z</time></trkpt><trkpt lat="44.81611423893747" lon="4.72619321894303"><ele>128.0</ele><time>2026-04-09T15:58:15.005Z</time></trkpt><trkpt lat="44.81609387802204" lon="4.726090356559747"><ele>127.99999999999999</ele><time>2026-04-09T15:58:17.005Z</time></trkpt><trkpt lat="44.81607870152345" lon="4.7259892671270105"><ele>128.0</ele><time>2026-04-09T15:58:19.005Z</time></trkpt><trkpt lat="44.816059156579705" lon="4.7258836329938845"><ele>125.99999999999999</ele><time>2026-04-09T15:58:21.005Z</time></trkpt><trkpt lat="44.816052870409145" lon="4.725774446706731"><ele>124.0</ele><time>2026-04-09T15:58:23.005Z</time></trkpt><trkpt lat="44.816041196672074" lon="4.725660598185446"><ele>122.0</ele><time>2026-04-09T15:58:25.005Z</time></trkpt><trkpt lat="44.81603282292902" lon="4.725545378992614"><ele>120.0</ele><time>2026-04-09T15:58:27.005Z</time></trkpt><trkpt lat="44.81602114315064" lon="4.725440376763645"><ele>117.99999999999999</ele><time>2026-04-09T15:58:29.005Z</time></trkpt><trkpt lat="44.81601244047016" lon="4.725329064420118"><ele>116.0</ele><time>2026-04-09T15:58:31.005Z</time></trkpt><trkpt lat="44.815999603257104" lon="4.72522271774057"><ele>115.66666666666666</ele><time>2026-04-09T15:58:33.005Z</time></trkpt><trkpt lat="44.815994494810184" lon="4.725096470018712"><ele>115.33333333333333</ele><time>2026-04-09T15:58:35.005Z</time></trkpt><trkpt lat="44.815978883113836" lon="4.724982684212746"><ele>115.0</ele><time>2026-04-09T15:58:37.005Z</time></trkpt><trkpt lat="44.81597276953373" lon="4.724866303765499"><ele>114.66666666666666</ele><time>2026-04-09T15:58:39.005Z</time></trkpt><trkpt lat="44.815962192996395" lon="4.724749686400403"><ele>114.33333333333333</ele><time>2026-04-09T15:58:41.005Z</time></trkpt><trkpt lat="44.81594071144407" lon="4.724645004535816"><ele>114.0</ele><time>2026-04-09T15:58:43.005Z</time></trkpt><trkpt lat="44.81592570478436" lon="4.724533537348036"><ele>118.66666666666667</ele><time>2026-04-09T15:58:45.005Z</time></trkpt><trkpt lat="44.81591222835587" lon="4.724420105210142"><ele>123.33333333333334</ele><time>2026-04-09T15:58:47.005Z</time></trkpt><trkpt lat="44.81590200801047" lon="4.72431545116722"><ele>128.0</ele><time>2026-04-09T15:58:49.005Z</time></trkpt><trkpt lat="44.81590229375092" lon="4.724208789281627"><ele>132.66666666666669</ele><time>2026-04-09T15:58:51.005Z</time></trkpt><trkpt lat="44.81588529417295" lon="4.724101113634323"><ele>137.33333333333334</ele><time>2026-04-09T15:58:53.005Z</time></trkpt><trkpt lat="44.815875551131185" lon="4.723988041532305"><ele>142.0</ele><time>2026-04-09T15:58:55.005Z</time></trkpt><trkpt lat="44.81586612077432" lon="4.723887370835474"><ele>142.0</ele><time>2026-04-09T15:58:57.005Z</time></trkpt><trkpt lat="44.81585483659956" lon="4.723773252847981"><ele>142.0</ele><time>2026-04-09T15:58:59.005Z</time></trkpt><trkpt lat="44.81583755843552" lon="4.72365943835171"><ele>142.0</ele><time>2026-04-09T15:59:01.005Z</time></trkpt><trkpt lat="44.815820694649354" lon="4.723554705815726"><ele>142.0</ele><time>2026-04-09T15:59:03.005Z</time></trkpt><trkpt lat="44.81580673890127" lon="4.723440864846906"><ele>142.0</ele><time>2026-04-09T15:59:05.005Z</time></trkpt><trkpt lat="44.81579494969047" lon="4.723342326170571"><ele>142.0</ele><time>2026-04-09T15:59:07.005Z</time></trkpt><trkpt lat="44.8157750589231" lon="4.723249511257348"><ele>141.71428571428572</ele><time>2026-04-09T15:59:09.005Z</time></trkpt><trkpt lat="44.81576383057853" lon="4.723142621070581"><ele>141.42857142857142</ele><time>2026-04-09T15:59:11.005Z</time></trkpt><trkpt lat="44.81573889283193" lon="4.723047720464202"><ele>141.14285714285714</ele><time>2026-04-09T15:59:13.005Z</time></trkpt><trkpt lat="44.81572789044939" lon="4.722948062626223"><ele>140.85714285714286</ele><time>2026-04-09T15:59:15.005Z</time></trkpt><trkpt lat="44.81570188292443" lon="4.7228609013713205"><ele>140.57142857142856</ele><time>2026-04-09T15:59:17.005Z</time></trkpt><trkpt lat="44.815695695467674" lon="4.72274622686252"><ele>140.28571428571428</ele><time>2026-04-09T15:59:19.005Z</time></trkpt><trkpt lat="44.815682127998" lon="4.722644180440203"><ele>140.0</ele><time>2026-04-09T15:59:21.005Z</time></trkpt><trkpt lat="44.81567053593643" lon="4.72255188707835"><ele>140.0</ele><time>2026-04-09T15:59:23.005Z</time></trkpt><trkpt lat="44.81566248548902" lon="4.722437651651011"><ele>140.0</ele><time>2026-04-09T15:59:25.005Z</time></trkpt><trkpt lat="44.8156487405152" lon="4.722334367637803"><ele>140.0</ele><time>2026-04-09T15:59:27.005Z</time></trkpt><trkpt lat="44.81564000706974" lon="4.722219700878681"><ele>140.0</ele><time>2026-04-09T15:59:29.005Z</time></trkpt><trkpt lat="44.81564067960534" lon="4.722099192024244"><ele>140.0</ele><time>2026-04-09T15:59:31.005Z</time></trkpt><trkpt lat="44.81563766733204" lon="4.721965189666942"><ele>140.0</ele><time>2026-04-09T15:59:33.005Z</time></trkpt><trkpt lat="44.81563467212514" lon="4.721849333313349"><ele>140.0</ele><time>2026-04-09T15:59:35.005Z</time></trkpt><trkpt lat="44.81563988280324" lon="4.721733617788776"><ele>140.0</ele><time>2026-04-09T15:59:37.005Z</time></trkpt><trkpt lat="44.81565219584839" lon="4.721623042793594"><ele>140.0</ele><time>2026-04-09T15:59:39.005Z</time></trkpt><trkpt lat="44.815657679523945" lon="4.721513966100269"><ele>140.0</ele><time>2026-04-09T15:59:41.005Z</time></trkpt><trkpt lat="44.81567712518564" lon="4.721409386969896"><ele>140.0</ele><time>2026-04-09T15:59:43.005Z</time></trkpt><trkpt lat="44.81569900379086" lon="4.7213083360004475"><ele>140.0</ele><time>2026-04-09T15:59:45.005Z</time></trkpt><trkpt lat="44.81572514906856" lon="4.721207350148495"><ele>140.0</ele><time>2026-04-09T15:59:47.005Z</time></trkpt><trkpt lat="44.81573153330764" lon="4.721108733437783"><ele>140.0</ele><time>2026-04-09T15:59:49.005Z</time></trkpt><trkpt lat="44.815755155188" lon="4.720998288664003"><ele>140.0</ele><time>2026-04-09T15:59:51.005Z</time></trkpt><trkpt lat="44.8157785524641" lon="4.720880345725692"><ele>140.0</ele><time>2026-04-09T15:59:53.005Z</time></trkpt><trkpt lat="44.81579836383327" lon="4.720773767944473"><ele>140.0</ele><time>2026-04-09T15:59:55.005Z</time></trkpt><trkpt lat="44.81580862250617" lon="4.720665543924136"><ele>140.0</ele><time>2026-04-09T15:59:57.005Z</time></trkpt><trkpt lat="44.8158302356466" lon="4.720540381224798"><ele>140.33333333333331</ele><time>2026-04-09T15:59:59.005Z</time></trkpt><trkpt lat="44.815851839017256" lon="4.720411852179952"><ele>140.66666666666666</ele><time>2026-04-09T16:00:01.005Z</time></trkpt><trkpt lat="44.81588442916434" lon="4.720289202224878"><ele>141.0</ele><time>2026-04-09T16:00:03.005Z</time></trkpt><trkpt lat="44.815896584153016" lon="4.720168245002158"><ele>141.33333333333334</ele><time>2026-04-09T16:00:05.005Z</time></trkpt><trkpt lat="44.815913831893056" lon="4.720059087021981"><ele>141.66666666666669</ele><time>2026-04-09T16:00:07.005Z</time></trkpt><trkpt lat="44.81593153749504" lon="4.719946053041159"><ele>142.0</ele><time>2026-04-09T16:00:09.005Z</time></trkpt><trkpt lat="44.81594597571212" lon="4.719839181641572"><ele>142.16666666666669</ele><time>2026-04-09T16:00:11.006Z</time></trkpt><trkpt lat="44.81597046810436" lon="4.719729182496569"><ele>142.33333333333334</ele><time>2026-04-09T16:00:13.006Z</time></trkpt><trkpt lat="44.81598749640171" lon="4.719627207183997"><ele>142.5</ele><time>2026-04-09T16:00:15.006Z</time></trkpt><trkpt lat="44.8160099968623" lon="4.719526008353487"><ele>142.66666666666666</ele><time>2026-04-09T16:00:17.006Z</time></trkpt><trkpt lat="44.81601854694251" lon="4.719429908545534"><ele>142.83333333333331</ele><time>2026-04-09T16:00:19.006Z</time></trkpt><trkpt lat="44.816038210272154" lon="4.719287765683422"><ele>143.0</ele><time>2026-04-09T16:00:22.006Z</time></trkpt><trkpt lat="44.816056243008724" lon="4.719187718973741"><ele>142.57142857142856</ele><time>2026-04-09T16:00:24.006Z</time></trkpt><trkpt lat="44.816064458519506" lon="4.719093551365751"><ele>142.14285714285714</ele><time>2026-04-09T16:00:26.006Z</time></trkpt><trkpt lat="44.816087591972796" lon="4.71899870799414"><ele>141.71428571428572</ele><time>2026-04-09T16:00:28.006Z</time></trkpt><trkpt lat="44.8161040483983" lon="4.718912775627166"><ele>141.28571428571428</ele><time>2026-04-09T16:00:30.006Z</time></trkpt><trkpt lat="44.81611320687458" lon="4.718811949371019"><ele>140.85714285714286</ele><time>2026-04-09T16:00:32.006Z</time></trkpt><trkpt lat="44.81612883841252" lon="4.718720328488624"><ele>140.42857142857142</ele><time>2026-04-09T16:00:34.006Z</time></trkpt><trkpt lat="44.81615173800798" lon="4.718625372778275"><ele>140.0</ele><time>2026-04-09T16:00:36.006Z</time></trkpt><trkpt lat="44.816173341210884" lon="4.718528299245091"><ele>140.0</ele><time>2026-04-09T16:00:38.006Z</time></trkpt><trkpt lat="44.816210631293316" lon="4.718417858215897"><ele>140.0</ele><time>2026-04-09T16:00:41.006Z</time></trkpt><trkpt lat="44.81621675399122" lon="4.718318398897122"><ele>140.0</ele><time>2026-04-09T16:00:44.006Z</time></trkpt><trkpt lat="44.81622579145804" lon="4.71821457369687"><ele>140.0</ele><time>2026-04-09T16:00:47.006Z</time></trkpt><trkpt lat="44.81623473637581" lon="4.7181143227684865"><ele>140.0</ele><time>2026-04-09T16:00:50.006Z</time></trkpt><trkpt lat="44.81626563240073" lon="4.718019372482423"><ele>140.0</ele><time>2026-04-09T16:01:10.006Z</time></trkpt><trkpt lat="44.81632916155424" lon="4.717993892143171"><ele>140.0</ele><time>2026-04-09T16:02:31.006Z</time></trkpt><trkpt lat="44.81631830091199" lon="4.718088729019743"><ele>140.0</ele><time>2026-04-09T16:04:21.002Z</time></trkpt><trkpt lat="44.816302916335246" lon="4.718195427287139"><ele>140.0</ele><time>2026-04-09T16:04:24.002Z</time></trkpt><trkpt lat="44.816290551402375" lon="4.718284106910614"><ele>140.0</ele><time>2026-04-09T16:04:26.002Z</time></trkpt><trkpt lat="44.81626916929719" lon="4.71838420692227"><ele>140.0</ele><time>2026-04-09T16:04:28.002Z</time></trkpt><trkpt lat="44.8162436893528" lon="4.718480234773887"><ele>140.0</ele><time>2026-04-09T16:04:30.002Z</time></trkpt><trkpt lat="44.8162089610856" lon="4.718571526877853"><ele>140.0</ele><time>2026-04-09T16:04:32.002Z</time></trkpt><trkpt lat="44.816193034712846" lon="4.718670371947606"><ele>140.0</ele><time>2026-04-09T16:04:34.002Z</time></trkpt><trkpt lat="44.81618352930208" lon="4.718780816440918"><ele>137.6</ele><time>2026-04-09T16:04:36.002Z</time></trkpt><trkpt lat="44.81615304715523" lon="4.718899762968809"><ele>135.2</ele><time>2026-04-09T16:04:38.002Z</time></trkpt><trkpt lat="44.81614403378775" lon="4.719031126063262"><ele>132.8</ele><time>2026-04-09T16:04:40.002Z</time></trkpt><trkpt lat="44.81612418379799" lon="4.71915052556891"><ele>130.4</ele><time>2026-04-09T16:04:42.002Z</time></trkpt><trkpt lat="44.81610429192261" lon="4.719270365148472"><ele>128.0</ele><time>2026-04-09T16:04:44.002Z</time></trkpt><trkpt lat="44.81607980433204" lon="4.719395863575908"><ele>126.4</ele><time>2026-04-09T16:04:46.002Z</time></trkpt><trkpt lat="44.81605583383168" lon="4.719524814328499"><ele>124.80000000000001</ele><time>2026-04-09T16:04:48.002Z</time></trkpt><trkpt lat="44.81602635120296" lon="4.719667356302133"><ele>123.2</ele><time>2026-04-09T16:04:50.002Z</time></trkpt><trkpt lat="44.8160045823454" lon="4.719797329447063"><ele>121.6</ele><time>2026-04-09T16:04:52.002Z</time></trkpt><trkpt lat="44.81598016074113" lon="4.719929083838893"><ele>120.0</ele><time>2026-04-09T16:04:54.001Z</time></trkpt><trkpt lat="44.81595751388518" lon="4.720053393039059"><ele>123.66666666666667</ele><time>2026-04-09T16:04:56.002Z</time></trkpt><trkpt lat="44.815936437600264" lon="4.720176998145336"><ele>127.33333333333334</ele><time>2026-04-09T16:04:58.002Z</time></trkpt><trkpt lat="44.81591111600195" lon="4.720301624850689"><ele>131.0</ele><time>2026-04-09T16:05:00.001Z</time></trkpt><trkpt lat="44.815883326326905" lon="4.720426027082659"><ele>134.66666666666669</ele><time>2026-04-09T16:05:02.002Z</time></trkpt><trkpt lat="44.81586684318747" lon="4.720550913951784"><ele>138.33333333333334</ele><time>2026-04-09T16:05:04.002Z</time></trkpt><trkpt lat="44.81584330184929" lon="4.7206641231236235"><ele>142.0</ele><time>2026-04-09T16:05:06.002Z</time></trkpt><trkpt lat="44.81582519236463" lon="4.72078558198055"><ele>142.0</ele><time>2026-04-09T16:05:08.002Z</time></trkpt><trkpt lat="44.815815297141775" lon="4.720917121076256"><ele>142.0</ele><time>2026-04-09T16:05:10.002Z</time></trkpt><trkpt lat="44.815795394702484" lon="4.721049618285194"><ele>142.0</ele><time>2026-04-09T16:05:12.002Z</time></trkpt><trkpt lat="44.81577239752593" lon="4.7211791996870085"><ele>142.0</ele><time>2026-04-09T16:05:14.002Z</time></trkpt><trkpt lat="44.81574928287871" lon="4.721314596733439"><ele>142.0</ele><time>2026-04-09T16:05:16.002Z</time></trkpt><trkpt lat="44.81572556205483" lon="4.7214469808139565"><ele>141.6</ele><time>2026-04-09T16:05:18.002Z</time></trkpt><trkpt lat="44.81570300806331" lon="4.7215837166838215"><ele>141.2</ele><time>2026-04-09T16:05:20.002Z</time></trkpt><trkpt lat="44.815690935845986" lon="4.7217204360784235"><ele>140.8</ele><time>2026-04-09T16:05:22.002Z</time></trkpt><trkpt lat="44.81568664846046" lon="4.721853014482414"><ele>140.4</ele><time>2026-04-09T16:05:24.002Z</time></trkpt><trkpt lat="44.81568856714869" lon="4.721982447738936"><ele>140.0</ele><time>2026-04-09T16:05:26.002Z</time></trkpt><trkpt lat="44.81569177386862" lon="4.722118883437015"><ele>140.0</ele><time>2026-04-09T16:05:28.002Z</time></trkpt><trkpt lat="44.815698079097416" lon="4.7222335986880495"><ele>140.0</ele><time>2026-04-09T16:05:30.002Z</time></trkpt><trkpt lat="44.815714101867634" lon="4.722351652045376"><ele>140.0</ele><time>2026-04-09T16:05:32.002Z</time></trkpt><trkpt lat="44.815722910705645" lon="4.722466328471833"><ele>140.0</ele><time>2026-04-09T16:05:34.002Z</time></trkpt><trkpt lat="44.8157409891896" lon="4.722600632828199"><ele>140.0</ele><time>2026-04-09T16:05:36.002Z</time></trkpt><trkpt lat="44.815758683713405" lon="4.722720916778835"><ele>140.0</ele><time>2026-04-09T16:05:38.002Z</time></trkpt><trkpt lat="44.8157734960645" lon="4.7228494185382415"><ele>139.0</ele><time>2026-04-09T16:05:40.002Z</time></trkpt><trkpt lat="44.81579144790235" lon="4.722982488603412"><ele>138.0</ele><time>2026-04-09T16:05:42.002Z</time></trkpt><trkpt lat="44.81581789859267" lon="4.723117905522688"><ele>137.0</ele><time>2026-04-09T16:05:44.002Z</time></trkpt><trkpt lat="44.81582836023466" lon="4.723248353909218"><ele>136.0</ele><time>2026-04-09T16:05:46.002Z</time></trkpt><trkpt lat="44.81584799839336" lon="4.723387143608724"><ele>135.0</ele><time>2026-04-09T16:05:48.002Z</time></trkpt><trkpt lat="44.815861265944996" lon="4.72352733174636"><ele>136.4</ele><time>2026-04-09T16:05:50.002Z</time></trkpt><trkpt lat="44.81588235152156" lon="4.7236660339433545"><ele>137.8</ele><time>2026-04-09T16:05:52.002Z</time></trkpt><trkpt lat="44.81589930921793" lon="4.723805005935389"><ele>139.2</ele><time>2026-04-09T16:05:54.002Z</time></trkpt><trkpt lat="44.81590812733741" lon="4.723938209295204"><ele>140.6</ele><time>2026-04-09T16:05:56.002Z</time></trkpt><trkpt lat="44.81593531630002" lon="4.72406151879969"><ele>142.0</ele><time>2026-04-09T16:05:58.002Z</time></trkpt><trkpt lat="44.81594672441377" lon="4.724193077502323"><ele>142.0</ele><time>2026-04-09T16:06:00.002Z</time></trkpt><trkpt lat="44.815966743813775" lon="4.724325381736916"><ele>142.0</ele><time>2026-04-09T16:06:02.002Z</time></trkpt><trkpt lat="44.81598566542417" lon="4.724442478516024"><ele>142.0</ele><time>2026-04-09T16:06:04.002Z</time></trkpt><trkpt lat="44.81599984499023" lon="4.724582063480136"><ele>142.0</ele><time>2026-04-09T16:06:06.002Z</time></trkpt><trkpt lat="44.81601714517752" lon="4.724713991156511"><ele>142.0</ele><time>2026-04-09T16:06:08.002Z</time></trkpt><trkpt lat="44.816028040215045" lon="4.724839060500366"><ele>136.79999999999998</ele><time>2026-04-09T16:06:10.002Z</time></trkpt><trkpt lat="44.8160423326239" lon="4.724968742197851"><ele>131.6</ele><time>2026-04-09T16:06:12.002Z</time></trkpt><trkpt lat="44.81605432575969" lon="4.725094352412598"><ele>126.39999999999999</ele><time>2026-04-09T16:06:14.002Z</time></trkpt><trkpt lat="44.81605314857004" lon="4.725222345528881"><ele>121.19999999999999</ele><time>2026-04-09T16:06:16.003Z</time></trkpt><trkpt lat="44.81607134923758" lon="4.725356497231594"><ele>116.0</ele><time>2026-04-09T16:06:18.003Z</time></trkpt><trkpt lat="44.816082636468245" lon="4.725485890461815"><ele>116.0</ele><time>2026-04-09T16:06:20.003Z</time></trkpt><trkpt lat="44.816095436988824" lon="4.725617427287919"><ele>116.0</ele><time>2026-04-09T16:06:22.003Z</time></trkpt><trkpt lat="44.81610666945696" lon="4.725748681298977"><ele>116.0</ele><time>2026-04-09T16:06:24.003Z</time></trkpt><trkpt lat="44.81612361227758" lon="4.725890469537608"><ele>116.0</ele><time>2026-04-09T16:06:26.003Z</time></trkpt><trkpt lat="44.816143711817276" lon="4.7260272553379"><ele>116.0</ele><time>2026-04-09T16:06:28.003Z</time></trkpt><trkpt lat="44.81617858466898" lon="4.726149337243557"><ele>118.4</ele><time>2026-04-09T16:06:30.003Z</time></trkpt><trkpt lat="44.816216831476176" lon="4.7262818913041"><ele>120.8</ele><time>2026-04-09T16:06:32.003Z</time></trkpt><trkpt lat="44.816244189077395" lon="4.726416291519783"><ele>123.20000000000002</ele><time>2026-04-09T16:06:34.003Z</time></trkpt><trkpt lat="44.81630568393788" lon="4.726533066392889"><ele>125.60000000000001</ele><time>2026-04-09T16:06:36.003Z</time></trkpt><trkpt lat="44.81638026036411" lon="4.726640183512996"><ele>128.0</ele><time>2026-04-09T16:06:38.003Z</time></trkpt><trkpt lat="44.81645177418941" lon="4.7267537180435735"><ele>128.0</ele><time>2026-04-09T16:06:40.003Z</time></trkpt><trkpt lat="44.81652579609956" lon="4.726848129229035"><ele>128.0</ele><time>2026-04-09T16:06:42.003Z</time></trkpt><trkpt lat="44.816607137416476" lon="4.7269257107652445"><ele>128.0</ele><time>2026-04-09T16:06:44.003Z</time></trkpt><trkpt lat="44.81668392296545" lon="4.727000489481304"><ele>128.0</ele><time>2026-04-09T16:06:46.003Z</time></trkpt><trkpt lat="44.816761019766176" lon="4.727078263282213"><ele>128.0</ele><time>2026-04-09T16:06:48.003Z</time></trkpt><trkpt lat="44.81685237932736" lon="4.727143665757608"><ele>127.2</ele><time>2026-04-09T16:06:50.003Z</time></trkpt><trkpt lat="44.816934797015314" lon="4.72722755975578"><ele>126.4</ele><time>2026-04-09T16:06:52.003Z</time></trkpt><trkpt lat="44.817016455057725" lon="4.727305220228539"><ele>125.60000000000001</ele><time>2026-04-09T16:06:54.003Z</time></trkpt><trkpt lat="44.81709731873357" lon="4.727393188665903"><ele>124.80000000000001</ele><time>2026-04-09T16:06:56.003Z</time></trkpt><trkpt lat="44.81717457670132" lon="4.727478160767133"><ele>124.0</ele><time>2026-04-09T16:06:58.002Z</time></trkpt><trkpt lat="44.81724602099835" lon="4.727574412718085"><ele>124.0</ele><time>2026-04-09T16:07:00.002Z</time></trkpt><trkpt lat="44.817298427586735" lon="4.727682180389296"><ele>124.0</ele><time>2026-04-09T16:07:02.002Z</time></trkpt><trkpt lat="44.817350442410564" lon="4.727786303793395"><ele>124.0</ele><time>2026-04-09T16:07:04.002Z</time></trkpt><trkpt lat="44.81739277399865" lon="4.727904100140654"><ele>124.0</ele><time>2026-04-09T16:07:06.002Z</time></trkpt><trkpt lat="44.81743773354969" lon="4.728020507292278"><ele>124.0</ele><time>2026-04-09T16:07:08.001Z</time></trkpt><trkpt lat="44.81747908404595" lon="4.728139961522611"><ele>122.6</ele><time>2026-04-09T16:07:10.002Z</time></trkpt><trkpt lat="44.81752827105979" lon="4.728274785948603"><ele>121.2</ele><time>2026-04-09T16:07:12.002Z</time></trkpt><trkpt lat="44.81756146563787" lon="4.728400871123703"><ele>119.79999999999998</ele><time>2026-04-09T16:07:14.002Z</time></trkpt><trkpt lat="44.81760120113314" lon="4.728542385275344"><ele>118.39999999999999</ele><time>2026-04-09T16:07:16.002Z</time></trkpt><trkpt lat="44.81763221531965" lon="4.728677673427695"><ele>117.0</ele><time>2026-04-09T16:07:18.002Z</time></trkpt><trkpt lat="44.81766165880144" lon="4.728818518643739"><ele>117.0</ele><time>2026-04-09T16:07:20.002Z</time></trkpt><trkpt lat="44.817679581141434" lon="4.728955467485785"><ele>116.99999999999999</ele><time>2026-04-09T16:07:22.002Z</time></trkpt><trkpt lat="44.81769293756052" lon="4.729102333288869"><ele>116.99999999999999</ele><time>2026-04-09T16:07:24.002Z</time></trkpt><trkpt lat="44.81769227384624" lon="4.729243461661383"><ele>117.0</ele><time>2026-04-09T16:07:26.002Z</time></trkpt><trkpt lat="44.817703339796324" lon="4.729395420227637"><ele>117.0</ele><time>2026-04-09T16:07:28.002Z</time></trkpt><trkpt lat="44.817710447714596" lon="4.729533503216335"><ele>117.39999999999999</ele><time>2026-04-09T16:07:30.002Z</time></trkpt><trkpt lat="44.81772782689335" lon="4.729666297601203"><ele>117.79999999999998</ele><time>2026-04-09T16:07:32.002Z</time></trkpt><trkpt lat="44.81774553245347" lon="4.729805467995678"><ele>118.2</ele><time>2026-04-09T16:07:34.002Z</time></trkpt><trkpt lat="44.81775897081589" lon="4.729949033775558"><ele>118.6</ele><time>2026-04-09T16:07:36.002Z</time></trkpt><trkpt lat="44.81777243311036" lon="4.730095966994654"><ele>119.0</ele><time>2026-04-09T16:07:38.002Z</time></trkpt><trkpt lat="44.81777661561259" lon="4.730232892868458"><ele>120.0</ele><time>2026-04-09T16:07:40.002Z</time></trkpt><trkpt lat="44.8177901583798" lon="4.730378017390376"><ele>121.0</ele><time>2026-04-09T16:07:42.002Z</time></trkpt><trkpt lat="44.81778719667877" lon="4.7305148527998915"><ele>122.0</ele><time>2026-04-09T16:07:44.002Z</time></trkpt><trkpt lat="44.817802562413476" lon="4.730652618856796"><ele>123.0</ele><time>2026-04-09T16:07:46.002Z</time></trkpt><trkpt lat="44.81780259173434" lon="4.730799412331248"><ele>124.0</ele><time>2026-04-09T16:07:48.002Z</time></trkpt><trkpt lat="44.81782298528588" lon="4.73092763498722"><ele>124.4</ele><time>2026-04-09T16:07:50.002Z</time></trkpt><trkpt lat="44.817830009999405" lon="4.731070201416867"><ele>124.80000000000001</ele><time>2026-04-09T16:07:52.002Z</time></trkpt><trkpt lat="44.81784056893889" lon="4.731212158555078"><ele>125.19999999999999</ele><time>2026-04-09T16:07:54.002Z</time></trkpt><trkpt lat="44.81784641871081" lon="4.731346439885379"><ele>125.6</ele><time>2026-04-09T16:07:56.002Z</time></trkpt><trkpt lat="44.8178566706336" lon="4.731489494180575"><ele>126.0</ele><time>2026-04-09T16:07:58.002Z</time></trkpt><trkpt lat="44.817864378379454" lon="4.731634991667566"><ele>126.0</ele><time>2026-04-09T16:08:00.002Z</time></trkpt><trkpt lat="44.81787192946272" lon="4.731777541926827"><ele>126.0</ele><time>2026-04-09T16:08:02.003Z</time></trkpt><trkpt lat="44.817871397737605" lon="4.731903565003042"><ele>126.0</ele><time>2026-04-09T16:08:04.003Z</time></trkpt><trkpt lat="44.817900709206874" lon="4.732052452638964"><ele>126.0</ele><time>2026-04-09T16:08:06.003Z</time></trkpt><trkpt lat="44.817915805631934" lon="4.7321888928963105"><ele>126.0</ele><time>2026-04-09T16:08:08.003Z</time></trkpt><trkpt lat="44.817927205875435" lon="4.7323256131075535"><ele>126.0</ele><time>2026-04-09T16:08:10.003Z</time></trkpt><trkpt lat="44.81792901769932" lon="4.732460980498153"><ele>126.0</ele><time>2026-04-09T16:08:12.003Z</time></trkpt><trkpt lat="44.817938628130925" lon="4.732589998153751"><ele>126.0</ele><time>2026-04-09T16:08:14.003Z</time></trkpt><trkpt lat="44.81794400252059" lon="4.732722556148999"><ele>126.0</ele><time>2026-04-09T16:08:16.003Z</time></trkpt><trkpt lat="44.81794824568526" lon="4.732850523493343"><ele>126.0</ele><time>2026-04-09T16:08:18.003Z</time></trkpt><trkpt lat="44.817963159941094" lon="4.732979528073533"><ele>126.0</ele><time>2026-04-09T16:08:20.003Z</time></trkpt><trkpt lat="44.817966354498424" lon="4.733106406551271"><ele>126.0</ele><time>2026-04-09T16:08:22.003Z</time></trkpt><trkpt lat="44.817964724078735" lon="4.733235569457079"><ele>126.0</ele><time>2026-04-09T16:08:24.003Z</time></trkpt><trkpt lat="44.81797894769373" lon="4.733373941910854"><ele>126.0</ele><time>2026-04-09T16:08:26.003Z</time></trkpt><trkpt lat="44.817986727644815" lon="4.733515613131014"><ele>126.0</ele><time>2026-04-09T16:08:28.003Z</time></trkpt><trkpt lat="44.81799580833817" lon="4.733656231950651"><ele>125.19999999999999</ele><time>2026-04-09T16:08:30.003Z</time></trkpt><trkpt lat="44.818004028379896" lon="4.733798962184138"><ele>124.39999999999999</ele><time>2026-04-09T16:08:32.003Z</time></trkpt><trkpt lat="44.81801306976991" lon="4.733940731553707"><ele>123.6</ele><time>2026-04-09T16:08:34.003Z</time></trkpt><trkpt lat="44.81802463833254" lon="4.734072315385963"><ele>122.8</ele><time>2026-04-09T16:08:36.003Z</time></trkpt><trkpt lat="44.81802828900659" lon="4.734210848083638"><ele>122.0</ele><time>2026-04-09T16:08:38.003Z</time></trkpt><trkpt lat="44.8180297039255" lon="4.734348823971048"><ele>122.0</ele><time>2026-04-09T16:08:40.003Z</time></trkpt><trkpt lat="44.81803161879264" lon="4.734497522327619"><ele>121.99999999999999</ele><time>2026-04-09T16:08:42.003Z</time></trkpt><trkpt lat="44.818028665006345" lon="4.73462772138205"><ele>121.99999999999999</ele><time>2026-04-09T16:08:44.003Z</time></trkpt><trkpt lat="44.81802367138418" lon="4.734762300663518"><ele>122.0</ele><time>2026-04-09T16:08:46.003Z</time></trkpt><trkpt lat="44.817995474023945" lon="4.734893442867339"><ele>122.0</ele><time>2026-04-09T16:08:48.003Z</time></trkpt><trkpt lat="44.817980544905" lon="4.735032688838183"><ele>121.99999999999999</ele><time>2026-04-09T16:08:50.003Z</time></trkpt><trkpt lat="44.81796049098129" lon="4.735150110313307"><ele>122.0</ele><time>2026-04-09T16:08:52.003Z</time></trkpt><trkpt lat="44.8179388114302" lon="4.73527169856423"><ele>122.0</ele><time>2026-04-09T16:08:54.003Z</time></trkpt><trkpt lat="44.817908437875104" lon="4.735375050786982"><ele>122.0</ele><time>2026-04-09T16:08:56.003Z</time></trkpt><trkpt lat="44.8178735018796" lon="4.735465285775234"><ele>121.99999999999999</ele><time>2026-04-09T16:08:58.003Z</time></trkpt><trkpt lat="44.81786194860044" lon="4.735557578303719"><ele>122.0</ele><time>2026-04-09T16:09:00.003Z</time></trkpt><trkpt lat="44.81784048725826" lon="4.735644741184167"><ele>121.6</ele><time>2026-04-09T16:09:02.003Z</time></trkpt><trkpt lat="44.817798672875696" lon="4.735774654406313"><ele>121.19999999999999</ele><time>2026-04-09T16:09:04.003Z</time></trkpt><trkpt lat="44.81776795815271" lon="4.735909759761071"><ele>120.8</ele><time>2026-04-09T16:09:06.001Z</time></trkpt><trkpt lat="44.81773880786374" lon="4.736044777794848"><ele>120.4</ele><time>2026-04-09T16:09:08.002Z</time></trkpt><trkpt lat="44.81771104108097" lon="4.736164790821803"><ele>120.0</ele><time>2026-04-09T16:09:10.003Z</time></trkpt><trkpt lat="44.81767377084183" lon="4.736313642111464"><ele>122.4</ele><time>2026-04-09T16:09:12.001Z</time></trkpt><trkpt lat="44.817650704108246" lon="4.736451873529058"><ele>124.8</ele><time>2026-04-09T16:09:14.002Z</time></trkpt><trkpt lat="44.81762750108934" lon="4.736590627571842"><ele>127.19999999999999</ele><time>2026-04-09T16:09:16.002Z</time></trkpt><trkpt lat="44.8176192474701" lon="4.736725920804129"><ele>129.6</ele><time>2026-04-09T16:09:18.002Z</time></trkpt><trkpt lat="44.81760811104477" lon="4.736855200006603"><ele>132.0</ele><time>2026-04-09T16:09:20.002Z</time></trkpt><trkpt lat="44.817607198451775" lon="4.7369954111340675"><ele>132.0</ele><time>2026-04-09T16:09:22.002Z</time></trkpt><trkpt lat="44.81761017067137" lon="4.737129569344837"><ele>132.0</ele><time>2026-04-09T16:09:24.002Z</time></trkpt><trkpt lat="44.81762056457413" lon="4.737266326526841"><ele>132.0</ele><time>2026-04-09T16:09:26.002Z</time></trkpt><trkpt lat="44.81762882920629" lon="4.737401804086284"><ele>132.0</ele><time>2026-04-09T16:09:28.002Z</time></trkpt><trkpt lat="44.81764657403928" lon="4.737537295774785"><ele>132.0</ele><time>2026-04-09T16:09:30.002Z</time></trkpt><trkpt lat="44.81768122560139" lon="4.737678152239272"><ele>129.4</ele><time>2026-04-09T16:09:32.002Z</time></trkpt><trkpt lat="44.817708899324124" lon="4.7378118328806655"><ele>126.79999999999998</ele><time>2026-04-09T16:09:34.002Z</time></trkpt><trkpt lat="44.81773875545164" lon="4.737949570507921"><ele>124.2</ele><time>2026-04-09T16:09:36.002Z</time></trkpt><trkpt lat="44.81776444466915" lon="4.7380798224024545"><ele>121.6</ele><time>2026-04-09T16:09:38.002Z</time></trkpt><trkpt lat="44.817796507562626" lon="4.738212062865432"><ele>119.0</ele><time>2026-04-09T16:09:40.002Z</time></trkpt><trkpt lat="44.81780754470521" lon="4.738346800085987"><ele>118.99999999999999</ele><time>2026-04-09T16:09:42.002Z</time></trkpt><trkpt lat="44.81781587782248" lon="4.738481465399231"><ele>119.0</ele><time>2026-04-09T16:09:44.002Z</time></trkpt><trkpt lat="44.817817698681665" lon="4.7385992994779285"><ele>119.0</ele><time>2026-04-09T16:09:46.002Z</time></trkpt><trkpt lat="44.817806060308456" lon="4.738725733429458"><ele>119.0</ele><time>2026-04-09T16:09:48.002Z</time></trkpt><trkpt lat="44.817785045839024" lon="4.7388413036456285"><ele>118.99999999999999</ele><time>2026-04-09T16:09:50.002Z</time></trkpt><trkpt lat="44.817755217227486" lon="4.73894732127628"><ele>119.0</ele><time>2026-04-09T16:09:52.002Z</time></trkpt><trkpt lat="44.8177163513072" lon="4.739032187385347"><ele>118.99999999999999</ele><time>2026-04-09T16:09:54.002Z</time></trkpt><trkpt lat="44.817661533099184" lon="4.739122525527977"><ele>119.0</ele><time>2026-04-09T16:09:56.002Z</time></trkpt><trkpt lat="44.81761044491415" lon="4.739233329041498"><ele>119.0</ele><time>2026-04-09T16:09:58.002Z</time></trkpt><trkpt lat="44.81755209356631" lon="4.739334789929292"><ele>119.0</ele><time>2026-04-09T16:10:00.002Z</time></trkpt><trkpt lat="44.81749247857197" lon="4.739418668104189"><ele>118.99999999999999</ele><time>2026-04-09T16:10:02.002Z</time></trkpt><trkpt lat="44.817429467843816" lon="4.739492769500939"><ele>119.0</ele><time>2026-04-09T16:10:04.002Z</time></trkpt><trkpt lat="44.81737654138392" lon="4.739583046770843"><ele>119.49999999999999</ele><time>2026-04-09T16:10:06.002Z</time></trkpt><trkpt lat="44.817317605913686" lon="4.739653779329566"><ele>120.0</ele><time>2026-04-09T16:10:08.002Z</time></trkpt><trkpt lat="44.81725396829652" lon="4.739722206302299"><ele>120.5</ele><time>2026-04-09T16:10:10.002Z</time></trkpt><trkpt lat="44.81718625707972" lon="4.739790647293388"><ele>121.0</ele><time>2026-04-09T16:10:12.002Z</time></trkpt><trkpt lat="44.81712600715809" lon="4.739859085982572"><ele>121.49999999999999</ele><time>2026-04-09T16:10:14.002Z</time></trkpt><trkpt lat="44.817061052103476" lon="4.7399193553509456"><ele>122.0</ele><time>2026-04-09T16:10:16.003Z</time></trkpt><trkpt lat="44.81699373181493" lon="4.73998873918243"><ele>121.99999999999999</ele><time>2026-04-09T16:10:18.003Z</time></trkpt><trkpt lat="44.81695664507268" lon="4.740067762309389"><ele>122.0</ele><time>2026-04-09T16:10:20.003Z</time></trkpt><trkpt lat="44.816915246584614" lon="4.740151422117919"><ele>122.0</ele><time>2026-04-09T16:10:22.003Z</time></trkpt><trkpt lat="44.81685629712268" lon="4.740266114550116"><ele>122.0</ele><time>2026-04-09T16:10:24.003Z</time></trkpt><trkpt lat="44.81682696856014" lon="4.7403748222904705"><ele>121.99999999999999</ele><time>2026-04-09T16:10:26.003Z</time></trkpt><trkpt lat="44.816785631708406" lon="4.740486423963228"><ele>122.0</ele><time>2026-04-09T16:10:28.003Z</time></trkpt><trkpt lat="44.81673667245454" lon="4.74059375373491"><ele>122.99999999999999</ele><time>2026-04-09T16:10:30.003Z</time></trkpt><trkpt lat="44.81669687373024" lon="4.740695637130514"><ele>124.0</ele><time>2026-04-09T16:10:32.003Z</time></trkpt><trkpt lat="44.816664985587636" lon="4.740820628837586"><ele>125.0</ele><time>2026-04-09T16:10:34.003Z</time></trkpt><trkpt lat="44.81662601144019" lon="4.740934209821605"><ele>126.0</ele><time>2026-04-09T16:10:36.003Z</time></trkpt><trkpt lat="44.81658566198595" lon="4.741039786132866"><ele>126.99999999999999</ele><time>2026-04-09T16:10:38.003Z</time></trkpt><trkpt lat="44.816558119629356" lon="4.741156561437823"><ele>128.0</ele><time>2026-04-09T16:10:40.003Z</time></trkpt><trkpt lat="44.816522824390574" lon="4.741269783076502"><ele>127.99999999999999</ele><time>2026-04-09T16:10:42.003Z</time></trkpt><trkpt lat="44.816491929412805" lon="4.741379625660313"><ele>128.0</ele><time>2026-04-09T16:10:44.003Z</time></trkpt><trkpt lat="44.81646354835937" lon="4.741494901576619"><ele>128.0</ele><time>2026-04-09T16:10:46.003Z</time></trkpt><trkpt lat="44.81644637421665" lon="4.741614618379506"><ele>128.0</ele><time>2026-04-09T16:10:48.003Z</time></trkpt><trkpt lat="44.81643485302279" lon="4.741731105070816"><ele>127.99999999999999</ele><time>2026-04-09T16:10:50.003Z</time></trkpt><trkpt lat="44.81642279089033" lon="4.741846247408377"><ele>128.0</ele><time>2026-04-09T16:10:52.003Z</time></trkpt><trkpt lat="44.81642768201464" lon="4.74198018074534"><ele>128.16666666666666</ele><time>2026-04-09T16:10:54.003Z</time></trkpt><trkpt lat="44.81643316760558" lon="4.742106193332943"><ele>128.33333333333331</ele><time>2026-04-09T16:10:56.003Z</time></trkpt><trkpt lat="44.8164320063619" lon="4.74222987900371"><ele>128.5</ele><time>2026-04-09T16:10:58.003Z</time></trkpt><trkpt lat="44.816434325292576" lon="4.742353284842456"><ele>128.66666666666666</ele><time>2026-04-09T16:11:00.003Z</time></trkpt><trkpt lat="44.816432651889414" lon="4.742470220579413"><ele>128.83333333333334</ele><time>2026-04-09T16:11:02.003Z</time></trkpt><trkpt lat="44.816439994744684" lon="4.7425967279498025"><ele>129.0</ele><time>2026-04-09T16:11:04.003Z</time></trkpt><trkpt lat="44.81644554778583" lon="4.742709923122659"><ele>128.83333333333334</ele><time>2026-04-09T16:11:06.003Z</time></trkpt><trkpt lat="44.81644971537681" lon="4.742828903553551"><ele>128.66666666666666</ele><time>2026-04-09T16:11:08.003Z</time></trkpt><trkpt lat="44.81644809675518" lon="4.742951481732723"><ele>128.5</ele><time>2026-04-09T16:11:10.002Z</time></trkpt><trkpt lat="44.81644652242695" lon="4.743071291551555"><ele>128.33333333333331</ele><time>2026-04-09T16:11:12.003Z</time></trkpt><trkpt lat="44.816459634059996" lon="4.743191090992155"><ele>128.16666666666666</ele><time>2026-04-09T16:11:14.002Z</time></trkpt><trkpt lat="44.816457847469536" lon="4.743306017938125"><ele>128.0</ele><time>2026-04-09T16:11:16.002Z</time></trkpt><trkpt lat="44.81645656253765" lon="4.743423584430839"><ele>127.66666666666666</ele><time>2026-04-09T16:11:18.002Z</time></trkpt><trkpt lat="44.81645774977949" lon="4.743549577646974"><ele>127.33333333333333</ele><time>2026-04-09T16:11:20.002Z</time></trkpt><trkpt lat="44.81645524200549" lon="4.743680743815218"><ele>127.0</ele><time>2026-04-09T16:11:22.002Z</time></trkpt><trkpt lat="44.81645554457112" lon="4.743803018954402"><ele>126.66666666666666</ele><time>2026-04-09T16:11:24.003Z</time></trkpt><trkpt lat="44.81644649135406" lon="4.743929433607767"><ele>126.33333333333333</ele><time>2026-04-09T16:11:26.003Z</time></trkpt><trkpt lat="44.816433851958884" lon="4.7440513523665"><ele>126.0</ele><time>2026-04-09T16:11:28.003Z</time></trkpt><trkpt lat="44.81641284819388" lon="4.7441642213218636"><ele>126.0</ele><time>2026-04-09T16:11:30.003Z</time></trkpt><trkpt lat="44.81639345814619" lon="4.744288283863957"><ele>126.0</ele><time>2026-04-09T16:11:32.003Z</time></trkpt><trkpt lat="44.81636210266032" lon="4.744416137557259"><ele>126.0</ele><time>2026-04-09T16:11:34.003Z</time></trkpt><trkpt lat="44.81633671178174" lon="4.744541718540785"><ele>126.0</ele><time>2026-04-09T16:11:36.003Z</time></trkpt><trkpt lat="44.81631115398937" lon="4.74466739290421"><ele>126.0</ele><time>2026-04-09T16:11:38.003Z</time></trkpt><trkpt lat="44.81629670904421" lon="4.744798235144627"><ele>124.8</ele><time>2026-04-09T16:11:40.003Z</time></trkpt><trkpt lat="44.81626164827042" lon="4.744930767427287"><ele>123.6</ele><time>2026-04-09T16:11:42.003Z</time></trkpt><trkpt lat="44.81623936506503" lon="4.745066139939587"><ele>122.4</ele><time>2026-04-09T16:11:44.003Z</time></trkpt><trkpt lat="44.81621493678219" lon="4.745182064305588"><ele>121.2</ele><time>2026-04-09T16:11:46.003Z</time></trkpt><trkpt lat="44.81619048102277" lon="4.7453130572543945"><ele>120.0</ele><time>2026-04-09T16:11:48.003Z</time></trkpt><trkpt lat="44.81616601883643" lon="4.745435793911372"><ele>119.2</ele><time>2026-04-09T16:11:50.003Z</time></trkpt><trkpt lat="44.8161419011209" lon="4.745560862438534"><ele>118.4</ele><time>2026-04-09T16:11:52.003Z</time></trkpt><trkpt lat="44.81611380303038" lon="4.745704872334358"><ele>117.6</ele><time>2026-04-09T16:11:54.003Z</time></trkpt><trkpt lat="44.81609135807695" lon="4.745851999695677"><ele>116.8</ele><time>2026-04-09T16:11:56.003Z</time></trkpt><trkpt lat="44.81606654775835" lon="4.745987038839311"><ele>116.0</ele><time>2026-04-09T16:11:58.003Z</time></trkpt><trkpt lat="44.81604794431567" lon="4.7461312343982565"><ele>116.0</ele><time>2026-04-09T16:12:00.003Z</time></trkpt><trkpt lat="44.8160309512685" lon="4.746262564205997"><ele>116.0</ele><time>2026-04-09T16:12:02.003Z</time></trkpt><trkpt lat="44.81605111493707" lon="4.746412851226824"><ele>116.0</ele><time>2026-04-09T16:12:04.003Z</time></trkpt><trkpt lat="44.81606255716761" lon="4.746535737433788"><ele>116.0</ele><time>2026-04-09T16:12:06.003Z</time></trkpt><trkpt lat="44.81608887182532" lon="4.746670196203882"><ele>116.0</ele><time>2026-04-09T16:12:08.003Z</time></trkpt><trkpt lat="44.81610181285943" lon="4.746807296878769"><ele>116.0</ele><time>2026-04-09T16:12:10.003Z</time></trkpt><trkpt lat="44.81613240060265" lon="4.746955656169512"><ele>116.0</ele><time>2026-04-09T16:12:12.003Z</time></trkpt><trkpt lat="44.8161622046169" lon="4.747095185061322"><ele>116.0</ele><time>2026-04-09T16:12:14.003Z</time></trkpt><trkpt lat="44.816211716931925" lon="4.747237265134335"><ele>116.0</ele><time>2026-04-09T16:12:16.003Z</time></trkpt><trkpt lat="44.816261956926176" lon="4.747388832324806"><ele>116.0</ele><time>2026-04-09T16:12:18.003Z</time></trkpt><trkpt lat="44.81628017786531" lon="4.747477302472626"><ele>116.0</ele><time>2026-04-09T16:12:19.003Z</time></trkpt><trkpt lat="44.81632732940547" lon="4.747636569142117"><ele>116.0</ele><time>2026-04-09T16:12:21.003Z</time></trkpt><trkpt lat="44.8163657140401" lon="4.747785630991904"><ele>116.0</ele><time>2026-04-09T16:12:23.003Z</time></trkpt><trkpt lat="44.81640735195835" lon="4.747928791012319"><ele>116.0</ele><time>2026-04-09T16:12:25.003Z</time></trkpt><trkpt lat="44.81643972107886" lon="4.748056126494481"><ele>116.0</ele><time>2026-04-09T16:12:27.003Z</time></trkpt><trkpt lat="44.81646585361311" lon="4.748189828814855"><ele>117.8</ele><time>2026-04-09T16:12:29.003Z</time></trkpt><trkpt lat="44.81649394051077" lon="4.748311867538589"><ele>119.6</ele><time>2026-04-09T16:12:31.003Z</time></trkpt><trkpt lat="44.81651271136423" lon="4.74846173443235"><ele>121.4</ele><time>2026-04-09T16:12:33.003Z</time></trkpt><trkpt lat="44.81652600912786" lon="4.748614324769068"><ele>123.2</ele><time>2026-04-09T16:12:35.003Z</time></trkpt><trkpt lat="44.81653602444705" lon="4.748751568872001"><ele>125.0</ele><time>2026-04-09T16:12:37.003Z</time></trkpt><trkpt lat="44.816545971480025" lon="4.748891515543958"><ele>126.0</ele><time>2026-04-09T16:12:39.003Z</time></trkpt><trkpt lat="44.81656676490895" lon="4.749031060264296"><ele>127.0</ele><time>2026-04-09T16:12:41.003Z</time></trkpt><trkpt lat="44.816571968409804" lon="4.749172310343756"><ele>128.0</ele><time>2026-04-09T16:12:43.003Z</time></trkpt><trkpt lat="44.81657849657079" lon="4.749320620431345"><ele>129.0</ele><time>2026-04-09T16:12:45.003Z</time></trkpt><trkpt lat="44.816596123195225" lon="4.749485522681942"><ele>130.0</ele><time>2026-04-09T16:12:47.003Z</time></trkpt><trkpt lat="44.816613811454296" lon="4.749636329940865"><ele>130.8</ele><time>2026-04-09T16:12:49.003Z</time></trkpt><trkpt lat="44.81663460248654" lon="4.74978438940623"><ele>131.6</ele><time>2026-04-09T16:12:51.003Z</time></trkpt><trkpt lat="44.81667082993898" lon="4.74992365657357"><ele>132.4</ele><time>2026-04-09T16:12:53.003Z</time></trkpt><trkpt lat="44.81670476643296" lon="4.750068359724301"><ele>133.2</ele><time>2026-04-09T16:12:55.003Z</time></trkpt><trkpt lat="44.81673190826377" lon="4.750198596377908"><ele>134.0</ele><time>2026-04-09T16:12:57.003Z</time></trkpt><trkpt lat="44.81678451801112" lon="4.750319936985044"><ele>130.6</ele><time>2026-04-09T16:12:59.003Z</time></trkpt><trkpt lat="44.81684217885679" lon="4.750427291946559"><ele>127.2</ele><time>2026-04-09T16:13:01.003Z</time></trkpt><trkpt lat="44.816889976795984" lon="4.750554286351947"><ele>123.79999999999998</ele><time>2026-04-09T16:13:03.003Z</time></trkpt><trkpt lat="44.81696450814428" lon="4.750679958575414"><ele>120.39999999999999</ele><time>2026-04-09T16:13:05.003Z</time></trkpt><trkpt lat="44.817039674517204" lon="4.750782077895724"><ele>117.0</ele><time>2026-04-09T16:13:07.003Z</time></trkpt><trkpt lat="44.81712001069979" lon="4.750906558864604"><ele>117.0</ele><time>2026-04-09T16:13:09.003Z</time></trkpt><trkpt lat="44.81719807530345" lon="4.751016811452143"><ele>116.99999999999999</ele><time>2026-04-09T16:13:11.003Z</time></trkpt><trkpt lat="44.81724811894649" lon="4.751072545016747"><ele>116.99999999999999</ele><time>2026-04-09T16:13:12.003Z</time></trkpt><trkpt lat="44.81732637344082" lon="4.751197684299285"><ele>117.0</ele><time>2026-04-09T16:13:14.003Z</time></trkpt><trkpt lat="44.81739470116771" lon="4.7513066134926785"><ele>117.0</ele><time>2026-04-09T16:13:16.002Z</time></trkpt><trkpt lat="44.817465676990174" lon="4.751419439687503"><ele>116.6</ele><time>2026-04-09T16:13:18.003Z</time></trkpt><trkpt lat="44.81751817274671" lon="4.751547985225895"><ele>116.19999999999999</ele><time>2026-04-09T16:13:20.003Z</time></trkpt><trkpt lat="44.81756490579424" lon="4.751677388127922"><ele>115.8</ele><time>2026-04-09T16:13:22.003Z</time></trkpt><trkpt lat="44.81762163359325" lon="4.751795994707416"><ele>115.4</ele><time>2026-04-09T16:13:24.003Z</time></trkpt><trkpt lat="44.817670415555696" lon="4.751920365162987"><ele>115.0</ele><time>2026-04-09T16:13:26.002Z</time></trkpt><trkpt lat="44.817726967862704" lon="4.752050814969112"><ele>115.0</ele><time>2026-04-09T16:13:28.002Z</time></trkpt><trkpt lat="44.81777247701556" lon="4.752172024531282"><ele>115.0</ele><time>2026-04-09T16:13:30.003Z</time></trkpt><trkpt lat="44.81782242990384" lon="4.752297362779308"><ele>115.0</ele><time>2026-04-09T16:13:32.003Z</time></trkpt><trkpt lat="44.817879686799316" lon="4.752418172475769"><ele>115.0</ele><time>2026-04-09T16:13:34.003Z</time></trkpt><trkpt lat="44.81792016832494" lon="4.752547470619839"><ele>115.0</ele><time>2026-04-09T16:13:36.003Z</time></trkpt><trkpt lat="44.81798115820291" lon="4.752674310361017"><ele>117.0</ele><time>2026-04-09T16:13:38.003Z</time></trkpt><trkpt lat="44.818040551607204" lon="4.752796690210024"><ele>119.0</ele><time>2026-04-09T16:13:40.003Z</time></trkpt><trkpt lat="44.81810534264277" lon="4.752906326076525"><ele>121.0</ele><time>2026-04-09T16:13:42.003Z</time></trkpt><trkpt lat="44.81815181372821" lon="4.753031193666131"><ele>123.0</ele><time>2026-04-09T16:13:44.003Z</time></trkpt><trkpt lat="44.818201579240835" lon="4.753154888751374"><ele>125.0</ele><time>2026-04-09T16:13:46.003Z</time></trkpt><trkpt lat="44.81826107009165" lon="4.753275653528352"><ele>125.0</ele><time>2026-04-09T16:13:48.003Z</time></trkpt><trkpt lat="44.818316663712224" lon="4.753403279244702"><ele>125.0</ele><time>2026-04-09T16:13:50.003Z</time></trkpt><trkpt lat="44.818371485762064" lon="4.7535286860242305"><ele>125.0</ele><time>2026-04-09T16:13:52.003Z</time></trkpt><trkpt lat="44.81842757479368" lon="4.753650425355963"><ele>125.0</ele><time>2026-04-09T16:13:54.003Z</time></trkpt><trkpt lat="44.818482109413935" lon="4.753770931579266"><ele>125.0</ele><time>2026-04-09T16:13:56.003Z</time></trkpt><trkpt lat="44.818539190991196" lon="4.753896381586087"><ele>123.4</ele><time>2026-04-09T16:13:58.003Z</time></trkpt><trkpt lat="44.818597498192084" lon="4.754025571864191"><ele>121.8</ele><time>2026-04-09T16:14:00.003Z</time></trkpt><trkpt lat="44.81864526148928" lon="4.7541479936471225"><ele>120.19999999999999</ele><time>2026-04-09T16:14:02.003Z</time></trkpt><trkpt lat="44.81870598289043" lon="4.754267688018222"><ele>118.6</ele><time>2026-04-09T16:14:04.003Z</time></trkpt><trkpt lat="44.81875131681954" lon="4.754385742338875"><ele>117.0</ele><time>2026-04-09T16:14:06.003Z</time></trkpt><trkpt lat="44.81878951003107" lon="4.75450812237705"><ele>117.0</ele><time>2026-04-09T16:14:08.003Z</time></trkpt><trkpt lat="44.8188186507979" lon="4.754636863289615"><ele>116.99999999999999</ele><time>2026-04-09T16:14:10.003Z</time></trkpt><trkpt lat="44.818849594021586" lon="4.754769411887481"><ele>116.99999999999999</ele><time>2026-04-09T16:14:12.003Z</time></trkpt><trkpt lat="44.81888480185229" lon="4.754915432315264"><ele>117.0</ele><time>2026-04-09T16:14:14.003Z</time></trkpt><trkpt lat="44.818916075644175" lon="4.7550638716223625"><ele>117.0</ele><time>2026-04-09T16:14:16.003Z</time></trkpt><trkpt lat="44.818945908896225" lon="4.755210924538751"><ele>119.0</ele><time>2026-04-09T16:14:18.003Z</time></trkpt><trkpt lat="44.81897635744784" lon="4.75534458148989"><ele>120.99999999999999</ele><time>2026-04-09T16:14:20.003Z</time></trkpt><trkpt lat="44.81901787500252" lon="4.755464850489649"><ele>122.99999999999999</ele><time>2026-04-09T16:14:22.003Z</time></trkpt><trkpt lat="44.81903264835708" lon="4.755589109648233"><ele>125.0</ele><time>2026-04-09T16:14:24.003Z</time></trkpt><trkpt lat="44.819059408115606" lon="4.755714986448732"><ele>127.0</ele><time>2026-04-09T16:14:26.003Z</time></trkpt><trkpt lat="44.81908148355472" lon="4.755833833443645"><ele>127.00000000000001</ele><time>2026-04-09T16:14:28.003Z</time></trkpt><trkpt lat="44.81911919660553" lon="4.755946095099895"><ele>127.0</ele><time>2026-04-09T16:14:30.003Z</time></trkpt><trkpt lat="44.81914031649703" lon="4.7560645821952585"><ele>127.0</ele><time>2026-04-09T16:14:32.003Z</time></trkpt><trkpt lat="44.81916640277519" lon="4.756185443535505"><ele>127.0</ele><time>2026-04-09T16:14:34.003Z</time></trkpt><trkpt lat="44.81918427243601" lon="4.756304926152375"><ele>127.00000000000001</ele><time>2026-04-09T16:14:36.003Z</time></trkpt><trkpt lat="44.819214153145936" lon="4.756431522363532"><ele>127.0</ele><time>2026-04-09T16:14:38.003Z</time></trkpt><trkpt lat="44.81923124577216" lon="4.756552580583205"><ele>128.16666666666669</ele><time>2026-04-09T16:14:40.003Z</time></trkpt><trkpt lat="44.819244093478275" lon="4.756674493638869"><ele>129.33333333333334</ele><time>2026-04-09T16:14:42.003Z</time></trkpt><trkpt lat="44.81925805930062" lon="4.7567962637569625"><ele>130.5</ele><time>2026-04-09T16:14:44.003Z</time></trkpt><trkpt lat="44.81926121216812" lon="4.756911333863756"><ele>131.66666666666666</ele><time>2026-04-09T16:14:46.003Z</time></trkpt><trkpt lat="44.81926054854303" lon="4.75702436285647"><ele>132.83333333333331</ele><time>2026-04-09T16:14:48.003Z</time></trkpt><trkpt lat="44.81925273041039" lon="4.757148163170602"><ele>134.0</ele><time>2026-04-09T16:14:50.003Z</time></trkpt><trkpt lat="44.81924745472024" lon="4.757270547212495"><ele>134.33333333333331</ele><time>2026-04-09T16:14:52.003Z</time></trkpt><trkpt lat="44.819244273794524" lon="4.757383376951542"><ele>134.66666666666666</ele><time>2026-04-09T16:14:54.003Z</time></trkpt><trkpt lat="44.819240687403486" lon="4.757496345881601"><ele>135.0</ele><time>2026-04-09T16:14:56.003Z</time></trkpt><trkpt lat="44.81922839544414" lon="4.757616087622095"><ele>135.33333333333334</ele><time>2026-04-09T16:14:58.003Z</time></trkpt><trkpt lat="44.81922098764954" lon="4.757742293514017"><ele>135.66666666666669</ele><time>2026-04-09T16:15:00.003Z</time></trkpt><trkpt lat="44.81922543424676" lon="4.757861595867118"><ele>136.0</ele><time>2026-04-09T16:15:02.003Z</time></trkpt><trkpt lat="44.81922104529636" lon="4.757986532777082"><ele>136.4</ele><time>2026-04-09T16:15:04.003Z</time></trkpt><trkpt lat="44.81923723260323" lon="4.758110058401717"><ele>136.8</ele><time>2026-04-09T16:15:06.003Z</time></trkpt><trkpt lat="44.81924941179123" lon="4.758236917519652"><ele>137.20000000000002</ele><time>2026-04-09T16:15:08.003Z</time></trkpt><trkpt lat="44.819276513618256" lon="4.758364005216577"><ele>137.6</ele><time>2026-04-09T16:15:10.004Z</time></trkpt><trkpt lat="44.81930908038311" lon="4.758490659783436"><ele>138.0</ele><time>2026-04-09T16:15:12.004Z</time></trkpt><trkpt lat="44.81934259029593" lon="4.758607751572962"><ele>131.8</ele><time>2026-04-09T16:15:14.004Z</time></trkpt><trkpt lat="44.819384902034095" lon="4.758729003461712"><ele>125.60000000000001</ele><time>2026-04-09T16:15:16.004Z</time></trkpt><trkpt lat="44.819424909579425" lon="4.758844319321551"><ele>119.39999999999999</ele><time>2026-04-09T16:15:18.004Z</time></trkpt><trkpt lat="44.81946488552623" lon="4.758957834070986"><ele>113.19999999999999</ele><time>2026-04-09T16:15:20.004Z</time></trkpt><trkpt lat="44.81949278868412" lon="4.759079140396726"><ele>107.0</ele><time>2026-04-09T16:15:22.003Z</time></trkpt><trkpt lat="44.81952470098799" lon="4.759193246150417"><ele>107.0</ele><time>2026-04-09T16:15:24.003Z</time></trkpt><trkpt lat="44.81954986565688" lon="4.759315692390031"><ele>106.99999999999999</ele><time>2026-04-09T16:15:26.003Z</time></trkpt><trkpt lat="44.81957295246255" lon="4.759430721558265"><ele>106.99999999999999</ele><time>2026-04-09T16:15:28.003Z</time></trkpt><trkpt lat="44.81959357955984" lon="4.759563523699866"><ele>107.0</ele><time>2026-04-09T16:15:30.002Z</time></trkpt><trkpt lat="44.81960864093257" lon="4.759692275730158"><ele>107.0</ele><time>2026-04-09T16:15:32.003Z</time></trkpt><trkpt lat="44.81960500976609" lon="4.759821583153586"><ele>107.49999999999999</ele><time>2026-04-09T16:15:34.003Z</time></trkpt><trkpt lat="44.81960584460578" lon="4.759950945131683"><ele>108.0</ele><time>2026-04-09T16:15:36.003Z</time></trkpt><trkpt lat="44.81960459199488" lon="4.760080626168882"><ele>108.5</ele><time>2026-04-09T16:15:38.003Z</time></trkpt><trkpt lat="44.81960740804003" lon="4.760187305059625"><ele>109.0</ele><time>2026-04-09T16:15:40.003Z</time></trkpt><trkpt lat="44.8196037680231" lon="4.760334358823591"><ele>109.49999999999999</ele><time>2026-04-09T16:15:43.003Z</time></trkpt><trkpt lat="44.81961461021554" lon="4.760450940452647"><ele>110.0</ele><time>2026-04-09T16:15:45.003Z</time></trkpt><trkpt lat="44.81960100370796" lon="4.760552247964976"><ele>109.99999999999999</ele><time>2026-04-09T16:15:47.003Z</time></trkpt><trkpt lat="44.819594592768105" lon="4.760649266661279"><ele>110.0</ele><time>2026-04-09T16:15:49.003Z</time></trkpt><trkpt lat="44.819595041296964" lon="4.760738109985205"><ele>110.0</ele><time>2026-04-09T16:15:51.003Z</time></trkpt><trkpt lat="44.819590101083094" lon="4.7608378533282645"><ele>110.0</ele><time>2026-04-09T16:15:53.003Z</time></trkpt><trkpt lat="44.81960073728728" lon="4.760934008563178"><ele>109.99999999999999</ele><time>2026-04-09T16:15:55.003Z</time></trkpt><trkpt lat="44.81960927188607" lon="4.76105349393482"><ele>110.0</ele><time>2026-04-09T16:15:57.003Z</time></trkpt><trkpt lat="44.8196339347567" lon="4.761191480011565"><ele>110.99999999999999</ele><time>2026-04-09T16:15:59.003Z</time></trkpt><trkpt lat="44.81965723441943" lon="4.76131960293716"><ele>112.0</ele><time>2026-04-09T16:16:01.003Z</time></trkpt><trkpt lat="44.819673253059605" lon="4.761436919530422"><ele>113.0</ele><time>2026-04-09T16:16:03.003Z</time></trkpt><trkpt lat="44.81970692352238" lon="4.761554242419585"><ele>114.0</ele><time>2026-04-09T16:16:05.003Z</time></trkpt><trkpt lat="44.81974233940533" lon="4.761671732935683"><ele>114.99999999999999</ele><time>2026-04-09T16:16:07.003Z</time></trkpt><trkpt lat="44.819761752425244" lon="4.7617948056586075"><ele>116.0</ele><time>2026-04-09T16:16:09.003Z</time></trkpt><trkpt lat="44.819791460472565" lon="4.761908953449519"><ele>117.6</ele><time>2026-04-09T16:16:11.003Z</time></trkpt><trkpt lat="44.81982053024704" lon="4.762027046101922"><ele>119.19999999999999</ele><time>2026-04-09T16:16:13.003Z</time></trkpt><trkpt lat="44.81985033608096" lon="4.762150390221984"><ele>120.80000000000001</ele><time>2026-04-09T16:16:15.003Z</time></trkpt><trkpt lat="44.81988194975692" lon="4.7622745394931645"><ele>122.4</ele><time>2026-04-09T16:16:17.003Z</time></trkpt><trkpt lat="44.819910280912836" lon="4.762400256551346"><ele>124.0</ele><time>2026-04-09T16:16:19.003Z</time></trkpt><trkpt lat="44.819940659122054" lon="4.762518580733833"><ele>124.0</ele><time>2026-04-09T16:16:21.003Z</time></trkpt><trkpt lat="44.819968960340056" lon="4.76264782373544"><ele>124.0</ele><time>2026-04-09T16:16:23.003Z</time></trkpt><trkpt lat="44.82000797713645" lon="4.762769560514637"><ele>124.0</ele><time>2026-04-09T16:16:25.003Z</time></trkpt><trkpt lat="44.820019618766246" lon="4.762896692496113"><ele>124.0</ele><time>2026-04-09T16:16:27.003Z</time></trkpt><trkpt lat="44.82003293720678" lon="4.763019225173487"><ele>124.0</ele><time>2026-04-09T16:16:29.003Z</time></trkpt><trkpt lat="44.820059804520284" lon="4.76315236994278"><ele>125.4</ele><time>2026-04-09T16:16:31.003Z</time></trkpt><trkpt lat="44.82007904229165" lon="4.763271975077153"><ele>126.80000000000001</ele><time>2026-04-09T16:16:33.003Z</time></trkpt><trkpt lat="44.820094076480146" lon="4.763396778232127"><ele>128.2</ele><time>2026-04-09T16:16:35.003Z</time></trkpt><trkpt lat="44.82010769547897" lon="4.763525955748543"><ele>129.6</ele><time>2026-04-09T16:16:37.003Z</time></trkpt><trkpt lat="44.82011922919856" lon="4.763652021938208"><ele>131.0</ele><time>2026-04-09T16:16:39.003Z</time></trkpt><trkpt lat="44.820122059067764" lon="4.763779842108015"><ele>131.83333333333331</ele><time>2026-04-09T16:16:41.003Z</time></trkpt><trkpt lat="44.820133005594656" lon="4.763909259090585"><ele>132.66666666666666</ele><time>2026-04-09T16:16:43.003Z</time></trkpt><trkpt lat="44.820133912541436" lon="4.764030283949778"><ele>133.5</ele><time>2026-04-09T16:16:45.003Z</time></trkpt><trkpt lat="44.820136668063185" lon="4.764141515748352"><ele>134.33333333333334</ele><time>2026-04-09T16:16:47.003Z</time></trkpt><trkpt lat="44.820134946223426" lon="4.764270965908373"><ele>135.16666666666669</ele><time>2026-04-09T16:16:49.003Z</time></trkpt><trkpt lat="44.82013694234771" lon="4.76439704617942"><ele>136.0</ele><time>2026-04-09T16:16:51.003Z</time></trkpt><trkpt lat="44.8201385004889" lon="4.7645249703902"><ele>136.0</ele><time>2026-04-09T16:16:53.003Z</time></trkpt><trkpt lat="44.82014098619833" lon="4.764650915547823"><ele>136.0</ele><time>2026-04-09T16:16:55.003Z</time></trkpt><trkpt lat="44.820128439685966" lon="4.76477380430484"><ele>136.0</ele><time>2026-04-09T16:16:57.003Z</time></trkpt><trkpt lat="44.820131550108684" lon="4.76490311823561"><ele>136.0</ele><time>2026-04-09T16:16:59.003Z</time></trkpt><trkpt lat="44.82013223983374" lon="4.765025091118887"><ele>136.0</ele><time>2026-04-09T16:17:01.003Z</time></trkpt><trkpt lat="44.82014090385608" lon="4.7651562120056665"><ele>136.0</ele><time>2026-04-09T16:17:03.003Z</time></trkpt><trkpt lat="44.82016008196297" lon="4.765279953070165"><ele>130.0</ele><time>2026-04-09T16:17:05.003Z</time></trkpt><trkpt lat="44.82018009800885" lon="4.765415261042325"><ele>124.0</ele><time>2026-04-09T16:17:07.003Z</time></trkpt><trkpt lat="44.82019882807635" lon="4.765542460713379"><ele>118.0</ele><time>2026-04-09T16:17:09.003Z</time></trkpt><trkpt lat="44.82021449040415" lon="4.765674183678977"><ele>112.0</ele><time>2026-04-09T16:17:11.003Z</time></trkpt><trkpt lat="44.82024364163745" lon="4.765802831926265"><ele>106.0</ele><time>2026-04-09T16:17:13.003Z</time></trkpt><trkpt lat="44.820266986204956" lon="4.7659426940428276"><ele>107.25</ele><time>2026-04-09T16:17:15.003Z</time></trkpt><trkpt lat="44.82029574444586" lon="4.766096162040906"><ele>108.5</ele><time>2026-04-09T16:17:17.004Z</time></trkpt><trkpt lat="44.82033405250385" lon="4.7662500983707865"><ele>109.75</ele><time>2026-04-09T16:17:19.004Z</time></trkpt><trkpt lat="44.82037720830756" lon="4.766404122329988"><ele>111.0</ele><time>2026-04-09T16:17:21.004Z</time></trkpt><trkpt lat="44.82042663976509" lon="4.7665594309505614"><ele>111.0</ele><time>2026-04-09T16:17:23.004Z</time></trkpt><trkpt lat="44.82047003090543" lon="4.766714249015603"><ele>111.0</ele><time>2026-04-09T16:17:25.004Z</time></trkpt><trkpt lat="44.820509341623165" lon="4.766864362766455"><ele>111.0</ele><time>2026-04-09T16:17:27.004Z</time></trkpt><trkpt lat="44.8205611026969" lon="4.767027440494343"><ele>111.0</ele><time>2026-04-09T16:17:29.003Z</time></trkpt><trkpt lat="44.82059254223584" lon="4.767188989382064"><ele>111.83333333333333</ele><time>2026-04-09T16:17:31.003Z</time></trkpt><trkpt lat="44.820597347704435" lon="4.767284270565018"><ele>112.66666666666666</ele><time>2026-04-09T16:17:32.003Z</time></trkpt><trkpt lat="44.82060781682873" lon="4.7674664634007895"><ele>113.5</ele><time>2026-04-09T16:17:34.003Z</time></trkpt><trkpt lat="44.82060916928725" lon="4.767559104106076"><ele>114.33333333333333</ele><time>2026-04-09T16:17:35.003Z</time></trkpt><trkpt lat="44.82060469776588" lon="4.76764862672937"><ele>115.16666666666666</ele><time>2026-04-09T16:17:36.003Z</time></trkpt><trkpt lat="44.820613483230396" lon="4.767741287617633"><ele>116.0</ele><time>2026-04-09T16:17:37.003Z</time></trkpt><trkpt lat="44.820606001992196" lon="4.7678315285017625"><ele>117.19999999999999</ele><time>2026-04-09T16:17:38.003Z</time></trkpt><trkpt lat="44.820604957510234" lon="4.767933141146277"><ele>118.39999999999999</ele><time>2026-04-09T16:17:39.003Z</time></trkpt><trkpt lat="44.820611188872434" lon="4.768022485978871"><ele>119.6</ele><time>2026-04-09T16:17:40.003Z</time></trkpt><trkpt lat="44.82062104217997" lon="4.76819701255402"><ele>120.8</ele><time>2026-04-09T16:17:42.003Z</time></trkpt><trkpt lat="44.82065787379204" lon="4.768366623137238"><ele>122.0</ele><time>2026-04-09T16:17:44.003Z</time></trkpt><trkpt lat="44.8206822729439" lon="4.768457377770382"><ele>123.33333333333333</ele><time>2026-04-09T16:17:45.003Z</time></trkpt><trkpt lat="44.82070480903061" lon="4.768540249517691"><ele>124.66666666666666</ele><time>2026-04-09T16:17:46.003Z</time></trkpt><trkpt lat="44.820734993205164" lon="4.768625350356131"><ele>126.0</ele><time>2026-04-09T16:17:47.003Z</time></trkpt><trkpt lat="44.82077185236531" lon="4.76869942822198"><ele>127.33333333333334</ele><time>2026-04-09T16:17:48.003Z</time></trkpt><trkpt lat="44.82081320306045" lon="4.768860642505546"><ele>128.66666666666669</ele><time>2026-04-09T16:17:50.003Z</time></trkpt><trkpt lat="44.820848357989554" lon="4.769020956992775"><ele>130.0</ele><time>2026-04-09T16:17:52.003Z</time></trkpt><trkpt lat="44.8208970630146" lon="4.7691749856491965"><ele>130.0</ele><time>2026-04-09T16:17:54.003Z</time></trkpt><trkpt lat="44.820942989179265" lon="4.769332764151258"><ele>130.0</ele><time>2026-04-09T16:17:56.003Z</time></trkpt><trkpt lat="44.820981410896515" lon="4.769486852298644"><ele>130.0</ele><time>2026-04-09T16:17:58.003Z</time></trkpt><trkpt lat="44.821023381030514" lon="4.769646422878796"><ele>130.0</ele><time>2026-04-09T16:18:00.003Z</time></trkpt><trkpt lat="44.82104750775824" lon="4.76973083907737"><ele>130.0</ele><time>2026-04-09T16:18:01.003Z</time></trkpt><trkpt lat="44.8210773047361" lon="4.769886908735366"><ele>126.6</ele><time>2026-04-09T16:18:03.003Z</time></trkpt><trkpt lat="44.821094739326966" lon="4.769975922825713"><ele>123.2</ele><time>2026-04-09T16:18:04.003Z</time></trkpt><trkpt lat="44.82112070729842" lon="4.770064003578922"><ele>119.80000000000001</ele><time>2026-04-09T16:18:05.003Z</time></trkpt><trkpt lat="44.82116420419095" lon="4.77022926681621"><ele>116.4</ele><time>2026-04-09T16:18:07.003Z</time></trkpt><trkpt lat="44.82119588062103" lon="4.770402373484433"><ele>113.0</ele><time>2026-04-09T16:18:09.003Z</time></trkpt><trkpt lat="44.82123862978618" lon="4.77057305994966"><ele>113.0</ele><time>2026-04-09T16:18:11.003Z</time></trkpt><trkpt lat="44.82126574666741" lon="4.770732664601411"><ele>113.0</ele><time>2026-04-09T16:18:13.003Z</time></trkpt><trkpt lat="44.82130961531619" lon="4.7708645355220405"><ele>113.0</ele><time>2026-04-09T16:18:15.003Z</time></trkpt><trkpt lat="44.821357763622515" lon="4.7710105608036795"><ele>113.0</ele><time>2026-04-09T16:18:17.003Z</time></trkpt><trkpt lat="44.82138741860929" lon="4.771182066297014"><ele>113.83333333333333</ele><time>2026-04-09T16:18:19.003Z</time></trkpt><trkpt lat="44.82141177459658" lon="4.77127428585972"><ele>114.66666666666666</ele><time>2026-04-09T16:18:20.003Z</time></trkpt><trkpt lat="44.82142731875442" lon="4.771367562872795"><ele>115.5</ele><time>2026-04-09T16:18:21.003Z</time></trkpt><trkpt lat="44.821443516976466" lon="4.771454993067801"><ele>116.33333333333334</ele><time>2026-04-09T16:18:22.003Z</time></trkpt><trkpt lat="44.82146451292054" lon="4.771538881664736"><ele>117.16666666666667</ele><time>2026-04-09T16:18:23.003Z</time></trkpt><trkpt lat="44.82147807535053" lon="4.771628135718361"><ele>118.0</ele><time>2026-04-09T16:18:24.003Z</time></trkpt><trkpt lat="44.82149858575666" lon="4.7717985876396"><ele>119.25</ele><time>2026-04-09T16:18:26.003Z</time></trkpt><trkpt lat="44.821522038988775" lon="4.7719752827238064"><ele>120.5</ele><time>2026-04-09T16:18:28.003Z</time></trkpt><trkpt lat="44.821533570319644" lon="4.7721363462443325"><ele>121.75</ele><time>2026-04-09T16:18:30.003Z</time></trkpt><trkpt lat="44.82154567318698" lon="4.772308873020526"><ele>123.0</ele><time>2026-04-09T16:18:32.003Z</time></trkpt><trkpt lat="44.82156096082476" lon="4.77247565963642"><ele>123.0</ele><time>2026-04-09T16:18:34.003Z</time></trkpt><trkpt lat="44.82156497936019" lon="4.772640317599421"><ele>123.00000000000001</ele><time>2026-04-09T16:18:36.003Z</time></trkpt><trkpt lat="44.8215656292029" lon="4.772788662581872"><ele>123.00000000000001</ele><time>2026-04-09T16:18:38.003Z</time></trkpt><trkpt lat="44.82156169338281" lon="4.772943139254377"><ele>123.0</ele><time>2026-04-09T16:18:40.003Z</time></trkpt><trkpt lat="44.82157716017173" lon="4.773106886454166"><ele>123.0</ele><time>2026-04-09T16:18:42.003Z</time></trkpt><trkpt lat="44.82158212650429" lon="4.773255441583005"><ele>123.4</ele><time>2026-04-09T16:18:44.003Z</time></trkpt><trkpt lat="44.821580136500835" lon="4.773405678375663"><ele>123.80000000000001</ele><time>2026-04-09T16:18:46.003Z</time></trkpt><trkpt lat="44.82157753427444" lon="4.7735504939242155"><ele>124.2</ele><time>2026-04-09T16:18:48.003Z</time></trkpt><trkpt lat="44.82157872942507" lon="4.773697102690896"><ele>124.6</ele><time>2026-04-09T16:18:50.003Z</time></trkpt><trkpt lat="44.82158303579605" lon="4.773837513975738"><ele>125.0</ele><time>2026-04-09T16:18:52.003Z</time></trkpt><trkpt lat="44.821568116717884" lon="4.773977122272687"><ele>125.0</ele><time>2026-04-09T16:18:54.003Z</time></trkpt><trkpt lat="44.8215760931113" lon="4.7740998315937"><ele>125.0</ele><time>2026-04-09T16:18:56.004Z</time></trkpt><trkpt lat="44.82158576551047" lon="4.774233587259277"><ele>125.0</ele><time>2026-04-09T16:18:58.004Z</time></trkpt><trkpt lat="44.821606409750004" lon="4.77437984933576"><ele>125.0</ele><time>2026-04-09T16:19:00.004Z</time></trkpt><trkpt lat="44.821624208555676" lon="4.77450708935248"><ele>125.0</ele><time>2026-04-09T16:19:02.004Z</time></trkpt><trkpt lat="44.82161564883127" lon="4.774623467239177"><ele>125.8</ele><time>2026-04-09T16:19:04.004Z</time></trkpt><trkpt lat="44.82161583838764" lon="4.7747641564374055"><ele>126.6</ele><time>2026-04-09T16:19:06.004Z</time></trkpt><trkpt lat="44.82164278108998" lon="4.774923447814293"><ele>127.4</ele><time>2026-04-09T16:19:08.004Z</time></trkpt><trkpt lat="44.82167183739374" lon="4.7750574840312625"><ele>128.2</ele><time>2026-04-09T16:19:10.004Z</time></trkpt><trkpt lat="44.821694963499844" lon="4.775194162696617"><ele>129.0</ele><time>2026-04-09T16:19:12.004Z</time></trkpt><trkpt lat="44.8217151058207" lon="4.775337143120875"><ele>129.8</ele><time>2026-04-09T16:19:14.004Z</time></trkpt><trkpt lat="44.82173467183231" lon="4.775465525482526"><ele>130.60000000000002</ele><time>2026-04-09T16:19:16.004Z</time></trkpt><trkpt lat="44.821749481629844" lon="4.775602616479254"><ele>131.4</ele><time>2026-04-09T16:19:18.004Z</time></trkpt><trkpt lat="44.82177331071019" lon="4.775737153568385"><ele>132.20000000000002</ele><time>2026-04-09T16:19:20.004Z</time></trkpt><trkpt lat="44.82178924978285" lon="4.7758852060697095"><ele>133.0</ele><time>2026-04-09T16:19:22.004Z</time></trkpt><trkpt lat="44.82179402670462" lon="4.776025222011414"><ele>133.0</ele><time>2026-04-09T16:19:24.004Z</time></trkpt><trkpt lat="44.82180704121775" lon="4.776169414646382"><ele>133.0</ele><time>2026-04-09T16:19:26.004Z</time></trkpt><trkpt lat="44.82181754807814" lon="4.776313169548721"><ele>133.0</ele><time>2026-04-09T16:19:28.004Z</time></trkpt><trkpt lat="44.82182408658567" lon="4.776469071309132"><ele>133.0</ele><time>2026-04-09T16:19:30.004Z</time></trkpt><trkpt lat="44.82184154059648" lon="4.776620828277925"><ele>133.0</ele><time>2026-04-09T16:19:32.004Z</time></trkpt><trkpt lat="44.82186053546469" lon="4.776774217448252"><ele>128.20000000000002</ele><time>2026-04-09T16:19:34.004Z</time></trkpt><trkpt lat="44.82189768986594" lon="4.77692132724671"><ele>123.4</ele><time>2026-04-09T16:19:36.004Z</time></trkpt><trkpt lat="44.82193561708897" lon="4.777060694735481"><ele>118.60000000000001</ele><time>2026-04-09T16:19:38.003Z</time></trkpt><trkpt lat="44.82196603721517" lon="4.777213857399202"><ele>113.80000000000001</ele><time>2026-04-09T16:19:40.003Z</time></trkpt><trkpt lat="44.82200760087197" lon="4.7773588494868875"><ele>109.0</ele><time>2026-04-09T16:19:42.003Z</time></trkpt><trkpt lat="44.82204572445833" lon="4.777511807727829"><ele>109.0</ele><time>2026-04-09T16:19:44.003Z</time></trkpt><trkpt lat="44.82208098897895" lon="4.777663774011235"><ele>109.0</ele><time>2026-04-09T16:19:46.003Z</time></trkpt><trkpt lat="44.822098779005145" lon="4.777823016832368"><ele>109.0</ele><time>2026-04-09T16:19:48.004Z</time></trkpt><trkpt lat="44.82211212367019" lon="4.777962055141985"><ele>109.0</ele><time>2026-04-09T16:19:50.004Z</time></trkpt><trkpt lat="44.8221136076155" lon="4.77805392818307"><ele>109.0</ele><time>2026-04-09T16:19:51.004Z</time></trkpt><trkpt lat="44.82212228884554" lon="4.778227643377032"><ele>109.2</ele><time>2026-04-09T16:19:53.004Z</time></trkpt><trkpt lat="44.82213860916265" lon="4.7784053988903015"><ele>109.4</ele><time>2026-04-09T16:19:55.004Z</time></trkpt><trkpt lat="44.82215010654071" lon="4.778571184626653"><ele>109.6</ele><time>2026-04-09T16:19:57.004Z</time></trkpt><trkpt lat="44.82215989021026" lon="4.778734421614532"><ele>109.8</ele><time>2026-04-09T16:19:59.004Z</time></trkpt><trkpt lat="44.822167701103695" lon="4.7788226476728495"><ele>110.0</ele><time>2026-04-09T16:20:00.004Z</time></trkpt><trkpt lat="44.822180062214876" lon="4.778987348654359"><ele>110.0</ele><time>2026-04-09T16:20:02.004Z</time></trkpt><trkpt lat="44.82218525671538" lon="4.7791689278583975"><ele>110.0</ele><time>2026-04-09T16:20:04.004Z</time></trkpt><trkpt lat="44.82219718748843" lon="4.779337661932805"><ele>110.0</ele><time>2026-04-09T16:20:06.004Z</time></trkpt><trkpt lat="44.822209185772785" lon="4.7794297213697385"><ele>110.0</ele><time>2026-04-09T16:20:07.004Z</time></trkpt><trkpt lat="44.822212605550206" lon="4.779609982143732"><ele>110.0</ele><time>2026-04-09T16:20:09.004Z</time></trkpt><trkpt lat="44.82221678840991" lon="4.779705981693239"><ele>109.99999999999999</ele><time>2026-04-09T16:20:10.004Z</time></trkpt><trkpt lat="44.82221716882911" lon="4.7797994925955605"><ele>110.0</ele><time>2026-04-09T16:20:11.004Z</time></trkpt><trkpt lat="44.82220393201493" lon="4.7799734148150135"><ele>110.0</ele><time>2026-04-09T16:20:13.004Z</time></trkpt><trkpt lat="44.82219681579217" lon="4.7800728091499405"><ele>110.0</ele><time>2026-04-09T16:20:14.004Z</time></trkpt><trkpt lat="44.82218459078875" lon="4.780163858692026"><ele>109.99999999999999</ele><time>2026-04-09T16:20:15.004Z</time></trkpt><trkpt lat="44.822173666137914" lon="4.780254510138503"><ele>110.0</ele><time>2026-04-09T16:20:16.004Z</time></trkpt><trkpt lat="44.82216302287023" lon="4.78034342985948"><ele>109.57142857142857</ele><time>2026-04-09T16:20:17.004Z</time></trkpt><trkpt lat="44.82214539435092" lon="4.780429396727613"><ele>109.14285714285714</ele><time>2026-04-09T16:20:18.004Z</time></trkpt><trkpt lat="44.8221264447413" lon="4.780526597059474"><ele>108.71428571428572</ele><time>2026-04-09T16:20:19.004Z</time></trkpt><trkpt lat="44.82209724206018" lon="4.7806108210123925"><ele>108.28571428571428</ele><time>2026-04-09T16:20:20.004Z</time></trkpt><trkpt lat="44.822079480767805" lon="4.780705058395837"><ele>107.85714285714286</ele><time>2026-04-09T16:20:21.004Z</time></trkpt><trkpt lat="44.82206418184114" lon="4.780800157812286"><ele>107.42857142857143</ele><time>2026-04-09T16:20:22.004Z</time></trkpt><trkpt lat="44.8220372306774" lon="4.780885959544938"><ele>107.0</ele><time>2026-04-09T16:20:23.004Z</time></trkpt><trkpt lat="44.82201648877544" lon="4.780982527472015"><ele>106.28571428571429</ele><time>2026-04-09T16:20:24.004Z</time></trkpt><trkpt lat="44.82198463313559" lon="4.781071813065782"><ele>105.57142857142857</ele><time>2026-04-09T16:20:25.004Z</time></trkpt><trkpt lat="44.82196145327762" lon="4.781156932185317"><ele>104.85714285714286</ele><time>2026-04-09T16:20:26.004Z</time></trkpt><trkpt lat="44.82194155394776" lon="4.78124566641657"><ele>104.14285714285714</ele><time>2026-04-09T16:20:27.004Z</time></trkpt><trkpt lat="44.821924595526504" lon="4.781338673126934"><ele>103.42857142857143</ele><time>2026-04-09T16:20:28.004Z</time></trkpt><trkpt lat="44.82190790131875" lon="4.781440289578073"><ele>102.71428571428572</ele><time>2026-04-09T16:20:29.004Z</time></trkpt><trkpt lat="44.82188728687027" lon="4.781530812964901"><ele>102.0</ele><time>2026-04-09T16:20:30.004Z</time></trkpt><trkpt lat="44.82187149728123" lon="4.781622590219064"><ele>102.0</ele><time>2026-04-09T16:20:31.004Z</time></trkpt><trkpt lat="44.821844801923156" lon="4.781705921560327"><ele>102.0</ele><time>2026-04-09T16:20:32.004Z</time></trkpt><trkpt lat="44.82180551374835" lon="4.781785349979987"><ele>102.0</ele><time>2026-04-09T16:20:33.004Z</time></trkpt><trkpt lat="44.82177515410662" lon="4.78187082493172"><ele>102.0</ele><time>2026-04-09T16:20:34.004Z</time></trkpt><trkpt lat="44.82174314444495" lon="4.781956466541397"><ele>102.0</ele><time>2026-04-09T16:20:35.004Z</time></trkpt><trkpt lat="44.821704173710486" lon="4.782033977505528"><ele>102.0</ele><time>2026-04-09T16:20:36.004Z</time></trkpt><trkpt lat="44.82166887056172" lon="4.782118308858732"><ele>102.0</ele><time>2026-04-09T16:20:37.004Z</time></trkpt><trkpt lat="44.82162937455542" lon="4.782194902704892"><ele>104.39999999999999</ele><time>2026-04-09T16:20:38.004Z</time></trkpt><trkpt lat="44.82154665872136" lon="4.782338158108657"><ele>106.8</ele><time>2026-04-09T16:20:40.004Z</time></trkpt><trkpt lat="44.82149977163829" lon="4.782402097191092"><ele>109.2</ele><time>2026-04-09T16:20:41.004Z</time></trkpt><trkpt lat="44.821453165939786" lon="4.782472673902088"><ele>111.6</ele><time>2026-04-09T16:20:42.004Z</time></trkpt><trkpt lat="44.82135258763136" lon="4.782589415486604"><ele>114.0</ele><time>2026-04-09T16:20:44.004Z</time></trkpt><trkpt lat="44.82129765100587" lon="4.782643733871483"><ele>114.16666666666667</ele><time>2026-04-09T16:20:45.004Z</time></trkpt><trkpt lat="44.82124217102106" lon="4.78270022108328"><ele>114.33333333333334</ele><time>2026-04-09T16:20:46.004Z</time></trkpt><trkpt lat="44.821191330851434" lon="4.782766848924418"><ele>114.5</ele><time>2026-04-09T16:20:47.004Z</time></trkpt><trkpt lat="44.82113329279092" lon="4.782809561823511"><ele>114.66666666666667</ele><time>2026-04-09T16:20:48.004Z</time></trkpt><trkpt lat="44.82101788862454" lon="4.7828960723937595"><ele>114.83333333333334</ele><time>2026-04-09T16:20:50.004Z</time></trkpt><trkpt lat="44.82095400535478" lon="4.782939149007149"><ele>115.0</ele><time>2026-04-09T16:20:51.004Z</time></trkpt><trkpt lat="44.82089004211725" lon="4.782977340233214"><ele>115.00000000000001</ele><time>2026-04-09T16:20:52.004Z</time></trkpt><trkpt lat="44.820830168192686" lon="4.783021194474565"><ele>115.0</ele><time>2026-04-09T16:20:53.004Z</time></trkpt><trkpt lat="44.82076554894774" lon="4.7830628811820235"><ele>115.0</ele><time>2026-04-09T16:20:54.004Z</time></trkpt><trkpt lat="44.820708399451696" lon="4.783105715752294"><ele>115.0</ele><time>2026-04-09T16:20:55.004Z</time></trkpt><trkpt lat="44.82064252326869" lon="4.783141046990231"><ele>115.00000000000001</ele><time>2026-04-09T16:20:56.004Z</time></trkpt><trkpt lat="44.82057962283204" lon="4.783185406445335"><ele>115.0</ele><time>2026-04-09T16:20:57.004Z</time></trkpt><trkpt lat="44.82047774982895" lon="4.783277187493931"><ele>115.00000000000001</ele><time>2026-04-09T16:20:59.004Z</time></trkpt><trkpt lat="44.8203795202843" lon="4.7833859243401795"><ele>115.0</ele><time>2026-04-09T16:21:01.004Z</time></trkpt><trkpt lat="44.8203199731654" lon="4.783449456066515"><ele>115.0</ele><time>2026-04-09T16:21:02.004Z</time></trkpt><trkpt lat="44.820262530687884" lon="4.783499643633563"><ele>115.0</ele><time>2026-04-09T16:21:03.004Z</time></trkpt><trkpt lat="44.820201078265484" lon="4.783557827659579"><ele>115.00000000000001</ele><time>2026-04-09T16:21:04.004Z</time></trkpt><trkpt lat="44.82015154489753" lon="4.78361712155866"><ele>115.0</ele><time>2026-04-09T16:21:05.004Z</time></trkpt><trkpt lat="44.82010523171598" lon="4.783690374639887"><ele>114.8</ele><time>2026-04-09T16:21:06.004Z</time></trkpt><trkpt lat="44.82001811582356" lon="4.7838119940304376"><ele>114.6</ele><time>2026-04-09T16:21:08.004Z</time></trkpt><trkpt lat="44.819965074707966" lon="4.783873143361959"><ele>114.4</ele><time>2026-04-09T16:21:09.004Z</time></trkpt><trkpt lat="44.81987033529859" lon="4.783994169982842"><ele>114.2</ele><time>2026-04-09T16:21:11.004Z</time></trkpt><trkpt lat="44.81981568293611" lon="4.78405773210019"><ele>114.0</ele><time>2026-04-09T16:21:12.004Z</time></trkpt><trkpt lat="44.81971664357046" lon="4.784183959404352"><ele>114.0</ele><time>2026-04-09T16:21:14.004Z</time></trkpt><trkpt lat="44.819662320796304" lon="4.784250724898511"><ele>114.0</ele><time>2026-04-09T16:21:15.004Z</time></trkpt><trkpt lat="44.81956423732409" lon="4.78437609110352"><ele>114.0</ele><time>2026-04-09T16:21:17.004Z</time></trkpt><trkpt lat="44.81951384157052" lon="4.784437486887769"><ele>114.0</ele><time>2026-04-09T16:21:18.004Z</time></trkpt><trkpt lat="44.81946992783543" lon="4.784504090203338"><ele>114.0</ele><time>2026-04-09T16:21:19.004Z</time></trkpt><trkpt lat="44.819424765157066" lon="4.784571140775369"><ele>114.0</ele><time>2026-04-09T16:21:20.004Z</time></trkpt><trkpt lat="44.81937580858125" lon="4.7846391277161056"><ele>113.85714285714285</ele><time>2026-04-09T16:21:21.004Z</time></trkpt><trkpt lat="44.81931944038719" lon="4.784696781984567"><ele>113.7142857142857</ele><time>2026-04-09T16:21:22.004Z</time></trkpt><trkpt lat="44.819270607428365" lon="4.784755426278832"><ele>113.57142857142857</ele><time>2026-04-09T16:21:23.004Z</time></trkpt><trkpt lat="44.81922331749872" lon="4.784814276620489"><ele>113.42857142857142</ele><time>2026-04-09T16:21:24.004Z</time></trkpt><trkpt lat="44.81917395020015" lon="4.7848720125812925"><ele>113.28571428571428</ele><time>2026-04-09T16:21:25.004Z</time></trkpt><trkpt lat="44.81912428216867" lon="4.784929403151335"><ele>113.14285714285714</ele><time>2026-04-09T16:21:26.004Z</time></trkpt><trkpt lat="44.81906631150547" lon="4.784987562854173"><ele>113.0</ele><time>2026-04-09T16:21:27.004Z</time></trkpt><trkpt lat="44.81901053984301" lon="4.785044516068155"><ele>112.99999999999999</ele><time>2026-04-09T16:21:28.004Z</time></trkpt><trkpt lat="44.81895413659401" lon="4.785112570468752"><ele>113.0</ele><time>2026-04-09T16:21:29.004Z</time></trkpt><trkpt lat="44.818897512608075" lon="4.7851828849223725"><ele>113.0</ele><time>2026-04-09T16:21:30.004Z</time></trkpt><trkpt lat="44.81883593232714" lon="4.785259972124221"><ele>113.0</ele><time>2026-04-09T16:21:31.004Z</time></trkpt><trkpt lat="44.818777507266084" lon="4.785334227934845"><ele>112.99999999999999</ele><time>2026-04-09T16:21:32.004Z</time></trkpt><trkpt lat="44.818726006707685" lon="4.785410381956009"><ele>113.0</ele><time>2026-04-09T16:21:33.004Z</time></trkpt><trkpt lat="44.8186699064811" lon="4.785476315506423"><ele>112.60000000000001</ele><time>2026-04-09T16:21:34.004Z</time></trkpt><trkpt lat="44.818616745326864" lon="4.785537619767539"><ele>112.20000000000002</ele><time>2026-04-09T16:21:35.004Z</time></trkpt><trkpt lat="44.818514159699205" lon="4.7856432062255925"><ele>111.8</ele><time>2026-04-09T16:21:37.004Z</time></trkpt><trkpt lat="44.818470404910286" lon="4.785712857175478"><ele>111.4</ele><time>2026-04-09T16:21:38.004Z</time></trkpt><trkpt lat="44.818389656416265" lon="4.785845412837194"><ele>111.0</ele><time>2026-04-09T16:21:40.004Z</time></trkpt><trkpt lat="44.818339220656924" lon="4.7859034636716435"><ele>110.19999999999999</ele><time>2026-04-09T16:21:41.004Z</time></trkpt><trkpt lat="44.8182622965636" lon="4.786022040866583"><ele>109.39999999999999</ele><time>2026-04-09T16:21:43.004Z</time></trkpt><trkpt lat="44.81816978955245" lon="4.786135106803016"><ele>108.6</ele><time>2026-04-09T16:21:45.003Z</time></trkpt><trkpt lat="44.818074394132864" lon="4.786238614384056"><ele>107.8</ele><time>2026-04-09T16:21:47.003Z</time></trkpt><trkpt lat="44.81802247329495" lon="4.786297667223121"><ele>107.0</ele><time>2026-04-09T16:21:48.003Z</time></trkpt><trkpt lat="44.817927780032385" lon="4.786404843029809"><ele>107.0</ele><time>2026-04-09T16:21:50.004Z</time></trkpt><trkpt lat="44.817828445674664" lon="4.786495661834943"><ele>106.99999999999999</ele><time>2026-04-09T16:21:52.003Z</time></trkpt><trkpt lat="44.817745466688116" lon="4.786573880639966"><ele>106.99999999999999</ele><time>2026-04-09T16:21:54.004Z</time></trkpt><trkpt lat="44.8176549473402" lon="4.786631793979601"><ele>107.0</ele><time>2026-04-09T16:21:56.004Z</time></trkpt><trkpt lat="44.817568013777546" lon="4.786688796523714"><ele>107.0</ele><time>2026-04-09T16:21:58.004Z</time></trkpt><trkpt lat="44.8174846575592" lon="4.786756696322405"><ele>107.39999999999999</ele><time>2026-04-09T16:22:00.004Z</time></trkpt><trkpt lat="44.81743299465345" lon="4.78681980140878"><ele>107.79999999999998</ele><time>2026-04-09T16:22:02.004Z</time></trkpt><trkpt lat="44.817338891903326" lon="4.786895309146467"><ele>108.2</ele><time>2026-04-09T16:22:04.004Z</time></trkpt><trkpt lat="44.81726555587009" lon="4.786952016264967"><ele>108.6</ele><time>2026-04-09T16:22:06.004Z</time></trkpt><trkpt lat="44.817178672318455" lon="4.786999640323954"><ele>109.0</ele><time>2026-04-09T16:22:09.004Z</time></trkpt><trkpt lat="44.81709859203859" lon="4.787084657691405"><ele>109.0</ele><time>2026-04-09T16:22:11.004Z</time></trkpt><trkpt lat="44.81704591781926" lon="4.787138433053431"><ele>109.0</ele><time>2026-04-09T16:22:12.004Z</time></trkpt><trkpt lat="44.8169502430552" lon="4.787245575325408"><ele>109.0</ele><time>2026-04-09T16:22:14.004Z</time></trkpt><trkpt lat="44.81687239699416" lon="4.787349131652919"><ele>109.0</ele><time>2026-04-09T16:22:16.004Z</time></trkpt><trkpt lat="44.81679702381441" lon="4.787441287983988"><ele>109.0</ele><time>2026-04-09T16:22:18.004Z</time></trkpt><trkpt lat="44.81673182371424" lon="4.787530906156124"><ele>109.00000000000001</ele><time>2026-04-09T16:22:20.004Z</time></trkpt><trkpt lat="44.81667434113906" lon="4.787629602001212"><ele>109.0</ele><time>2026-04-09T16:22:22.004Z</time></trkpt><trkpt lat="44.81663007954445" lon="4.787729998725206"><ele>109.0</ele><time>2026-04-09T16:22:24.004Z</time></trkpt><trkpt lat="44.816584216421624" lon="4.787836746705387"><ele>109.0</ele><time>2026-04-09T16:22:26.004Z</time></trkpt><trkpt lat="44.81653136823353" lon="4.7879391544864065"><ele>109.00000000000001</ele><time>2026-04-09T16:22:28.004Z</time></trkpt><trkpt lat="44.81648323091578" lon="4.788049812444949"><ele>109.0</ele><time>2026-04-09T16:22:30.004Z</time></trkpt><trkpt lat="44.81645123245335" lon="4.788167299137545"><ele>109.0</ele><time>2026-04-09T16:22:32.004Z</time></trkpt><trkpt lat="44.81639607997419" lon="4.788279560941367"><ele>109.0</ele><time>2026-04-09T16:22:34.004Z</time></trkpt><trkpt lat="44.81635456646742" lon="4.788390326496976"><ele>109.0</ele><time>2026-04-09T16:22:36.004Z</time></trkpt><trkpt lat="44.81630757521994" lon="4.788506629209591"><ele>109.0</ele><time>2026-04-09T16:22:38.004Z</time></trkpt><trkpt lat="44.816257621418224" lon="4.788628317554105"><ele>109.0</ele><time>2026-04-09T16:22:40.004Z</time></trkpt><trkpt lat="44.81621102897307" lon="4.788740226396843"><ele>108.4</ele><time>2026-04-09T16:22:42.004Z</time></trkpt><trkpt lat="44.81615715565709" lon="4.78884342245733"><ele>107.80000000000001</ele><time>2026-04-09T16:22:44.004Z</time></trkpt><trkpt lat="44.81610975633466" lon="4.788957494451372"><ele>107.19999999999999</ele><time>2026-04-09T16:22:46.004Z</time></trkpt><trkpt lat="44.81606203668083" lon="4.789070244730996"><ele>106.6</ele><time>2026-04-09T16:22:48.004Z</time></trkpt><trkpt lat="44.81602219030997" lon="4.78918173753306"><ele>106.0</ele><time>2026-04-09T16:22:50.004Z</time></trkpt><trkpt lat="44.81597366731279" lon="4.789287026529315"><ele>107.00000000000001</ele><time>2026-04-09T16:22:52.004Z</time></trkpt><trkpt lat="44.81592964515975" lon="4.78939247288486"><ele>108.0</ele><time>2026-04-09T16:22:54.004Z</time></trkpt><trkpt lat="44.815892399664286" lon="4.789487887568235"><ele>109.0</ele><time>2026-04-09T16:22:56.004Z</time></trkpt><trkpt lat="44.81584617230109" lon="4.789581187137591"><ele>110.0</ele><time>2026-04-09T16:22:58.004Z</time></trkpt><trkpt lat="44.815804309821466" lon="4.789684154724926"><ele>111.00000000000001</ele><time>2026-04-09T16:23:00.004Z</time></trkpt><trkpt lat="44.81576946441647" lon="4.789773048557897"><ele>112.0</ele><time>2026-04-09T16:23:02.004Z</time></trkpt><trkpt lat="44.815726256960346" lon="4.789876831943954"><ele>112.00000000000001</ele><time>2026-04-09T16:23:05.004Z</time></trkpt><trkpt lat="44.81567885169922" lon="4.78998147662953"><ele>112.0</ele><time>2026-04-09T16:23:08.004Z</time></trkpt><trkpt lat="44.81563796321434" lon="4.790075387467389"><ele>112.0</ele><time>2026-04-09T16:23:11.004Z</time></trkpt><trkpt lat="44.81562317930189" lon="4.790169451685501"><ele>112.0</ele><time>2026-04-09T16:24:19.004Z</time></trkpt><trkpt lat="44.81558139676522" lon="4.79024074632072"><ele>112.00000000000001</ele><time>2026-04-09T16:24:22.004Z</time></trkpt><trkpt lat="44.815535126377284" lon="4.790359887684101"><ele>112.0</ele><time>2026-04-09T16:24:25.004Z</time></trkpt><trkpt lat="44.815494403911835" lon="4.790437855621957"><ele>111.50000000000001</ele><time>2026-04-09T16:24:27.004Z</time></trkpt><trkpt lat="44.815437902682376" lon="4.790546758073047"><ele>111.0</ele><time>2026-04-09T16:24:30.004Z</time></trkpt><trkpt lat="44.81539675379563" lon="4.790630236281459"><ele>110.5</ele><time>2026-04-09T16:24:32.004Z</time></trkpt><trkpt lat="44.81534774280312" lon="4.790705139618658"><ele>110.0</ele><time>2026-04-09T16:24:34.004Z</time></trkpt><trkpt lat="44.81530910806372" lon="4.790783830333908"><ele>109.50000000000001</ele><time>2026-04-09T16:24:36.004Z</time></trkpt><trkpt lat="44.81526031265453" lon="4.790857204621265"><ele>109.0</ele><time>2026-04-09T16:24:38.004Z</time></trkpt><trkpt lat="44.81521637761216" lon="4.79094767070529"><ele>108.33333333333334</ele><time>2026-04-09T16:24:40.004Z</time></trkpt><trkpt lat="44.81517058038004" lon="4.791030167668135"><ele>107.66666666666667</ele><time>2026-04-09T16:24:42.004Z</time></trkpt><trkpt lat="44.81512164528529" lon="4.791117154964933"><ele>107.0</ele><time>2026-04-09T16:24:44.004Z</time></trkpt><trkpt lat="44.8150818772664" lon="4.791225898644649"><ele>106.33333333333334</ele><time>2026-04-09T16:24:46.004Z</time></trkpt><trkpt lat="44.8150320285551" lon="4.791346006027287"><ele>105.66666666666667</ele><time>2026-04-09T16:24:48.004Z</time></trkpt><trkpt lat="44.81498891045413" lon="4.791441771201759"><ele>105.0</ele><time>2026-04-09T16:24:50.004Z</time></trkpt><trkpt lat="44.8149621670949" lon="4.791556472756871"><ele>106.5</ele><time>2026-04-09T16:24:52.004Z</time></trkpt><trkpt lat="44.81493443593555" lon="4.791668380708354"><ele>108.0</ele><time>2026-04-09T16:24:54.004Z</time></trkpt><trkpt lat="44.81490406372412" lon="4.7917786891736025"><ele>109.5</ele><time>2026-04-09T16:24:56.004Z</time></trkpt><trkpt lat="44.81488446059556" lon="4.791881639956536"><ele>111.0</ele><time>2026-04-09T16:24:58.004Z</time></trkpt><trkpt lat="44.8148842839699" lon="4.791985258153422"><ele>112.5</ele><time>2026-04-09T16:25:00.004Z</time></trkpt><trkpt lat="44.814875459626485" lon="4.792109053387012"><ele>114.0</ele><time>2026-04-09T16:25:03.004Z</time></trkpt><trkpt lat="44.81486856203493" lon="4.792208841257303"><ele>114.0</ele><time>2026-04-09T16:25:05.004Z</time></trkpt><trkpt lat="44.814863867290136" lon="4.792299350181332"><ele>114.0</ele><time>2026-04-09T16:25:07.004Z</time></trkpt><trkpt lat="44.81485934893287" lon="4.792408385531629"><ele>114.0</ele><time>2026-04-09T16:25:09.004Z</time></trkpt><trkpt lat="44.81486231950378" lon="4.792541723752231"><ele>114.0</ele><time>2026-04-09T16:25:11.004Z</time></trkpt><trkpt lat="44.81487979236287" lon="4.792680983937348"><ele>114.0</ele><time>2026-04-09T16:25:13.004Z</time></trkpt><trkpt lat="44.81489490481382" lon="4.7928303163934665"><ele>114.0</ele><time>2026-04-09T16:25:15.004Z</time></trkpt><trkpt lat="44.81490482278088" lon="4.792989299880468"><ele>114.4</ele><time>2026-04-09T16:25:17.004Z</time></trkpt><trkpt lat="44.814916857931166" lon="4.793146005505785"><ele>114.80000000000001</ele><time>2026-04-09T16:25:19.004Z</time></trkpt><trkpt lat="44.81491550691035" lon="4.7932885465908885"><ele>115.19999999999999</ele><time>2026-04-09T16:25:21.004Z</time></trkpt><trkpt lat="44.81490479628936" lon="4.79342989645877"><ele>115.6</ele><time>2026-04-09T16:25:23.004Z</time></trkpt><trkpt lat="44.81488319417439" lon="4.793584054407526"><ele>116.0</ele><time>2026-04-09T16:25:25.004Z</time></trkpt><trkpt lat="44.814843051923255" lon="4.793713485299853"><ele>117.0</ele><time>2026-04-09T16:25:27.004Z</time></trkpt><trkpt lat="44.81480290866281" lon="4.793842579261328"><ele>118.0</ele><time>2026-04-09T16:25:29.004Z</time></trkpt><trkpt lat="44.81475361548556" lon="4.79396026952382"><ele>119.0</ele><time>2026-04-09T16:25:31.004Z</time></trkpt><trkpt lat="44.81470401410972" lon="4.794065532367288"><ele>120.0</ele><time>2026-04-09T16:25:33.004Z</time></trkpt><trkpt lat="44.81463494971358" lon="4.794168144200405"><ele>121.0</ele><time>2026-04-09T16:25:35.004Z</time></trkpt><trkpt lat="44.814555708165166" lon="4.794254029760518"><ele>121.0</ele><time>2026-04-09T16:25:37.004Z</time></trkpt><trkpt lat="44.81446773186852" lon="4.7943321653090685"><ele>121.0</ele><time>2026-04-09T16:25:39.004Z</time></trkpt><trkpt lat="44.814406928426244" lon="4.794365458762177"><ele>121.0</ele><time>2026-04-09T16:25:40.004Z</time></trkpt><trkpt lat="44.81430290616664" lon="4.794416769730196"><ele>121.0</ele><time>2026-04-09T16:25:42.004Z</time></trkpt><trkpt lat="44.81419992224898" lon="4.794449042486223"><ele>121.0</ele><time>2026-04-09T16:25:44.004Z</time></trkpt><trkpt lat="44.81409385138259" lon="4.794444841906152"><ele>121.19999999999999</ele><time>2026-04-09T16:25:46.004Z</time></trkpt><trkpt lat="44.81398611396219" lon="4.794432908749628"><ele>121.39999999999999</ele><time>2026-04-09T16:25:48.004Z</time></trkpt><trkpt lat="44.813885432972974" lon="4.794428489377462"><ele>121.6</ele><time>2026-04-09T16:25:50.004Z</time></trkpt><trkpt lat="44.81376609335925" lon="4.794415538395387"><ele>121.8</ele><time>2026-04-09T16:25:52.004Z</time></trkpt><trkpt lat="44.81364858726524" lon="4.794392490142353"><ele>122.0</ele><time>2026-04-09T16:25:54.004Z</time></trkpt><trkpt lat="44.81353420624397" lon="4.794389464475942"><ele>121.0</ele><time>2026-04-09T16:25:56.003Z</time></trkpt><trkpt lat="44.81342176204904" lon="4.794403595801354"><ele>120.0</ele><time>2026-04-09T16:25:58.003Z</time></trkpt><trkpt lat="44.81330304069905" lon="4.794426625017417"><ele>119.0</ele><time>2026-04-09T16:26:00.003Z</time></trkpt><trkpt lat="44.81318293716617" lon="4.794464522490438"><ele>118.0</ele><time>2026-04-09T16:26:02.003Z</time></trkpt><trkpt lat="44.813062822542854" lon="4.794508212534061"><ele>118.0</ele><time>2026-04-09T16:26:04.003Z</time></trkpt><trkpt lat="44.812943735638406" lon="4.794539721637059"><ele>118.00000000000001</ele><time>2026-04-09T16:26:06.003Z</time></trkpt><trkpt lat="44.81284438933007" lon="4.794579504284646"><ele>118.00000000000001</ele><time>2026-04-09T16:26:08.003Z</time></trkpt><trkpt lat="44.81274581102547" lon="4.7946351366182824"><ele>118.0</ele><time>2026-04-09T16:26:10.003Z</time></trkpt><trkpt lat="44.812665609955175" lon="4.794692879683956"><ele>118.0</ele><time>2026-04-09T16:26:12.003Z</time></trkpt><trkpt lat="44.81260153973299" lon="4.794747177188251"><ele>116.83333333333334</ele><time>2026-04-09T16:26:14.003Z</time></trkpt><trkpt lat="44.81256141101984" lon="4.794833364871959"><ele>115.66666666666667</ele><time>2026-04-09T16:26:17.003Z</time></trkpt><trkpt lat="44.81254249508762" lon="4.794943614792126"><ele>114.5</ele><time>2026-04-09T16:26:19.003Z</time></trkpt><trkpt lat="44.812514755433625" lon="4.795061580346183"><ele>113.33333333333334</ele><time>2026-04-09T16:26:21.003Z</time></trkpt><trkpt lat="44.8124846164931" lon="4.795182431433333"><ele>112.16666666666667</ele><time>2026-04-09T16:26:23.003Z</time></trkpt><trkpt lat="44.81243650410486" lon="4.79532202750661"><ele>111.0</ele><time>2026-04-09T16:26:25.003Z</time></trkpt><trkpt lat="44.8123986706381" lon="4.795479183441549"><ele>110.66666666666667</ele><time>2026-04-09T16:26:27.003Z</time></trkpt><trkpt lat="44.81234188168084" lon="4.795632184337879"><ele>110.33333333333334</ele><time>2026-04-09T16:26:29.003Z</time></trkpt><trkpt lat="44.81231640379413" lon="4.79580286440803"><ele>110.0</ele><time>2026-04-09T16:26:31.003Z</time></trkpt><trkpt lat="44.81234097584917" lon="4.795886557685364"><ele>109.66666666666667</ele><time>2026-04-09T16:26:32.003Z</time></trkpt><trkpt lat="44.8123923604061" lon="4.795957929336573"><ele>109.33333333333334</ele><time>2026-04-09T16:26:33.003Z</time></trkpt><trkpt lat="44.81244573279561" lon="4.796006226360461"><ele>109.0</ele><time>2026-04-09T16:26:34.003Z</time></trkpt><trkpt lat="44.812546665803595" lon="4.79610076210547"><ele>109.80000000000001</ele><time>2026-04-09T16:26:36.003Z</time></trkpt><trkpt lat="44.81263748735733" lon="4.796207058166404"><ele>110.60000000000001</ele><time>2026-04-09T16:26:38.003Z</time></trkpt><trkpt lat="44.81270129424766" lon="4.796298111089742"><ele>111.4</ele><time>2026-04-09T16:26:40.003Z</time></trkpt><trkpt lat="44.81276124897054" lon="4.796381237946362"><ele>112.2</ele><time>2026-04-09T16:26:42.003Z</time></trkpt><trkpt lat="44.81282559358596" lon="4.796457228147678"><ele>113.0</ele><time>2026-04-09T16:26:44.003Z</time></trkpt><trkpt lat="44.812896683546526" lon="4.796538683079207"><ele>112.99999999999999</ele><time>2026-04-09T16:26:46.003Z</time></trkpt><trkpt lat="44.81297008569729" lon="4.796629468127685"><ele>113.0</ele><time>2026-04-09T16:26:48.003Z</time></trkpt><trkpt lat="44.81304686647081" lon="4.7967038413691"><ele>113.0</ele><time>2026-04-09T16:26:50.003Z</time></trkpt><trkpt lat="44.81311708505729" lon="4.7967737490044735"><ele>113.0</ele><time>2026-04-09T16:26:52.003Z</time></trkpt><trkpt lat="44.81318031964187" lon="4.7968357469345015"><ele>112.99999999999999</ele><time>2026-04-09T16:26:54.003Z</time></trkpt><trkpt lat="44.813248511027865" lon="4.79689937129235"><ele>113.0</ele><time>2026-04-09T16:26:56.003Z</time></trkpt><trkpt lat="44.813321440493525" lon="4.796946411649685"><ele>112.16666666666666</ele><time>2026-04-09T16:26:58.003Z</time></trkpt><trkpt lat="44.81339289180704" lon="4.796993080012774"><ele>111.33333333333333</ele><time>2026-04-09T16:27:00.003Z</time></trkpt><trkpt lat="44.813461689260095" lon="4.797033133186242"><ele>110.5</ele><time>2026-04-09T16:27:02.003Z</time></trkpt><trkpt lat="44.81353734482722" lon="4.797098342770193"><ele>109.66666666666666</ele><time>2026-04-09T16:27:04.003Z</time></trkpt><trkpt lat="44.81360693313016" lon="4.79719362060057"><ele>108.83333333333333</ele><time>2026-04-09T16:27:06.003Z</time></trkpt><trkpt lat="44.81368712796307" lon="4.797277882058717"><ele>108.0</ele><time>2026-04-09T16:27:08.003Z</time></trkpt><trkpt lat="44.81374705541964" lon="4.797368588772058"><ele>108.0</ele><time>2026-04-09T16:27:10.003Z</time></trkpt><trkpt lat="44.813824849646636" lon="4.797446024955688"><ele>108.00000000000001</ele><time>2026-04-09T16:27:12.003Z</time></trkpt><trkpt lat="44.813848472394916" lon="4.797604324356404"><ele>108.00000000000001</ele><time>2026-04-09T16:27:14.003Z</time></trkpt><trkpt lat="44.813827915791606" lon="4.797700906616122"><ele>108.0</ele><time>2026-04-09T16:27:15.003Z</time></trkpt><trkpt lat="44.81379958071548" lon="4.797788423423269"><ele>108.0</ele><time>2026-04-09T16:27:16.003Z</time></trkpt><trkpt lat="44.813757412861925" lon="4.797940533233488"><ele>106.2</ele><time>2026-04-09T16:27:18.003Z</time></trkpt><trkpt lat="44.813669343795006" lon="4.79801257410783"><ele>104.4</ele><time>2026-04-09T16:27:20.003Z</time></trkpt><trkpt lat="44.81357009471642" lon="4.798042810194187"><ele>102.60000000000001</ele><time>2026-04-09T16:27:22.003Z</time></trkpt><trkpt lat="44.813513899785946" lon="4.798138610314846"><ele>100.80000000000001</ele><time>2026-04-09T16:27:24.003Z</time></trkpt><trkpt lat="44.81347095583798" lon="4.798260364096935"><ele>99.0</ele><time>2026-04-09T16:27:26.003Z</time></trkpt><trkpt lat="44.813430237628594" lon="4.798342942445901"><ele>98.6</ele><time>2026-04-09T16:27:28.003Z</time></trkpt><trkpt lat="44.81342552489775" lon="4.798459954473859"><ele>98.2</ele><time>2026-04-09T16:27:31.003Z</time></trkpt><trkpt lat="44.81350574593879" lon="4.7985184471956215"><ele>97.8</ele><time>2026-04-09T16:27:33.003Z</time></trkpt><trkpt lat="44.81359761378012" lon="4.798562275232683"><ele>97.39999999999999</ele><time>2026-04-09T16:27:35.003Z</time></trkpt><trkpt lat="44.81369302630894" lon="4.798589998494527"><ele>97.0</ele><time>2026-04-09T16:27:37.003Z</time></trkpt><trkpt lat="44.81377582088847" lon="4.798629382728547"><ele>97.00000000000001</ele><time>2026-04-09T16:27:39.003Z</time></trkpt><trkpt lat="44.81386348424116" lon="4.7986478276279625"><ele>97.0</ele><time>2026-04-09T16:27:41.003Z</time></trkpt><trkpt lat="44.81393224911629" lon="4.798672671218764"><ele>97.0</ele><time>2026-04-09T16:27:43.003Z</time></trkpt><trkpt lat="44.814007963784526" lon="4.798697403577986"><ele>97.0</ele><time>2026-04-09T16:27:45.003Z</time></trkpt><trkpt lat="44.81408087521115" lon="4.798708301766089"><ele>97.00000000000001</ele><time>2026-04-09T16:27:47.003Z</time></trkpt><trkpt lat="44.814162510298786" lon="4.798737822752184"><ele>97.0</ele><time>2026-04-09T16:27:49.003Z</time></trkpt><trkpt lat="44.81424416674868" lon="4.798764091440934"><ele>97.00000000000001</ele><time>2026-04-09T16:27:51.003Z</time></trkpt><trkpt lat="44.81431023086218" lon="4.798783894169647"><ele>97.0</ele><time>2026-04-09T16:27:53.003Z</time></trkpt><trkpt lat="44.814394242731986" lon="4.7987933187822875"><ele>97.0</ele><time>2026-04-09T16:27:55.003Z</time></trkpt><trkpt lat="44.81448180823407" lon="4.798807050361315"><ele>97.0</ele><time>2026-04-09T16:27:57.002Z</time></trkpt><trkpt lat="44.814582646156296" lon="4.798832982682023"><ele>97.00000000000001</ele><time>2026-04-09T16:27:59.002Z</time></trkpt><trkpt lat="44.81468001203725" lon="4.798869131488004"><ele>97.0</ele><time>2026-04-09T16:28:01.003Z</time></trkpt><trkpt lat="44.8147788460323" lon="4.798905899411482"><ele>97.39999999999999</ele><time>2026-04-09T16:28:03.003Z</time></trkpt><trkpt lat="44.814873968430916" lon="4.798933205661413"><ele>97.8</ele><time>2026-04-09T16:28:05.002Z</time></trkpt><trkpt lat="44.81496321345357" lon="4.7989531077448255"><ele>98.2</ele><time>2026-04-09T16:28:07.002Z</time></trkpt><trkpt lat="44.81505665335962" lon="4.79894946299756"><ele>98.6</ele><time>2026-04-09T16:28:09.002Z</time></trkpt><trkpt lat="44.81515224765063" lon="4.798940640020879"><ele>99.0</ele><time>2026-04-09T16:28:11.003Z</time></trkpt><trkpt lat="44.81523896784611" lon="4.798939239736593"><ele>98.16666666666667</ele><time>2026-04-09T16:28:13.003Z</time></trkpt><trkpt lat="44.81532699678397" lon="4.798918786362681"><ele>97.33333333333333</ele><time>2026-04-09T16:28:15.003Z</time></trkpt><trkpt lat="44.81541986542609" lon="4.798905871603943"><ele>96.5</ele><time>2026-04-09T16:28:17.003Z</time></trkpt><trkpt lat="44.81546971802402" lon="4.7989601155585575"><ele>95.66666666666666</ele><time>2026-04-09T16:28:20.003Z</time></trkpt><trkpt lat="44.815445263560676" lon="4.799085214087522"><ele>94.83333333333333</ele><time>2026-04-09T16:28:22.003Z</time></trkpt><trkpt lat="44.81538689554012" lon="4.799134344374203"><ele>94.0</ele><time>2026-04-09T16:28:25.003Z</time></trkpt><trkpt lat="44.815406025422114" lon="4.799231618973536"><ele>94.0</ele><time>2026-04-09T16:28:28.003Z</time></trkpt><trkpt lat="44.81545086939644" lon="4.799322985155546"><ele>94.0</ele><time>2026-04-09T16:28:32.003Z</time></trkpt><trkpt lat="44.815491238415845" lon="4.799392661907397"><ele>94.0</ele><time>2026-04-09T16:28:35.003Z</time></trkpt><trkpt lat="44.81553853617658" lon="4.799471477645074"><ele>94.0</ele><time>2026-04-09T16:28:39.003Z</time></trkpt><trkpt lat="44.8155809622456" lon="4.799542207469645"><ele>94.0</ele><time>2026-04-09T16:28:42.003Z</time></trkpt><trkpt lat="44.81562707340886" lon="4.79963079797898"><ele>94.0</ele><time>2026-04-09T16:28:45.003Z</time></trkpt><trkpt lat="44.81568186441792" lon="4.799711619772962"><ele>94.0</ele><time>2026-04-09T16:28:49.003Z</time></trkpt><trkpt lat="44.815744909154866" lon="4.799804470885517"><ele>94.0</ele><time>2026-04-09T16:28:52.003Z</time></trkpt><trkpt lat="44.815787541839946" lon="4.799874912360397"><ele>94.0</ele><time>2026-04-09T16:28:54.003Z</time></trkpt><trkpt lat="44.81582558774883" lon="4.799957951850862"><ele>94.0</ele><time>2026-04-09T16:28:56.003Z</time></trkpt><trkpt lat="44.81588454243982" lon="4.800054624733468"><ele>94.0</ele><time>2026-04-09T16:28:58.003Z</time></trkpt><trkpt lat="44.81592738127501" lon="4.800141550638028"><ele>94.0</ele><time>2026-04-09T16:29:00.003Z</time></trkpt><trkpt lat="44.81597908990376" lon="4.8002111230539"><ele>94.0</ele><time>2026-04-09T16:29:02.003Z</time></trkpt><trkpt lat="44.81602503171619" lon="4.800286074279156"><ele>94.0</ele><time>2026-04-09T16:29:04.003Z</time></trkpt><trkpt lat="44.81608001615432" lon="4.800372549213176"><ele>94.0</ele><time>2026-04-09T16:29:06.003Z</time></trkpt><trkpt lat="44.81612784170801" lon="4.800454532104694"><ele>94.0</ele><time>2026-04-09T16:29:08.003Z</time></trkpt><trkpt lat="44.81617041282921" lon="4.800534589587246"><ele>94.0</ele><time>2026-04-09T16:29:10.003Z</time></trkpt><trkpt lat="44.81621306980014" lon="4.800617852059604"><ele>94.0</ele><time>2026-04-09T16:29:12.003Z</time></trkpt><trkpt lat="44.81625968247583" lon="4.800697598604081"><ele>94.0</ele><time>2026-04-09T16:29:14.003Z</time></trkpt><trkpt lat="44.816307073089014" lon="4.800769578879047"><ele>94.0</ele><time>2026-04-09T16:29:16.003Z</time></trkpt><trkpt lat="44.81634753293247" lon="4.800855256047331"><ele>94.0</ele><time>2026-04-09T16:29:18.003Z</time></trkpt><trkpt lat="44.816396112606235" lon="4.800938428757192"><ele>94.0</ele><time>2026-04-09T16:29:20.003Z</time></trkpt><trkpt lat="44.81644482270951" lon="4.801026092331689"><ele>94.0</ele><time>2026-04-09T16:29:22.003Z</time></trkpt><trkpt lat="44.81649590313906" lon="4.80110387770921"><ele>94.0</ele><time>2026-04-09T16:29:24.003Z</time></trkpt><trkpt lat="44.816543820469164" lon="4.801174910806985"><ele>94.0</ele><time>2026-04-09T16:29:26.003Z</time></trkpt><trkpt lat="44.81659378038473" lon="4.801241155722274"><ele>94.0</ele><time>2026-04-09T16:29:28.003Z</time></trkpt><trkpt lat="44.81664244647509" lon="4.801306620498393"><ele>94.0</ele><time>2026-04-09T16:29:30.003Z</time></trkpt><trkpt lat="44.81670765772975" lon="4.80139967813833"><ele>94.0</ele><time>2026-04-09T16:29:33.003Z</time></trkpt><trkpt lat="44.81676269792775" lon="4.8014451711932145"><ele>94.0</ele><time>2026-04-09T16:29:35.003Z</time></trkpt><trkpt lat="44.81683279440929" lon="4.801446637378091"><ele>94.0</ele><time>2026-04-09T16:29:37.003Z</time></trkpt><trkpt lat="44.81690878160997" lon="4.80144660913998"><ele>94.0</ele><time>2026-04-09T16:29:39.003Z</time></trkpt><trkpt lat="44.81698907659432" lon="4.8014536395570016"><ele>94.0</ele><time>2026-04-09T16:29:41.003Z</time></trkpt><trkpt lat="44.81706346086452" lon="4.801443110612342"><ele>94.0</ele><time>2026-04-09T16:29:43.003Z</time></trkpt><trkpt lat="44.8171462186665" lon="4.801438642497049"><ele>94.0</ele><time>2026-04-09T16:29:45.003Z</time></trkpt><trkpt lat="44.81722725619429" lon="4.80143191815325"><ele>94.0</ele><time>2026-04-09T16:29:47.003Z</time></trkpt><trkpt lat="44.8173132014521" lon="4.80141669312804"><ele>94.0</ele><time>2026-04-09T16:29:49.003Z</time></trkpt><trkpt lat="44.817398406459496" lon="4.801412589164657"><ele>94.0</ele><time>2026-04-09T16:29:51.003Z</time></trkpt><trkpt lat="44.817486275583825" lon="4.801405250158207"><ele>94.0</ele><time>2026-04-09T16:29:53.003Z</time></trkpt><trkpt lat="44.817578399468815" lon="4.801398389835471"><ele>94.0</ele><time>2026-04-09T16:29:55.003Z</time></trkpt><trkpt lat="44.81765946812514" lon="4.801390351948338"><ele>94.0</ele><time>2026-04-09T16:29:57.003Z</time></trkpt><trkpt lat="44.81775004210379" lon="4.801390403406313"><ele>94.0</ele><time>2026-04-09T16:29:59.003Z</time></trkpt><trkpt lat="44.81783583560696" lon="4.801382083575867"><ele>94.0</ele><time>2026-04-09T16:30:01.003Z</time></trkpt><trkpt lat="44.817919639425504" lon="4.801365759495967"><ele>94.0</ele><time>2026-04-09T16:30:03.003Z</time></trkpt><trkpt lat="44.81801057281306" lon="4.801367725138886"><ele>94.0</ele><time>2026-04-09T16:30:05.003Z</time></trkpt><trkpt lat="44.81810004571434" lon="4.801361309023112"><ele>94.0</ele><time>2026-04-09T16:30:07.003Z</time></trkpt><trkpt lat="44.81819103682142" lon="4.8013420813261405"><ele>94.0</ele><time>2026-04-09T16:30:09.003Z</time></trkpt><trkpt lat="44.81828040266076" lon="4.801323703855865"><ele>94.0</ele><time>2026-04-09T16:30:11.003Z</time></trkpt><trkpt lat="44.81837413588666" lon="4.80132519624256"><ele>94.0</ele><time>2026-04-09T16:30:13.003Z</time></trkpt><trkpt lat="44.81846548870111" lon="4.801305809849824"><ele>94.0</ele><time>2026-04-09T16:30:15.003Z</time></trkpt><trkpt lat="44.81855043721569" lon="4.80129011975108"><ele>94.0</ele><time>2026-04-09T16:30:17.002Z</time></trkpt><trkpt lat="44.81864940911185" lon="4.801280666988562"><ele>94.0</ele><time>2026-04-09T16:30:19.002Z</time></trkpt><trkpt lat="44.81874124871577" lon="4.801262344469038"><ele>94.4</ele><time>2026-04-09T16:30:21.002Z</time></trkpt><trkpt lat="44.81882817972912" lon="4.801256793973437"><ele>94.80000000000001</ele><time>2026-04-09T16:30:23.002Z</time></trkpt><trkpt lat="44.818923099446295" lon="4.801249709134475"><ele>95.19999999999999</ele><time>2026-04-09T16:30:25.002Z</time></trkpt><trkpt lat="44.8190195554853" lon="4.801230597050037"><ele>95.6</ele><time>2026-04-09T16:30:27.003Z</time></trkpt><trkpt lat="44.819116048201025" lon="4.80121557632195"><ele>96.0</ele><time>2026-04-09T16:30:29.003Z</time></trkpt><trkpt lat="44.819201567893515" lon="4.801184885685024"><ele>96.0</ele><time>2026-04-09T16:30:31.003Z</time></trkpt><trkpt lat="44.81929029461848" lon="4.801160359805919"><ele>96.0</ele><time>2026-04-09T16:30:33.003Z</time></trkpt><trkpt lat="44.819375156368324" lon="4.801146502859126"><ele>96.0</ele><time>2026-04-09T16:30:35.003Z</time></trkpt><trkpt lat="44.819460229469136" lon="4.80112433236204"><ele>96.0</ele><time>2026-04-09T16:30:37.003Z</time></trkpt><trkpt lat="44.81954633729655" lon="4.801115890127253"><ele>96.0</ele><time>2026-04-09T16:30:39.003Z</time></trkpt><trkpt lat="44.81964492003829" lon="4.801109681366856"><ele>96.0</ele><time>2026-04-09T16:30:41.003Z</time></trkpt><trkpt lat="44.81973033497817" lon="4.801105819131812"><ele>95.83333333333333</ele><time>2026-04-09T16:30:43.003Z</time></trkpt><trkpt lat="44.819825503548266" lon="4.80110255948728"><ele>95.66666666666667</ele><time>2026-04-09T16:30:45.003Z</time></trkpt><trkpt lat="44.81991779008283" lon="4.801089412201436"><ele>95.5</ele><time>2026-04-09T16:30:47.003Z</time></trkpt><trkpt lat="44.82000130131874" lon="4.801082427121801"><ele>95.33333333333334</ele><time>2026-04-09T16:30:49.003Z</time></trkpt><trkpt lat="44.82009014951494" lon="4.801066382596902"><ele>95.16666666666667</ele><time>2026-04-09T16:30:51.003Z</time></trkpt><trkpt lat="44.82017716301716" lon="4.801060786381328"><ele>95.0</ele><time>2026-04-09T16:30:53.003Z</time></trkpt><trkpt lat="44.82025915295933" lon="4.801045875867058"><ele>94.83333333333334</ele><time>2026-04-09T16:30:55.003Z</time></trkpt><trkpt lat="44.82033223650318" lon="4.801044123271229"><ele>94.66666666666667</ele><time>2026-04-09T16:30:57.003Z</time></trkpt><trkpt lat="44.820404753206915" lon="4.801033840314645"><ele>94.5</ele><time>2026-04-09T16:30:59.003Z</time></trkpt><trkpt lat="44.820483101533085" lon="4.80102278599286"><ele>94.33333333333333</ele><time>2026-04-09T16:31:01.003Z</time></trkpt><trkpt lat="44.820555137975305" lon="4.8009933268198015"><ele>94.16666666666666</ele><time>2026-04-09T16:31:03.003Z</time></trkpt><trkpt lat="44.820623918031465" lon="4.800969942151516"><ele>94.0</ele><time>2026-04-09T16:31:05.003Z</time></trkpt><trkpt lat="44.82071931041071" lon="4.800966057580885"><ele>94.0</ele><time>2026-04-09T16:31:07.003Z</time></trkpt><trkpt lat="44.820813361627444" lon="4.800951401414876"><ele>94.0</ele><time>2026-04-09T16:31:09.003Z</time></trkpt><trkpt lat="44.82091373359681" lon="4.800938376438453"><ele>94.0</ele><time>2026-04-09T16:31:11.003Z</time></trkpt><trkpt lat="44.820996772263825" lon="4.800925653633799"><ele>94.0</ele><time>2026-04-09T16:31:13.003Z</time></trkpt><trkpt lat="44.82108082211503" lon="4.800908869158448"><ele>94.0</ele><time>2026-04-09T16:31:15.003Z</time></trkpt><trkpt lat="44.82115486380358" lon="4.800878538315156"><ele>94.0</ele><time>2026-04-09T16:31:17.003Z</time></trkpt><trkpt lat="44.82123428443989" lon="4.800842622311758"><ele>94.0</ele><time>2026-04-09T16:31:19.003Z</time></trkpt><trkpt lat="44.82130886752937" lon="4.800801963807843"><ele>94.0</ele><time>2026-04-09T16:31:21.003Z</time></trkpt><trkpt lat="44.8213887260868" lon="4.800762257519535"><ele>94.0</ele><time>2026-04-09T16:31:23.003Z</time></trkpt><trkpt lat="44.82146743182225" lon="4.800717174632516"><ele>94.0</ele><time>2026-04-09T16:31:25.003Z</time></trkpt><trkpt lat="44.82154326221745" lon="4.800669619138308"><ele>94.0</ele><time>2026-04-09T16:31:27.003Z</time></trkpt><trkpt lat="44.821625266806166" lon="4.800621978139369"><ele>94.0</ele><time>2026-04-09T16:31:29.003Z</time></trkpt><trkpt lat="44.82169530767885" lon="4.800575267777899"><ele>94.0</ele><time>2026-04-09T16:31:31.003Z</time></trkpt><trkpt lat="44.82176197347833" lon="4.800521189177907"><ele>94.0</ele><time>2026-04-09T16:31:33.003Z</time></trkpt><trkpt lat="44.82182871694252" lon="4.800458086661966"><ele>94.0</ele><time>2026-04-09T16:31:35.003Z</time></trkpt><trkpt lat="44.821889005507195" lon="4.800385338913003"><ele>94.0</ele><time>2026-04-09T16:31:37.003Z</time></trkpt><trkpt lat="44.82192488579501" lon="4.800295293242045"><ele>94.0</ele><time>2026-04-09T16:31:39.003Z</time></trkpt><trkpt lat="44.821972411729355" lon="4.800200220639648"><ele>94.0</ele><time>2026-04-09T16:31:41.003Z</time></trkpt><trkpt lat="44.822010980718034" lon="4.800110386569496"><ele>94.66666666666666</ele><time>2026-04-09T16:31:43.003Z</time></trkpt><trkpt lat="44.82205495363906" lon="4.800016983569072"><ele>95.33333333333333</ele><time>2026-04-09T16:31:45.003Z</time></trkpt><trkpt lat="44.82212323089297" lon="4.799948526065042"><ele>96.0</ele><time>2026-04-09T16:31:47.003Z</time></trkpt><trkpt lat="44.82219367571302" lon="4.799897519863357"><ele>96.66666666666666</ele><time>2026-04-09T16:31:49.003Z</time></trkpt><trkpt lat="44.82226600905984" lon="4.799847423941103"><ele>97.33333333333333</ele><time>2026-04-09T16:31:51.003Z</time></trkpt><trkpt lat="44.822333708578434" lon="4.799799872818993"><ele>98.0</ele><time>2026-04-09T16:31:53.003Z</time></trkpt><trkpt lat="44.8224078617069" lon="4.799754853896905"><ele>97.99999999999999</ele><time>2026-04-09T16:31:55.003Z</time></trkpt><trkpt lat="44.822482380609465" lon="4.799706316106324"><ele>98.0</ele><time>2026-04-09T16:31:57.003Z</time></trkpt><trkpt lat="44.822562672537245" lon="4.799670366784846"><ele>98.0</ele><time>2026-04-09T16:31:59.003Z</time></trkpt><trkpt lat="44.82263945066192" lon="4.79962513301353"><ele>98.0</ele><time>2026-04-09T16:32:01.003Z</time></trkpt><trkpt lat="44.8227248312427" lon="4.799598061222926"><ele>97.99999999999999</ele><time>2026-04-09T16:32:03.003Z</time></trkpt><trkpt lat="44.822812583987854" lon="4.799573352088918"><ele>98.0</ele><time>2026-04-09T16:32:05.003Z</time></trkpt><trkpt lat="44.82289082288915" lon="4.799530288675111"><ele>97.99999999999999</ele><time>2026-04-09T16:32:07.003Z</time></trkpt><trkpt lat="44.82295283541227" lon="4.7994540132067405"><ele>98.0</ele><time>2026-04-09T16:32:09.003Z</time></trkpt><trkpt lat="44.82300852362461" lon="4.799383746986381"><ele>98.0</ele><time>2026-04-09T16:32:11.002Z</time></trkpt><trkpt lat="44.823077524745" lon="4.799339858893686"><ele>98.0</ele><time>2026-04-09T16:32:13.003Z</time></trkpt><trkpt lat="44.82314970918011" lon="4.799282236232434"><ele>97.99999999999999</ele><time>2026-04-09T16:32:15.003Z</time></trkpt><trkpt lat="44.8232028745869" lon="4.7992072704818955"><ele>98.0</ele><time>2026-04-09T16:32:17.003Z</time></trkpt><trkpt lat="44.823267873619436" lon="4.79913792126818"><ele>97.83333333333333</ele><time>2026-04-09T16:32:19.002Z</time></trkpt><trkpt lat="44.82333053278949" lon="4.799061851278227"><ele>97.66666666666666</ele><time>2026-04-09T16:32:21.003Z</time></trkpt><trkpt lat="44.82337469340042" lon="4.798974529205759"><ele>97.5</ele><time>2026-04-09T16:32:23.003Z</time></trkpt><trkpt lat="44.823415035609" lon="4.798902826865635"><ele>97.33333333333334</ele><time>2026-04-09T16:32:25.003Z</time></trkpt><trkpt lat="44.82346133222592" lon="4.7988102290626555"><ele>97.16666666666667</ele><time>2026-04-09T16:32:28.003Z</time></trkpt><trkpt lat="44.82350333962773" lon="4.798726531495227"><ele>97.0</ele><time>2026-04-09T16:32:31.003Z</time></trkpt><trkpt lat="44.82355193905734" lon="4.79864216876023"><ele>97.16666666666667</ele><time>2026-04-09T16:32:34.003Z</time></trkpt><trkpt lat="44.823593163177605" lon="4.798555312278892"><ele>97.33333333333334</ele><time>2026-04-09T16:32:37.003Z</time></trkpt><trkpt lat="44.82363542497846" lon="4.798459512543737"><ele>97.5</ele><time>2026-04-09T16:32:40.003Z</time></trkpt><trkpt lat="44.82366633118527" lon="4.798340500189283"><ele>97.66666666666666</ele><time>2026-04-09T16:32:43.003Z</time></trkpt><trkpt lat="44.82370088241356" lon="4.798224462267793"><ele>97.83333333333333</ele><time>2026-04-09T16:32:46.003Z</time></trkpt><trkpt lat="44.82374787133646" lon="4.798120489861555"><ele>98.0</ele><time>2026-04-09T16:32:49.003Z</time></trkpt><trkpt lat="44.82380817111423" lon="4.798066680282352"><ele>98.0</ele><time>2026-04-09T16:32:52.003Z</time></trkpt><trkpt lat="44.82386419869755" lon="4.798152637620288"><ele>98.0</ele><time>2026-04-09T16:32:55.003Z</time></trkpt><trkpt lat="44.82390765166093" lon="4.7982280506923605"><ele>98.0</ele><time>2026-04-09T16:32:57.003Z</time></trkpt><trkpt lat="44.82394969798999" lon="4.798297224148248"><ele>98.0</ele><time>2026-04-09T16:32:59.003Z</time></trkpt><trkpt lat="44.82399167448994" lon="4.798368122289386"><ele>98.0</ele><time>2026-04-09T16:33:01.003Z</time></trkpt><trkpt lat="44.82403554935292" lon="4.798441031855161"><ele>98.0</ele><time>2026-04-09T16:33:03.003Z</time></trkpt><trkpt lat="44.82407393949395" lon="4.7985191676481165"><ele>98.0</ele><time>2026-04-09T16:33:05.003Z</time></trkpt><trkpt lat="44.82411453811752" lon="4.7985926317514735"><ele>97.49999999999999</ele><time>2026-04-09T16:33:07.003Z</time></trkpt><trkpt lat="44.82417377639665" lon="4.798708996395452"><ele>97.0</ele><time>2026-04-09T16:33:10.003Z</time></trkpt><trkpt lat="44.82421620731672" lon="4.79877936776633"><ele>96.5</ele><time>2026-04-09T16:33:12.003Z</time></trkpt><trkpt lat="44.82425559483264" lon="4.798863886855784"><ele>96.0</ele><time>2026-04-09T16:33:14.003Z</time></trkpt><trkpt lat="44.8242944557771" lon="4.798945956720569"><ele>95.5</ele><time>2026-04-09T16:33:16.003Z</time></trkpt><trkpt lat="44.824334566602744" lon="4.799027587866283"><ele>95.0</ele><time>2026-04-09T16:33:18.003Z</time></trkpt><trkpt lat="44.82437830626691" lon="4.7991101073571665"><ele>95.0</ele><time>2026-04-09T16:33:20.003Z</time></trkpt><trkpt lat="44.82441939329424" lon="4.799201761489516"><ele>95.0</ele><time>2026-04-09T16:33:22.003Z</time></trkpt><trkpt lat="44.82446233983051" lon="4.79928207724005"><ele>95.0</ele><time>2026-04-09T16:33:24.003Z</time></trkpt><trkpt lat="44.82450255046461" lon="4.799365671657381"><ele>95.0</ele><time>2026-04-09T16:33:26.003Z</time></trkpt><trkpt lat="44.82454607383809" lon="4.799440215791503"><ele>95.0</ele><time>2026-04-09T16:33:28.003Z</time></trkpt><trkpt lat="44.82458474687738" lon="4.799523270235698"><ele>95.0</ele><time>2026-04-09T16:33:30.003Z</time></trkpt><trkpt lat="44.82463106642596" lon="4.799612306922077"><ele>95.0</ele><time>2026-04-09T16:33:32.003Z</time></trkpt><trkpt lat="44.824672938629895" lon="4.799695685056827"><ele>95.16666666666667</ele><time>2026-04-09T16:33:34.003Z</time></trkpt><trkpt lat="44.82471695322835" lon="4.799772367131509"><ele>95.33333333333334</ele><time>2026-04-09T16:33:36.003Z</time></trkpt><trkpt lat="44.824759219697434" lon="4.799846103792868"><ele>95.5</ele><time>2026-04-09T16:33:38.003Z</time></trkpt><trkpt lat="44.824776742073674" lon="4.799945433043938"><ele>95.66666666666667</ele><time>2026-04-09T16:33:41.003Z</time></trkpt><trkpt lat="44.824694079236224" lon="4.799986741136617"><ele>95.83333333333333</ele><time>2026-04-09T16:33:43.003Z</time></trkpt><trkpt lat="44.82460168648158" lon="4.800030116587032"><ele>96.0</ele><time>2026-04-09T16:33:45.003Z</time></trkpt><trkpt lat="44.82451518073049" lon="4.800108557049056"><ele>96.4</ele><time>2026-04-09T16:33:47.003Z</time></trkpt><trkpt lat="44.824436033217104" lon="4.800183620838463"><ele>96.8</ele><time>2026-04-09T16:33:49.003Z</time></trkpt><trkpt lat="44.824354519154795" lon="4.800243564046213"><ele>97.2</ele><time>2026-04-09T16:33:51.003Z</time></trkpt><trkpt lat="44.82426431587603" lon="4.800318438367843"><ele>97.60000000000001</ele><time>2026-04-09T16:33:53.003Z</time></trkpt><trkpt lat="44.82417162445267" lon="4.800392536795302"><ele>98.0</ele><time>2026-04-09T16:33:55.003Z</time></trkpt><trkpt lat="44.824083275289226" lon="4.800466625771928"><ele>97.99999999999999</ele><time>2026-04-09T16:33:57.003Z</time></trkpt><trkpt lat="44.82398384775577" lon="4.800524139761052"><ele>98.0</ele><time>2026-04-09T16:33:59.003Z</time></trkpt><trkpt lat="44.823904778929275" lon="4.800588017684643"><ele>98.0</ele><time>2026-04-09T16:34:01.003Z</time></trkpt><trkpt lat="44.82383236979436" lon="4.800651476215223"><ele>98.0</ele><time>2026-04-09T16:34:03.003Z</time></trkpt><trkpt lat="44.82375145507535" lon="4.800700860126946"><ele>97.99999999999999</ele><time>2026-04-09T16:34:05.003Z</time></trkpt><trkpt lat="44.823683758555624" lon="4.800742022543478"><ele>98.0</ele><time>2026-04-09T16:34:07.003Z</time></trkpt><trkpt lat="44.823606665432095" lon="4.800779659308041"><ele>98.0</ele><time>2026-04-09T16:34:09.003Z</time></trkpt><trkpt lat="44.82353794353838" lon="4.800806088791656"><ele>98.0</ele><time>2026-04-09T16:34:11.003Z</time></trkpt><trkpt lat="44.82346837887642" lon="4.800813151169821"><ele>98.0</ele><time>2026-04-09T16:34:13.003Z</time></trkpt><trkpt lat="44.82342254079932" lon="4.800875146241621"><ele>98.0</ele><time>2026-04-09T16:34:16.003Z</time></trkpt><trkpt lat="44.82349257200498" lon="4.8009248354129035"><ele>98.0</ele><time>2026-04-09T16:34:19.003Z</time></trkpt><trkpt lat="44.82355625171915" lon="4.800879643925509"><ele>98.0</ele><time>2026-04-09T16:34:21.004Z</time></trkpt><trkpt lat="44.823625828671084" lon="4.800861453376825"><ele>98.0</ele><time>2026-04-09T16:34:23.003Z</time></trkpt><trkpt lat="44.823706587126104" lon="4.800841187296551"><ele>98.0</ele><time>2026-04-09T16:34:25.003Z</time></trkpt><trkpt lat="44.823782322985586" lon="4.8008294497046515"><ele>98.0</ele><time>2026-04-09T16:34:27.003Z</time></trkpt><trkpt lat="44.82386622311059" lon="4.800827111781765"><ele>98.0</ele><time>2026-04-09T16:34:29.003Z</time></trkpt><trkpt lat="44.82395813116525" lon="4.80083351047912"><ele>98.0</ele><time>2026-04-09T16:34:31.003Z</time></trkpt><trkpt lat="44.82405612099959" lon="4.800868200060754"><ele>98.0</ele><time>2026-04-09T16:34:33.003Z</time></trkpt><trkpt lat="44.82414488317771" lon="4.800940686817005"><ele>97.80000000000001</ele><time>2026-04-09T16:34:35.003Z</time></trkpt><trkpt lat="44.82422533621818" lon="4.801017672496998"><ele>97.6</ele><time>2026-04-09T16:34:37.003Z</time></trkpt><trkpt lat="44.82429683789373" lon="4.801090335829026"><ele>97.4</ele><time>2026-04-09T16:34:39.003Z</time></trkpt><trkpt lat="44.82436559079552" lon="4.801167852126769"><ele>97.19999999999999</ele><time>2026-04-09T16:34:41.003Z</time></trkpt><trkpt lat="44.824433483350376" lon="4.8012469795153825"><ele>97.0</ele><time>2026-04-09T16:34:43.003Z</time></trkpt><trkpt lat="44.82450434300112" lon="4.8013213080248764"><ele>97.0</ele><time>2026-04-09T16:34:45.003Z</time></trkpt><trkpt lat="44.82457541883886" lon="4.801394064594662"><ele>97.0</ele><time>2026-04-09T16:34:47.003Z</time></trkpt><trkpt lat="44.824645649758374" lon="4.801474128140998"><ele>97.0</ele><time>2026-04-09T16:34:49.003Z</time></trkpt><trkpt lat="44.82472205208316" lon="4.801555194896491"><ele>97.0</ele><time>2026-04-09T16:34:51.003Z</time></trkpt><trkpt lat="44.82479313169532" lon="4.801626296762833"><ele>97.0</ele><time>2026-04-09T16:34:53.003Z</time></trkpt><trkpt lat="44.82486549498502" lon="4.801705964167666"><ele>97.00000000000001</ele><time>2026-04-09T16:34:55.003Z</time></trkpt><trkpt lat="44.824940222018824" lon="4.801784458467054"><ele>97.0</ele><time>2026-04-09T16:34:57.003Z</time></trkpt><trkpt lat="44.82500787141303" lon="4.801862878431355"><ele>97.0</ele><time>2026-04-09T16:34:59.003Z</time></trkpt><trkpt lat="44.825067055196826" lon="4.801949366963614"><ele>97.0</ele><time>2026-04-09T16:35:01.003Z</time></trkpt><trkpt lat="44.82512831993758" lon="4.802039237092956"><ele>97.00000000000001</ele><time>2026-04-09T16:35:03.003Z</time></trkpt><trkpt lat="44.82520013991465" lon="4.802112510741863"><ele>97.0</ele><time>2026-04-09T16:35:05.003Z</time></trkpt><trkpt lat="44.82525850034666" lon="4.802200792367317"><ele>97.16666666666667</ele><time>2026-04-09T16:35:07.003Z</time></trkpt><trkpt lat="44.825319732349044" lon="4.8022975799818335"><ele>97.33333333333334</ele><time>2026-04-09T16:35:09.003Z</time></trkpt><trkpt lat="44.82537342893842" lon="4.8023976019963"><ele>97.5</ele><time>2026-04-09T16:35:11.003Z</time></trkpt><trkpt lat="44.82540954999166" lon="4.802506799269455"><ele>97.66666666666666</ele><time>2026-04-09T16:35:13.003Z</time></trkpt><trkpt lat="44.82544697565252" lon="4.802604922819486"><ele>97.83333333333333</ele><time>2026-04-09T16:35:15.003Z</time></trkpt><trkpt lat="44.82549050466406" lon="4.802700943510716"><ele>98.0</ele><time>2026-04-09T16:35:17.003Z</time></trkpt><trkpt lat="44.82554005807704" lon="4.802811952619557"><ele>98.16666666666666</ele><time>2026-04-09T16:35:19.003Z</time></trkpt><trkpt lat="44.825586117539956" lon="4.8029194882174675"><ele>98.33333333333333</ele><time>2026-04-09T16:35:21.003Z</time></trkpt><trkpt lat="44.82562362126773" lon="4.803012811158882"><ele>98.5</ele><time>2026-04-09T16:35:23.003Z</time></trkpt><trkpt lat="44.82567646921211" lon="4.803108239147644"><ele>98.66666666666666</ele><time>2026-04-09T16:35:26.003Z</time></trkpt><trkpt lat="44.825740291375176" lon="4.8031002615327445"><ele>98.83333333333333</ele><time>2026-04-09T16:35:28.003Z</time></trkpt><trkpt lat="44.8258085887076" lon="4.803011583733225"><ele>99.0</ele><time>2026-04-09T16:35:30.003Z</time></trkpt><trkpt lat="44.82587563051626" lon="4.8029368566440205"><ele>99.0</ele><time>2026-04-09T16:35:32.003Z</time></trkpt><trkpt lat="44.825952257681344" lon="4.802861591340151"><ele>99.0</ele><time>2026-04-09T16:35:34.003Z</time></trkpt><trkpt lat="44.8260171394543" lon="4.802809659252993"><ele>99.0</ele><time>2026-04-09T16:35:36.003Z</time></trkpt><trkpt lat="44.82610162284647" lon="4.8028368022886"><ele>99.0</ele><time>2026-04-09T16:35:39.003Z</time></trkpt><trkpt lat="44.826168855117345" lon="4.802823446486263"><ele>99.0</ele><time>2026-04-09T16:35:41.003Z</time></trkpt><trkpt lat="44.82624526879403" lon="4.802846854136755"><ele>99.0</ele><time>2026-04-09T16:35:44.003Z</time></trkpt><trkpt lat="44.826289995863334" lon="4.80292017289905"><ele>99.83333333333333</ele><time>2026-04-09T16:35:46.003Z</time></trkpt><trkpt lat="44.82635112628004" lon="4.803010590705794"><ele>100.66666666666666</ele><time>2026-04-09T16:35:48.003Z</time></trkpt><trkpt lat="44.82639902207974" lon="4.803095945569711"><ele>101.5</ele><time>2026-04-09T16:35:50.003Z</time></trkpt><trkpt lat="44.8264596290592" lon="4.803183374314818"><ele>102.33333333333333</ele><time>2026-04-09T16:35:52.003Z</time></trkpt><trkpt lat="44.82651689479791" lon="4.803278379307748"><ele>103.16666666666666</ele><time>2026-04-09T16:35:54.003Z</time></trkpt><trkpt lat="44.82657474615294" lon="4.803370864104431"><ele>104.0</ele><time>2026-04-09T16:35:56.003Z</time></trkpt><trkpt lat="44.826637252400396" lon="4.803458902804966"><ele>103.0</ele><time>2026-04-09T16:35:58.003Z</time></trkpt><trkpt lat="44.82669307873093" lon="4.803550929160699"><ele>102.0</ele><time>2026-04-09T16:36:00.003Z</time></trkpt><trkpt lat="44.82676851388696" lon="4.803635718363789"><ele>101.0</ele><time>2026-04-09T16:36:02.003Z</time></trkpt><trkpt lat="44.826846924721444" lon="4.803718218407343"><ele>100.0</ele><time>2026-04-09T16:36:04.003Z</time></trkpt><trkpt lat="44.826910836366054" lon="4.803801239116551"><ele>99.0</ele><time>2026-04-09T16:36:06.003Z</time></trkpt><trkpt lat="44.826984193086474" lon="4.8038605876180895"><ele>100.83333333333333</ele><time>2026-04-09T16:36:08.003Z</time></trkpt><trkpt lat="44.82705331275452" lon="4.8039269746397135"><ele>102.66666666666666</ele><time>2026-04-09T16:36:10.003Z</time></trkpt><trkpt lat="44.82712782895581" lon="4.803990923704055"><ele>104.5</ele><time>2026-04-09T16:36:12.003Z</time></trkpt><trkpt lat="44.827192111649566" lon="4.804067176831366"><ele>106.33333333333333</ele><time>2026-04-09T16:36:14.003Z</time></trkpt><trkpt lat="44.8272525100316" lon="4.804143264234784"><ele>108.16666666666666</ele><time>2026-04-09T16:36:16.003Z</time></trkpt><trkpt lat="44.82731372547893" lon="4.804216661217449"><ele>110.0</ele><time>2026-04-09T16:36:18.003Z</time></trkpt><trkpt lat="44.827364621327035" lon="4.804287886148042"><ele>110.16666666666666</ele><time>2026-04-09T16:36:20.003Z</time></trkpt><trkpt lat="44.827432748811795" lon="4.804360221972761"><ele>110.33333333333333</ele><time>2026-04-09T16:36:22.003Z</time></trkpt><trkpt lat="44.82749440318984" lon="4.804436537806764"><ele>110.5</ele><time>2026-04-09T16:36:24.004Z</time></trkpt><trkpt lat="44.827560899321675" lon="4.804511478509047"><ele>110.66666666666666</ele><time>2026-04-09T16:36:26.003Z</time></trkpt><trkpt lat="44.82763063509466" lon="4.804582450414642"><ele>110.83333333333333</ele><time>2026-04-09T16:36:28.003Z</time></trkpt><trkpt lat="44.82769445185894" lon="4.804645025429265"><ele>111.0</ele><time>2026-04-09T16:36:30.004Z</time></trkpt><trkpt lat="44.82776425251065" lon="4.804710714590482"><ele>111.0</ele><time>2026-04-09T16:36:32.003Z</time></trkpt><trkpt lat="44.82784229644028" lon="4.804766199736816"><ele>111.0</ele><time>2026-04-09T16:36:34.004Z</time></trkpt><trkpt lat="44.82791222805389" lon="4.804832741960558"><ele>111.0</ele><time>2026-04-09T16:36:36.004Z</time></trkpt><trkpt lat="44.82798637052512" lon="4.80490676388972"><ele>111.0</ele><time>2026-04-09T16:36:38.004Z</time></trkpt><trkpt lat="44.82806231547122" lon="4.804967029274453"><ele>111.0</ele><time>2026-04-09T16:36:40.004Z</time></trkpt><trkpt lat="44.82813066000497" lon="4.80502440902408"><ele>111.0</ele><time>2026-04-09T16:36:42.004Z</time></trkpt><trkpt lat="44.82819079570306" lon="4.805078848633923"><ele>111.0</ele><time>2026-04-09T16:36:44.004Z</time></trkpt><trkpt lat="44.828265190837314" lon="4.805150450965682"><ele>111.0</ele><time>2026-04-09T16:36:46.004Z</time></trkpt><trkpt lat="44.828326590539774" lon="4.80520699770862"><ele>111.0</ele><time>2026-04-09T16:36:48.004Z</time></trkpt><trkpt lat="44.828409747281086" lon="4.805290040899159"><ele>111.0</ele><time>2026-04-09T16:36:50.004Z</time></trkpt><trkpt lat="44.828497092281715" lon="4.805367614920455"><ele>111.0</ele><time>2026-04-09T16:36:52.004Z</time></trkpt><trkpt lat="44.82857513653369" lon="4.805416994117858"><ele>110.19999999999999</ele><time>2026-04-09T16:36:54.004Z</time></trkpt><trkpt lat="44.828666150823956" lon="4.805493238872013"><ele>109.39999999999999</ele><time>2026-04-09T16:36:56.004Z</time></trkpt><trkpt lat="44.82875884193996" lon="4.805565745648773"><ele>108.6</ele><time>2026-04-09T16:36:58.004Z</time></trkpt><trkpt lat="44.82884414467379" lon="4.805624792978954"><ele>107.8</ele><time>2026-04-09T16:37:00.004Z</time></trkpt><trkpt lat="44.82892331796678" lon="4.8056848958231955"><ele>107.0</ele><time>2026-04-09T16:37:02.004Z</time></trkpt><trkpt lat="44.82900038930303" lon="4.805733778884953"><ele>106.99999999999999</ele><time>2026-04-09T16:37:04.004Z</time></trkpt><trkpt lat="44.82907310582262" lon="4.80578700743967"><ele>107.0</ele><time>2026-04-09T16:37:06.004Z</time></trkpt><trkpt lat="44.82914173779977" lon="4.805834470865891"><ele>107.0</ele><time>2026-04-09T16:37:08.004Z</time></trkpt><trkpt lat="44.82922151986829" lon="4.805879717662394"><ele>107.0</ele><time>2026-04-09T16:37:10.004Z</time></trkpt><trkpt lat="44.82930664930405" lon="4.805931543106733"><ele>106.99999999999999</ele><time>2026-04-09T16:37:12.004Z</time></trkpt><trkpt lat="44.82939098832072" lon="4.80598838828293"><ele>107.0</ele><time>2026-04-09T16:37:14.004Z</time></trkpt><trkpt lat="44.82946640596179" lon="4.8060433478537"><ele>105.8</ele><time>2026-04-09T16:37:16.004Z</time></trkpt><trkpt lat="44.82954694144033" lon="4.8061020604583655"><ele>104.6</ele><time>2026-04-09T16:37:18.004Z</time></trkpt><trkpt lat="44.82961825732415" lon="4.806163788657419"><ele>103.39999999999999</ele><time>2026-04-09T16:37:20.004Z</time></trkpt><trkpt lat="44.82969481093461" lon="4.8062318310157375"><ele>102.19999999999999</ele><time>2026-04-09T16:37:22.004Z</time></trkpt><trkpt lat="44.829779057995225" lon="4.8062975956276786"><ele>101.0</ele><time>2026-04-09T16:37:24.004Z</time></trkpt><trkpt lat="44.82985600703966" lon="4.806365316081582"><ele>100.99999999999999</ele><time>2026-04-09T16:37:26.004Z</time></trkpt><trkpt lat="44.82993381757484" lon="4.806426225128623"><ele>101.0</ele><time>2026-04-09T16:37:28.004Z</time></trkpt><trkpt lat="44.82998880780378" lon="4.806479546596015"><ele>101.0</ele><time>2026-04-09T16:37:30.004Z</time></trkpt><trkpt lat="44.83007670166246" lon="4.80654546044815"><ele>101.0</ele><time>2026-04-09T16:37:32.004Z</time></trkpt><trkpt lat="44.83015653089984" lon="4.806623514396051"><ele>100.99999999999999</ele><time>2026-04-09T16:37:35.004Z</time></trkpt><trkpt lat="44.83023598503631" lon="4.806676468568021"><ele>101.0</ele><time>2026-04-09T16:37:37.004Z</time></trkpt><trkpt lat="44.83029993644296" lon="4.806733245086066"><ele>100.49999999999999</ele><time>2026-04-09T16:37:39.004Z</time></trkpt><trkpt lat="44.83036044476926" lon="4.8067885225209315"><ele>100.0</ele><time>2026-04-09T16:37:41.004Z</time></trkpt><trkpt lat="44.830438344860546" lon="4.806856741576734"><ele>99.5</ele><time>2026-04-09T16:37:43.004Z</time></trkpt><trkpt lat="44.83052193198391" lon="4.80693986242859"><ele>99.0</ele><time>2026-04-09T16:37:45.004Z</time></trkpt><trkpt lat="44.83059886306474" lon="4.806988276972322"><ele>98.49999999999999</ele><time>2026-04-09T16:37:47.004Z</time></trkpt><trkpt lat="44.83067625025438" lon="4.807039841441076"><ele>98.0</ele><time>2026-04-09T16:37:49.004Z</time></trkpt><trkpt lat="44.83076104527319" lon="4.807119148244119"><ele>98.0</ele><time>2026-04-09T16:37:51.004Z</time></trkpt><trkpt lat="44.830835337791264" lon="4.8071848181361085"><ele>98.0</ele><time>2026-04-09T16:37:53.004Z</time></trkpt><trkpt lat="44.830912282241655" lon="4.807251816012873"><ele>98.0</ele><time>2026-04-09T16:37:55.004Z</time></trkpt><trkpt lat="44.83100248972434" lon="4.807335385677324"><ele>98.0</ele><time>2026-04-09T16:37:57.004Z</time></trkpt><trkpt lat="44.83108875379604" lon="4.807418900037521"><ele>98.0</ele><time>2026-04-09T16:37:59.004Z</time></trkpt><trkpt lat="44.83118100903804" lon="4.807507647832382"><ele>98.2</ele><time>2026-04-09T16:38:01.004Z</time></trkpt><trkpt lat="44.83127357883602" lon="4.8075938127877516"><ele>98.4</ele><time>2026-04-09T16:38:03.004Z</time></trkpt><trkpt lat="44.831353567957024" lon="4.807688434373583"><ele>98.60000000000001</ele><time>2026-04-09T16:38:05.004Z</time></trkpt><trkpt lat="44.83143389920835" lon="4.807773597593386"><ele>98.80000000000001</ele><time>2026-04-09T16:38:07.004Z</time></trkpt><trkpt lat="44.831506227837174" lon="4.807865043598276"><ele>99.0</ele><time>2026-04-09T16:38:09.004Z</time></trkpt><trkpt lat="44.83157150557812" lon="4.807970413712594"><ele>99.0</ele><time>2026-04-09T16:38:11.004Z</time></trkpt><trkpt lat="44.83163747431108" lon="4.808077655844931"><ele>99.0</ele><time>2026-04-09T16:38:13.004Z</time></trkpt><trkpt lat="44.83169197426867" lon="4.808195169799724"><ele>99.0</ele><time>2026-04-09T16:38:15.004Z</time></trkpt><trkpt lat="44.83173995289238" lon="4.8082945487776145"><ele>99.0</ele><time>2026-04-09T16:38:17.004Z</time></trkpt><trkpt lat="44.83170880059819" lon="4.808396392652772"><ele>99.0</ele><time>2026-04-09T16:38:19.004Z</time></trkpt><trkpt lat="44.83165049297658" lon="4.808437410171277"><ele>99.0</ele><time>2026-04-09T16:38:20.004Z</time></trkpt><trkpt lat="44.831592344489685" lon="4.8084812047448455"><ele>98.71428571428572</ele><time>2026-04-09T16:38:21.004Z</time></trkpt><trkpt lat="44.83153358963288" lon="4.808544163829099"><ele>98.42857142857142</ele><time>2026-04-09T16:38:22.004Z</time></trkpt><trkpt lat="44.831479521168156" lon="4.808594933170653"><ele>98.14285714285714</ele><time>2026-04-09T16:38:23.004Z</time></trkpt><trkpt lat="44.83142251838932" lon="4.808650251499342"><ele>97.85714285714286</ele><time>2026-04-09T16:38:24.004Z</time></trkpt><trkpt lat="44.83137014454592" lon="4.808704689453366"><ele>97.57142857142858</ele><time>2026-04-09T16:38:25.004Z</time></trkpt><trkpt lat="44.8313189900051" lon="4.808758137897443"><ele>97.28571428571428</ele><time>2026-04-09T16:38:26.004Z</time></trkpt><trkpt lat="44.83126268061566" lon="4.808804708676469"><ele>97.0</ele><time>2026-04-09T16:38:27.003Z</time></trkpt><trkpt lat="44.83116631393162" lon="4.808904844021956"><ele>97.0</ele><time>2026-04-09T16:38:29.004Z</time></trkpt><trkpt lat="44.83107753260139" lon="4.809000151648272"><ele>97.0</ele><time>2026-04-09T16:38:31.004Z</time></trkpt><trkpt lat="44.830977439200296" lon="4.809031907418054"><ele>97.0</ele><time>2026-04-09T16:38:33.004Z</time></trkpt><trkpt lat="44.83087692930837" lon="4.80908349516356"><ele>97.0</ele><time>2026-04-09T16:38:35.003Z</time></trkpt><trkpt lat="44.83079064273828" lon="4.80915527926747"><ele>97.0</ele><time>2026-04-09T16:38:37.004Z</time></trkpt><trkpt lat="44.83070829452378" lon="4.809232053798379"><ele>96.0</ele><time>2026-04-09T16:38:39.004Z</time></trkpt><trkpt lat="44.83062602952922" lon="4.809299407468894"><ele>96.0</ele><time>2026-04-09T16:38:41.004Z</time></trkpt><trkpt lat="44.83055868818402" lon="4.809350497182058"><ele>97.0</ele><time>2026-04-09T16:38:43.004Z</time></trkpt><trkpt lat="44.830488900337734" lon="4.809377631280642"><ele>97.0</ele><time>2026-04-09T16:38:47.004Z</time></trkpt></trkseg></trk></gpx>